<?xml version="1.0" encoding="UTF-8" standalone="no" ?>
<gpx xmlns="http://www.topografix.com/GPX/1/1" xmlns:xsi="http://www.w3.org/2001/XMLSchema-instance" xsi:schemaLocation="http://www.topografix.com/GPX/1/1 http://www.topografix.com/GPX/1/1/gpx.xsd" version="1.1" creator="VisuGPX - https://www.visugpx.com">
  <metadata>
    <name>Vallée de l'Orne</name>
    <desc><![CDATA[Vallée de l'Orne, de Thury-Harcourt à Grimbosq et retour.]]></desc>
  </metadata>
  <trk>
    <name><![CDATA[2019-09-15 13-24-15-F]]></name>
    <trkseg>
      <trkpt lat="48.98616" lon="-0.47814">
        <ele>115.98</ele>
        <time>2019-09-15T07:36:20Z</time>
      </trkpt>
      <trkpt lat="48.98615" lon="-0.47814">
        <ele>115.98</ele>
        <time>2019-09-15T07:36:21Z</time>
      </trkpt>
      <trkpt lat="48.98615" lon="-0.47813">
        <ele>54.45</ele>
        <time>2019-09-15T07:36:24Z</time>
      </trkpt>
      <trkpt lat="48.98615" lon="-0.47813">
        <ele>54.45</ele>
        <time>2019-09-15T07:36:25Z</time>
      </trkpt>
      <trkpt lat="48.98614" lon="-0.47809">
        <ele>55.41</ele>
        <time>2019-09-15T07:36:48Z</time>
      </trkpt>
      <trkpt lat="48.98605" lon="-0.47808">
        <ele>55.41</ele>
        <time>2019-09-15T07:37:07Z</time>
      </trkpt>
      <trkpt lat="48.98593" lon="-0.478">
        <ele>55.41</ele>
        <time>2019-09-15T07:37:20Z</time>
      </trkpt>
      <trkpt lat="48.98596" lon="-0.47786">
        <ele>55.41</ele>
        <time>2019-09-15T07:37:32Z</time>
      </trkpt>
      <trkpt lat="48.98602" lon="-0.47776">
        <ele>55.41</ele>
        <time>2019-09-15T07:37:43Z</time>
      </trkpt>
      <trkpt lat="48.98604" lon="-0.47773">
        <ele>55.89</ele>
        <time>2019-09-15T07:37:46Z</time>
      </trkpt>
      <trkpt lat="48.9861" lon="-0.47758">
        <ele>56.37</ele>
        <time>2019-09-15T07:37:59Z</time>
      </trkpt>
      <trkpt lat="48.98612" lon="-0.47744">
        <ele>56.37</ele>
        <time>2019-09-15T07:38:10Z</time>
      </trkpt>
      <trkpt lat="48.98625" lon="-0.47738">
        <ele>55.89</ele>
        <time>2019-09-15T07:38:22Z</time>
      </trkpt>
      <trkpt lat="48.98627" lon="-0.47735">
        <ele>55.89</ele>
        <time>2019-09-15T07:38:24Z</time>
      </trkpt>
      <trkpt lat="48.98628" lon="-0.47718">
        <ele>55.89</ele>
        <time>2019-09-15T07:38:29Z</time>
      </trkpt>
      <trkpt lat="48.9863" lon="-0.47706">
        <ele>55.89</ele>
        <time>2019-09-15T07:38:33Z</time>
      </trkpt>
      <trkpt lat="48.98629" lon="-0.47669">
        <ele>55.41</ele>
        <time>2019-09-15T07:38:51Z</time>
      </trkpt>
      <trkpt lat="48.98629" lon="-0.47667">
        <ele>55.41</ele>
        <time>2019-09-15T07:38:52Z</time>
      </trkpt>
      <trkpt lat="48.98627" lon="-0.47634">
        <ele>56.37</ele>
        <time>2019-09-15T07:39:07Z</time>
      </trkpt>
      <trkpt lat="48.98624" lon="-0.47594">
        <ele>56.37</ele>
        <time>2019-09-15T07:39:27Z</time>
      </trkpt>
      <trkpt lat="48.98626" lon="-0.47588">
        <ele>56.37</ele>
        <time>2019-09-15T07:39:31Z</time>
      </trkpt>
      <trkpt lat="48.98636" lon="-0.47583">
        <ele>56.37</ele>
        <time>2019-09-15T07:39:41Z</time>
      </trkpt>
      <trkpt lat="48.98638" lon="-0.47576">
        <ele>55.41</ele>
        <time>2019-09-15T07:39:46Z</time>
      </trkpt>
      <trkpt lat="48.98637" lon="-0.47565">
        <ele>55.41</ele>
        <time>2019-09-15T07:39:52Z</time>
      </trkpt>
      <trkpt lat="48.98642" lon="-0.47562">
        <ele>55.41</ele>
        <time>2019-09-15T07:39:57Z</time>
      </trkpt>
      <trkpt lat="48.98643" lon="-0.47564">
        <ele>55.41</ele>
        <time>2019-09-15T07:39:59Z</time>
      </trkpt>
      <trkpt lat="48.98645" lon="-0.47578">
        <ele>55.41</ele>
        <time>2019-09-15T07:40:11Z</time>
      </trkpt>
      <trkpt lat="48.98646" lon="-0.47579">
        <ele>55.41</ele>
        <time>2019-09-15T07:40:12Z</time>
      </trkpt>
      <trkpt lat="48.9866" lon="-0.47569">
        <ele>53.49</ele>
        <time>2019-09-15T07:40:25Z</time>
      </trkpt>
      <trkpt lat="48.98665" lon="-0.47558">
        <ele>52.05</ele>
        <time>2019-09-15T07:40:40Z</time>
      </trkpt>
      <trkpt lat="48.98665" lon="-0.47556">
        <ele>52.05</ele>
        <time>2019-09-15T07:40:41Z</time>
      </trkpt>
      <trkpt lat="48.98667" lon="-0.47519">
        <ele>50.61</ele>
        <time>2019-09-15T07:41:01Z</time>
      </trkpt>
      <trkpt lat="48.98677" lon="-0.47485">
        <ele>49.16</ele>
        <time>2019-09-15T07:41:20Z</time>
      </trkpt>
      <trkpt lat="48.98689" lon="-0.47448">
        <ele>49.16</ele>
        <time>2019-09-15T07:41:40Z</time>
      </trkpt>
      <trkpt lat="48.98697" lon="-0.47432">
        <ele>48.68</ele>
        <time>2019-09-15T07:41:56Z</time>
      </trkpt>
      <trkpt lat="48.98702" lon="-0.47413">
        <ele>46.76</ele>
        <time>2019-09-15T07:42:08Z</time>
      </trkpt>
      <trkpt lat="48.98709" lon="-0.47404">
        <ele>43.88</ele>
        <time>2019-09-15T07:42:23Z</time>
      </trkpt>
      <trkpt lat="48.98708" lon="-0.47419">
        <ele>40.99</ele>
        <time>2019-09-15T07:42:36Z</time>
      </trkpt>
      <trkpt lat="48.9871" lon="-0.47421">
        <ele>40.51</ele>
        <time>2019-09-15T07:42:39Z</time>
      </trkpt>
      <trkpt lat="48.98733" lon="-0.4742">
        <ele>40.03</ele>
        <time>2019-09-15T07:42:58Z</time>
      </trkpt>
      <trkpt lat="48.98744" lon="-0.47421">
        <ele>39.55</ele>
        <time>2019-09-15T07:43:13Z</time>
      </trkpt>
      <trkpt lat="48.98759" lon="-0.4743">
        <ele>39.07</ele>
        <time>2019-09-15T07:43:31Z</time>
      </trkpt>
      <trkpt lat="48.98761" lon="-0.47429">
        <ele>38.59</ele>
        <time>2019-09-15T07:43:51Z</time>
      </trkpt>
      <trkpt lat="48.9876" lon="-0.4743">
        <ele>38.11</ele>
        <time>2019-09-15T07:44:02Z</time>
      </trkpt>
      <trkpt lat="48.98757" lon="-0.47432">
        <ele>40.51</ele>
        <time>2019-09-15T07:44:05Z</time>
      </trkpt>
      <trkpt lat="48.98756" lon="-0.47433">
        <ele>39.07</ele>
        <time>2019-09-15T07:44:07Z</time>
      </trkpt>
      <trkpt lat="48.98755" lon="-0.47434">
        <ele>39.07</ele>
        <time>2019-09-15T07:44:08Z</time>
      </trkpt>
      <trkpt lat="48.98752" lon="-0.4744">
        <ele>39.07</ele>
        <time>2019-09-15T07:44:12Z</time>
      </trkpt>
      <trkpt lat="48.98756" lon="-0.4747">
        <ele>38.11</ele>
        <time>2019-09-15T07:44:28Z</time>
      </trkpt>
      <trkpt lat="48.98757" lon="-0.4748">
        <ele>36.67</ele>
        <time>2019-09-15T07:44:34Z</time>
      </trkpt>
      <trkpt lat="48.98755" lon="-0.47484">
        <ele>36.19</ele>
        <time>2019-09-15T07:44:37Z</time>
      </trkpt>
      <trkpt lat="48.98758" lon="-0.47491">
        <ele>35.71</ele>
        <time>2019-09-15T07:44:41Z</time>
      </trkpt>
      <trkpt lat="48.98759" lon="-0.47524">
        <ele>35.71</ele>
        <time>2019-09-15T07:44:58Z</time>
      </trkpt>
      <trkpt lat="48.98749" lon="-0.47553">
        <ele>37.63</ele>
        <time>2019-09-15T07:45:16Z</time>
      </trkpt>
      <trkpt lat="48.98741" lon="-0.47557">
        <ele>37.63</ele>
        <time>2019-09-15T07:45:24Z</time>
      </trkpt>
      <trkpt lat="48.98739" lon="-0.47561">
        <ele>37.63</ele>
        <time>2019-09-15T07:45:26Z</time>
      </trkpt>
      <trkpt lat="48.98744" lon="-0.47594">
        <ele>38.11</ele>
        <time>2019-09-15T07:45:43Z</time>
      </trkpt>
      <trkpt lat="48.98748" lon="-0.4763">
        <ele>38.11</ele>
        <time>2019-09-15T07:46:00Z</time>
      </trkpt>
      <trkpt lat="48.98748" lon="-0.47634">
        <ele>36.67</ele>
        <time>2019-09-15T07:46:02Z</time>
      </trkpt>
      <trkpt lat="48.98757" lon="-0.47643">
        <ele>36.67</ele>
        <time>2019-09-15T07:46:16Z</time>
      </trkpt>
      <trkpt lat="48.98758" lon="-0.47642">
        <ele>36.67</ele>
        <time>2019-09-15T07:46:18Z</time>
      </trkpt>
      <trkpt lat="48.98764" lon="-0.47641">
        <ele>36.67</ele>
        <time>2019-09-15T07:46:23Z</time>
      </trkpt>
      <trkpt lat="48.98789" lon="-0.4764">
        <ele>39.07</ele>
        <time>2019-09-15T07:46:41Z</time>
      </trkpt>
      <trkpt lat="48.98798" lon="-0.47646">
        <ele>39.55</ele>
        <time>2019-09-15T07:46:50Z</time>
      </trkpt>
      <trkpt lat="48.98802" lon="-0.47677">
        <ele>40.51</ele>
        <time>2019-09-15T07:47:06Z</time>
      </trkpt>
      <trkpt lat="48.988" lon="-0.47687">
        <ele>40.99</ele>
        <time>2019-09-15T07:47:12Z</time>
      </trkpt>
      <trkpt lat="48.98803" lon="-0.47694">
        <ele>40.99</ele>
        <time>2019-09-15T07:47:16Z</time>
      </trkpt>
      <trkpt lat="48.98809" lon="-0.47699">
        <ele>41.47</ele>
        <time>2019-09-15T07:47:21Z</time>
      </trkpt>
      <trkpt lat="48.98825" lon="-0.47687">
        <ele>41.47</ele>
        <time>2019-09-15T07:47:33Z</time>
      </trkpt>
      <trkpt lat="48.98847" lon="-0.47662">
        <ele>41.47</ele>
        <time>2019-09-15T07:47:53Z</time>
      </trkpt>
      <trkpt lat="48.98851" lon="-0.47662">
        <ele>41.47</ele>
        <time>2019-09-15T07:47:56Z</time>
      </trkpt>
      <trkpt lat="48.98856" lon="-0.47666">
        <ele>42.44</ele>
        <time>2019-09-15T07:48:09Z</time>
      </trkpt>
      <trkpt lat="48.98858" lon="-0.4766">
        <ele>45.32</ele>
        <time>2019-09-15T07:48:22Z</time>
      </trkpt>
      <trkpt lat="48.98858" lon="-0.47654">
        <ele>48.2</ele>
        <time>2019-09-15T07:48:35Z</time>
      </trkpt>
      <trkpt lat="48.98862" lon="-0.4765">
        <ele>50.61</ele>
        <time>2019-09-15T07:48:47Z</time>
      </trkpt>
      <trkpt lat="48.98865" lon="-0.47652">
        <ele>53.97</ele>
        <time>2019-09-15T07:48:59Z</time>
      </trkpt>
      <trkpt lat="48.9887" lon="-0.47657">
        <ele>56.37</ele>
        <time>2019-09-15T07:49:12Z</time>
      </trkpt>
      <trkpt lat="48.98872" lon="-0.47648">
        <ele>59.26</ele>
        <time>2019-09-15T07:49:25Z</time>
      </trkpt>
      <trkpt lat="48.98873" lon="-0.47638">
        <ele>61.18</ele>
        <time>2019-09-15T07:49:39Z</time>
      </trkpt>
      <trkpt lat="48.98877" lon="-0.47654">
        <ele>63.1</ele>
        <time>2019-09-15T07:49:52Z</time>
      </trkpt>
      <trkpt lat="48.98881" lon="-0.47658">
        <ele>64.07</ele>
        <time>2019-09-15T07:50:06Z</time>
      </trkpt>
      <trkpt lat="48.98881" lon="-0.47639">
        <ele>65.03</ele>
        <time>2019-09-15T07:50:22Z</time>
      </trkpt>
      <trkpt lat="48.98887" lon="-0.47647">
        <ele>67.91</ele>
        <time>2019-09-15T07:50:36Z</time>
      </trkpt>
      <trkpt lat="48.98887" lon="-0.47651">
        <ele>67.91</ele>
        <time>2019-09-15T07:50:52Z</time>
      </trkpt>
      <trkpt lat="48.98887" lon="-0.47648">
        <ele>67.91</ele>
        <time>2019-09-15T07:51:09Z</time>
      </trkpt>
      <trkpt lat="48.98888" lon="-0.47645">
        <ele>67.91</ele>
        <time>2019-09-15T07:51:23Z</time>
      </trkpt>
      <trkpt lat="48.98887" lon="-0.4764">
        <ele>67.91</ele>
        <time>2019-09-15T07:51:26Z</time>
      </trkpt>
      <trkpt lat="48.98888" lon="-0.47624">
        <ele>68.39</ele>
        <time>2019-09-15T07:51:44Z</time>
      </trkpt>
      <trkpt lat="48.98891" lon="-0.4763">
        <ele>68.87</ele>
        <time>2019-09-15T07:51:58Z</time>
      </trkpt>
      <trkpt lat="48.98895" lon="-0.4764">
        <ele>69.35</ele>
        <time>2019-09-15T07:52:07Z</time>
      </trkpt>
      <trkpt lat="48.98901" lon="-0.47639">
        <ele>70.79</ele>
        <time>2019-09-15T07:52:15Z</time>
      </trkpt>
      <trkpt lat="48.98903" lon="-0.47633">
        <ele>71.27</ele>
        <time>2019-09-15T07:52:19Z</time>
      </trkpt>
      <trkpt lat="48.98908" lon="-0.476">
        <ele>73.68</ele>
        <time>2019-09-15T07:52:38Z</time>
      </trkpt>
      <trkpt lat="48.98911" lon="-0.47578">
        <ele>75.12</ele>
        <time>2019-09-15T07:52:52Z</time>
      </trkpt>
      <trkpt lat="48.98917" lon="-0.47535">
        <ele>76.56</ele>
        <time>2019-09-15T07:53:14Z</time>
      </trkpt>
      <trkpt lat="48.98924" lon="-0.47498">
        <ele>77.52</ele>
        <time>2019-09-15T07:53:34Z</time>
      </trkpt>
      <trkpt lat="48.98931" lon="-0.47452">
        <ele>78.48</ele>
        <time>2019-09-15T07:53:58Z</time>
      </trkpt>
      <trkpt lat="48.98937" lon="-0.4741">
        <ele>79.45</ele>
        <time>2019-09-15T07:54:20Z</time>
      </trkpt>
      <trkpt lat="48.98944" lon="-0.47363">
        <ele>80.41</ele>
        <time>2019-09-15T07:54:43Z</time>
      </trkpt>
      <trkpt lat="48.98952" lon="-0.4732">
        <ele>80.41</ele>
        <time>2019-09-15T07:55:06Z</time>
      </trkpt>
      <trkpt lat="48.98958" lon="-0.47277">
        <ele>81.37</ele>
        <time>2019-09-15T07:55:27Z</time>
      </trkpt>
      <trkpt lat="48.9897" lon="-0.47234">
        <ele>81.37</ele>
        <time>2019-09-15T07:55:50Z</time>
      </trkpt>
      <trkpt lat="48.98983" lon="-0.47196">
        <ele>82.81</ele>
        <time>2019-09-15T07:56:11Z</time>
      </trkpt>
      <trkpt lat="48.98997" lon="-0.47156">
        <ele>84.25</ele>
        <time>2019-09-15T07:56:33Z</time>
      </trkpt>
      <trkpt lat="48.99" lon="-0.47142">
        <ele>83.29</ele>
        <time>2019-09-15T07:56:47Z</time>
      </trkpt>
      <trkpt lat="48.98997" lon="-0.47142">
        <ele>83.29</ele>
        <time>2019-09-15T07:57:35Z</time>
      </trkpt>
      <trkpt lat="48.99" lon="-0.47142">
        <ele>83.29</ele>
        <time>2019-09-15T07:58:26Z</time>
      </trkpt>
      <trkpt lat="48.99003" lon="-0.47143">
        <ele>83.29</ele>
        <time>2019-09-15T07:58:41Z</time>
      </trkpt>
      <trkpt lat="48.99003" lon="-0.47143">
        <ele>84.73</ele>
        <time>2019-09-15T07:58:50Z</time>
      </trkpt>
      <trkpt lat="48.99003" lon="-0.47141">
        <ele>84.73</ele>
        <time>2019-09-15T07:59:03Z</time>
      </trkpt>
      <trkpt lat="48.99006" lon="-0.47138">
        <ele>85.21</ele>
        <time>2019-09-15T07:59:14Z</time>
      </trkpt>
      <trkpt lat="48.99016" lon="-0.47124">
        <ele>86.18</ele>
        <time>2019-09-15T07:59:24Z</time>
      </trkpt>
      <trkpt lat="48.9903" lon="-0.47123">
        <ele>87.14</ele>
        <time>2019-09-15T07:59:38Z</time>
      </trkpt>
      <trkpt lat="48.99058" lon="-0.47126">
        <ele>90.02</ele>
        <time>2019-09-15T08:00:00Z</time>
      </trkpt>
      <trkpt lat="48.99092" lon="-0.47131">
        <ele>92.42</ele>
        <time>2019-09-15T08:00:25Z</time>
      </trkpt>
      <trkpt lat="48.99123" lon="-0.47132">
        <ele>94.83</ele>
        <time>2019-09-15T08:00:48Z</time>
      </trkpt>
      <trkpt lat="48.99132" lon="-0.4713">
        <ele>94.83</ele>
        <time>2019-09-15T08:01:00Z</time>
      </trkpt>
      <trkpt lat="48.99164" lon="-0.4712">
        <ele>95.79</ele>
        <time>2019-09-15T08:01:25Z</time>
      </trkpt>
      <trkpt lat="48.99196" lon="-0.4711">
        <ele>96.27</ele>
        <time>2019-09-15T08:01:49Z</time>
      </trkpt>
      <trkpt lat="48.99225" lon="-0.47103">
        <ele>96.27</ele>
        <time>2019-09-15T08:02:11Z</time>
      </trkpt>
      <trkpt lat="48.99247" lon="-0.47096">
        <ele>96.27</ele>
        <time>2019-09-15T08:02:28Z</time>
      </trkpt>
      <trkpt lat="48.99272" lon="-0.47088">
        <ele>96.75</ele>
        <time>2019-09-15T08:02:47Z</time>
      </trkpt>
      <trkpt lat="48.99302" lon="-0.47081">
        <ele>96.27</ele>
        <time>2019-09-15T08:03:08Z</time>
      </trkpt>
      <trkpt lat="48.99339" lon="-0.47071">
        <ele>96.27</ele>
        <time>2019-09-15T08:03:36Z</time>
      </trkpt>
      <trkpt lat="48.99367" lon="-0.47061">
        <ele>96.27</ele>
        <time>2019-09-15T08:03:57Z</time>
      </trkpt>
      <trkpt lat="48.99396" lon="-0.47054">
        <ele>96.27</ele>
        <time>2019-09-15T08:04:20Z</time>
      </trkpt>
      <trkpt lat="48.99428" lon="-0.47044">
        <ele>96.75</ele>
        <time>2019-09-15T08:04:43Z</time>
      </trkpt>
      <trkpt lat="48.99464" lon="-0.47033">
        <ele>96.75</ele>
        <time>2019-09-15T08:05:10Z</time>
      </trkpt>
      <trkpt lat="48.99476" lon="-0.47038">
        <ele>96.75</ele>
        <time>2019-09-15T08:05:19Z</time>
      </trkpt>
      <trkpt lat="48.99477" lon="-0.47084">
        <ele>93.87</ele>
        <time>2019-09-15T08:05:41Z</time>
      </trkpt>
      <trkpt lat="48.99476" lon="-0.4713">
        <ele>90.98</ele>
        <time>2019-09-15T08:06:04Z</time>
      </trkpt>
      <trkpt lat="48.99477" lon="-0.4716">
        <ele>89.54</ele>
        <time>2019-09-15T08:06:19Z</time>
      </trkpt>
      <trkpt lat="48.99477" lon="-0.47162">
        <ele>89.54</ele>
        <time>2019-09-15T08:06:20Z</time>
      </trkpt>
      <trkpt lat="48.99477" lon="-0.47176">
        <ele>88.1</ele>
        <time>2019-09-15T08:06:28Z</time>
      </trkpt>
      <trkpt lat="48.99477" lon="-0.47178">
        <ele>88.1</ele>
        <time>2019-09-15T08:06:29Z</time>
      </trkpt>
      <trkpt lat="48.99476" lon="-0.47221">
        <ele>85.21</ele>
        <time>2019-09-15T08:06:51Z</time>
      </trkpt>
      <trkpt lat="48.99479" lon="-0.47256">
        <ele>83.77</ele>
        <time>2019-09-15T08:07:08Z</time>
      </trkpt>
      <trkpt lat="48.99481" lon="-0.47258">
        <ele>83.77</ele>
        <time>2019-09-15T08:07:10Z</time>
      </trkpt>
      <trkpt lat="48.99482" lon="-0.47258">
        <ele>83.77</ele>
        <time>2019-09-15T08:07:11Z</time>
      </trkpt>
      <trkpt lat="48.99483" lon="-0.47257">
        <ele>83.29</ele>
        <time>2019-09-15T08:07:14Z</time>
      </trkpt>
      <trkpt lat="48.99484" lon="-0.47255">
        <ele>83.29</ele>
        <time>2019-09-15T08:07:15Z</time>
      </trkpt>
      <trkpt lat="48.99485" lon="-0.47256">
        <ele>83.29</ele>
        <time>2019-09-15T08:07:26Z</time>
      </trkpt>
      <trkpt lat="48.99486" lon="-0.47258">
        <ele>83.29</ele>
        <time>2019-09-15T08:07:27Z</time>
      </trkpt>
      <trkpt lat="48.99487" lon="-0.47258">
        <ele>83.29</ele>
        <time>2019-09-15T08:07:28Z</time>
      </trkpt>
      <trkpt lat="48.99497" lon="-0.47263">
        <ele>81.37</ele>
        <time>2019-09-15T08:07:44Z</time>
      </trkpt>
      <trkpt lat="48.99496" lon="-0.47261">
        <ele>81.37</ele>
        <time>2019-09-15T08:08:03Z</time>
      </trkpt>
      <trkpt lat="48.99509" lon="-0.47262">
        <ele>80.41</ele>
        <time>2019-09-15T08:08:19Z</time>
      </trkpt>
      <trkpt lat="48.99527" lon="-0.47278">
        <ele>77.52</ele>
        <time>2019-09-15T08:08:38Z</time>
      </trkpt>
      <trkpt lat="48.99533" lon="-0.47306">
        <ele>74.16</ele>
        <time>2019-09-15T08:08:54Z</time>
      </trkpt>
      <trkpt lat="48.99546" lon="-0.47342">
        <ele>70.79</ele>
        <time>2019-09-15T08:09:16Z</time>
      </trkpt>
      <trkpt lat="48.99555" lon="-0.47368">
        <ele>68.87</ele>
        <time>2019-09-15T08:09:32Z</time>
      </trkpt>
      <trkpt lat="48.99571" lon="-0.47406">
        <ele>65.51</ele>
        <time>2019-09-15T08:09:55Z</time>
      </trkpt>
      <trkpt lat="48.99583" lon="-0.47435">
        <ele>64.55</ele>
        <time>2019-09-15T08:10:13Z</time>
      </trkpt>
      <trkpt lat="48.99594" lon="-0.47466">
        <ele>62.62</ele>
        <time>2019-09-15T08:10:32Z</time>
      </trkpt>
      <trkpt lat="48.99604" lon="-0.47488">
        <ele>61.66</ele>
        <time>2019-09-15T08:10:48Z</time>
      </trkpt>
      <trkpt lat="48.99624" lon="-0.47495">
        <ele>61.18</ele>
        <time>2019-09-15T08:11:05Z</time>
      </trkpt>
      <trkpt lat="48.99647" lon="-0.47484">
        <ele>59.74</ele>
        <time>2019-09-15T08:11:23Z</time>
      </trkpt>
      <trkpt lat="48.99671" lon="-0.4746">
        <ele>58.3</ele>
        <time>2019-09-15T08:11:45Z</time>
      </trkpt>
      <trkpt lat="48.99691" lon="-0.47431">
        <ele>56.86</ele>
        <time>2019-09-15T08:12:06Z</time>
      </trkpt>
      <trkpt lat="48.99706" lon="-0.47398">
        <ele>56.86</ele>
        <time>2019-09-15T08:12:26Z</time>
      </trkpt>
      <trkpt lat="48.99719" lon="-0.47368">
        <ele>56.86</ele>
        <time>2019-09-15T08:12:47Z</time>
      </trkpt>
      <trkpt lat="48.99718" lon="-0.47366">
        <ele>56.86</ele>
        <time>2019-09-15T08:13:05Z</time>
      </trkpt>
      <trkpt lat="48.99719" lon="-0.47368">
        <ele>56.86</ele>
        <time>2019-09-15T08:13:22Z</time>
      </trkpt>
      <trkpt lat="48.9973" lon="-0.47343">
        <ele>56.86</ele>
        <time>2019-09-15T08:13:38Z</time>
      </trkpt>
      <trkpt lat="48.99731" lon="-0.47341">
        <ele>56.86</ele>
        <time>2019-09-15T08:13:39Z</time>
      </trkpt>
      <trkpt lat="48.99731" lon="-0.4734">
        <ele>56.86</ele>
        <time>2019-09-15T08:13:40Z</time>
      </trkpt>
      <trkpt lat="48.99732" lon="-0.47338">
        <ele>56.86</ele>
        <time>2019-09-15T08:13:41Z</time>
      </trkpt>
      <trkpt lat="48.99733" lon="-0.47337">
        <ele>56.86</ele>
        <time>2019-09-15T08:13:42Z</time>
      </trkpt>
      <trkpt lat="48.99734" lon="-0.47335">
        <ele>56.86</ele>
        <time>2019-09-15T08:13:43Z</time>
      </trkpt>
      <trkpt lat="48.99747" lon="-0.47306">
        <ele>56.86</ele>
        <time>2019-09-15T08:14:01Z</time>
      </trkpt>
      <trkpt lat="48.9976" lon="-0.47281">
        <ele>56.86</ele>
        <time>2019-09-15T08:14:18Z</time>
      </trkpt>
      <trkpt lat="48.99762" lon="-0.47274">
        <ele>56.86</ele>
        <time>2019-09-15T08:14:23Z</time>
      </trkpt>
      <trkpt lat="48.99763" lon="-0.47272">
        <ele>56.86</ele>
        <time>2019-09-15T08:14:24Z</time>
      </trkpt>
      <trkpt lat="48.99769" lon="-0.47242">
        <ele>56.86</ele>
        <time>2019-09-15T08:14:40Z</time>
      </trkpt>
      <trkpt lat="48.9977" lon="-0.4724">
        <ele>56.86</ele>
        <time>2019-09-15T08:14:41Z</time>
      </trkpt>
      <trkpt lat="48.99774" lon="-0.4722">
        <ele>56.37</ele>
        <time>2019-09-15T08:14:54Z</time>
      </trkpt>
      <trkpt lat="48.99779" lon="-0.47203">
        <ele>56.37</ele>
        <time>2019-09-15T08:15:05Z</time>
      </trkpt>
      <trkpt lat="48.99788" lon="-0.4718">
        <ele>56.37</ele>
        <time>2019-09-15T08:15:19Z</time>
      </trkpt>
      <trkpt lat="48.998" lon="-0.47159">
        <ele>56.37</ele>
        <time>2019-09-15T08:15:33Z</time>
      </trkpt>
      <trkpt lat="48.998" lon="-0.47158">
        <ele>56.37</ele>
        <time>2019-09-15T08:15:34Z</time>
      </trkpt>
      <trkpt lat="48.99804" lon="-0.47148">
        <ele>56.37</ele>
        <time>2019-09-15T08:15:40Z</time>
      </trkpt>
      <trkpt lat="48.99812" lon="-0.4713">
        <ele>57.34</ele>
        <time>2019-09-15T08:15:52Z</time>
      </trkpt>
      <trkpt lat="48.99823" lon="-0.47107">
        <ele>57.34</ele>
        <time>2019-09-15T08:16:06Z</time>
      </trkpt>
      <trkpt lat="48.99835" lon="-0.47082">
        <ele>57.34</ele>
        <time>2019-09-15T08:16:21Z</time>
      </trkpt>
      <trkpt lat="48.99846" lon="-0.47062">
        <ele>57.34</ele>
        <time>2019-09-15T08:16:34Z</time>
      </trkpt>
      <trkpt lat="48.99852" lon="-0.47044">
        <ele>57.82</ele>
        <time>2019-09-15T08:16:45Z</time>
      </trkpt>
      <trkpt lat="48.99861" lon="-0.47015">
        <ele>57.82</ele>
        <time>2019-09-15T08:17:00Z</time>
      </trkpt>
      <trkpt lat="48.99865" lon="-0.46986">
        <ele>57.82</ele>
        <time>2019-09-15T08:17:15Z</time>
      </trkpt>
      <trkpt lat="48.99871" lon="-0.46964">
        <ele>57.82</ele>
        <time>2019-09-15T08:17:27Z</time>
      </trkpt>
      <trkpt lat="48.99883" lon="-0.46935">
        <ele>55.89</ele>
        <time>2019-09-15T08:17:45Z</time>
      </trkpt>
      <trkpt lat="48.99898" lon="-0.46904">
        <ele>54.45</ele>
        <time>2019-09-15T08:18:03Z</time>
      </trkpt>
      <trkpt lat="48.9991" lon="-0.46879">
        <ele>53.97</ele>
        <time>2019-09-15T08:18:19Z</time>
      </trkpt>
      <trkpt lat="48.99927" lon="-0.46853">
        <ele>53.01</ele>
        <time>2019-09-15T08:18:37Z</time>
      </trkpt>
      <trkpt lat="48.99939" lon="-0.46833">
        <ele>51.57</ele>
        <time>2019-09-15T08:18:52Z</time>
      </trkpt>
      <trkpt lat="48.99948" lon="-0.46814">
        <ele>50.61</ele>
        <time>2019-09-15T08:19:05Z</time>
      </trkpt>
      <trkpt lat="48.99959" lon="-0.4679">
        <ele>49.65</ele>
        <time>2019-09-15T08:19:21Z</time>
      </trkpt>
      <trkpt lat="48.99972" lon="-0.46765">
        <ele>48.68</ele>
        <time>2019-09-15T08:19:36Z</time>
      </trkpt>
      <trkpt lat="48.99977" lon="-0.46757">
        <ele>47.72</ele>
        <time>2019-09-15T08:19:43Z</time>
      </trkpt>
      <trkpt lat="48.99978" lon="-0.46755">
        <ele>47.72</ele>
        <time>2019-09-15T08:19:44Z</time>
      </trkpt>
      <trkpt lat="48.99979" lon="-0.46753">
        <ele>47.72</ele>
        <time>2019-09-15T08:19:45Z</time>
      </trkpt>
      <trkpt lat="48.9998" lon="-0.46752">
        <ele>47.72</ele>
        <time>2019-09-15T08:19:46Z</time>
      </trkpt>
      <trkpt lat="48.99981" lon="-0.4675">
        <ele>47.72</ele>
        <time>2019-09-15T08:19:47Z</time>
      </trkpt>
      <trkpt lat="48.99982" lon="-0.46748">
        <ele>47.24</ele>
        <time>2019-09-15T08:19:48Z</time>
      </trkpt>
      <trkpt lat="48.99982" lon="-0.46747">
        <ele>47.24</ele>
        <time>2019-09-15T08:19:49Z</time>
      </trkpt>
      <trkpt lat="48.99983" lon="-0.46745">
        <ele>46.76</ele>
        <time>2019-09-15T08:19:50Z</time>
      </trkpt>
      <trkpt lat="48.99984" lon="-0.46743">
        <ele>46.76</ele>
        <time>2019-09-15T08:19:51Z</time>
      </trkpt>
      <trkpt lat="48.99996" lon="-0.46726">
        <ele>45.8</ele>
        <time>2019-09-15T08:20:05Z</time>
      </trkpt>
      <trkpt lat="49.00014" lon="-0.46705">
        <ele>44.84</ele>
        <time>2019-09-15T08:20:20Z</time>
      </trkpt>
      <trkpt lat="49.00033" lon="-0.46699">
        <ele>42.92</ele>
        <time>2019-09-15T08:20:36Z</time>
      </trkpt>
      <trkpt lat="49.00036" lon="-0.46697">
        <ele>42.44</ele>
        <time>2019-09-15T08:20:39Z</time>
      </trkpt>
      <trkpt lat="49.00037" lon="-0.46696">
        <ele>42.44</ele>
        <time>2019-09-15T08:20:40Z</time>
      </trkpt>
      <trkpt lat="49.00038" lon="-0.46695">
        <ele>42.44</ele>
        <time>2019-09-15T08:20:41Z</time>
      </trkpt>
      <trkpt lat="49.00052" lon="-0.46678">
        <ele>40.99</ele>
        <time>2019-09-15T08:20:55Z</time>
      </trkpt>
      <trkpt lat="49.00068" lon="-0.46657">
        <ele>39.07</ele>
        <time>2019-09-15T08:21:11Z</time>
      </trkpt>
      <trkpt lat="49.00081" lon="-0.46637">
        <ele>37.15</ele>
        <time>2019-09-15T08:21:25Z</time>
      </trkpt>
      <trkpt lat="49.00096" lon="-0.46616">
        <ele>36.19</ele>
        <time>2019-09-15T08:21:40Z</time>
      </trkpt>
      <trkpt lat="49.00112" lon="-0.46597">
        <ele>34.26</ele>
        <time>2019-09-15T08:21:56Z</time>
      </trkpt>
      <trkpt lat="49.00129" lon="-0.46578">
        <ele>32.82</ele>
        <time>2019-09-15T08:22:11Z</time>
      </trkpt>
      <trkpt lat="49.00146" lon="-0.46557">
        <ele>31.38</ele>
        <time>2019-09-15T08:22:27Z</time>
      </trkpt>
      <trkpt lat="49.00152" lon="-0.46549">
        <ele>30.9</ele>
        <time>2019-09-15T08:22:33Z</time>
      </trkpt>
      <trkpt lat="49.0016" lon="-0.46536">
        <ele>30.42</ele>
        <time>2019-09-15T08:22:42Z</time>
      </trkpt>
      <trkpt lat="49.00172" lon="-0.46516">
        <ele>30.42</ele>
        <time>2019-09-15T08:22:57Z</time>
      </trkpt>
      <trkpt lat="49.00175" lon="-0.4651">
        <ele>31.38</ele>
        <time>2019-09-15T08:23:23Z</time>
      </trkpt>
      <trkpt lat="49.00181" lon="-0.46504">
        <ele>33.3</ele>
        <time>2019-09-15T08:23:35Z</time>
      </trkpt>
      <trkpt lat="49.00184" lon="-0.46494">
        <ele>35.71</ele>
        <time>2019-09-15T08:23:48Z</time>
      </trkpt>
      <trkpt lat="49.00187" lon="-0.4648">
        <ele>39.07</ele>
        <time>2019-09-15T08:24:02Z</time>
      </trkpt>
      <trkpt lat="49.00186" lon="-0.4647">
        <ele>41.95</ele>
        <time>2019-09-15T08:24:16Z</time>
      </trkpt>
      <trkpt lat="49.00177" lon="-0.46473">
        <ele>44.84</ele>
        <time>2019-09-15T08:24:33Z</time>
      </trkpt>
      <trkpt lat="49.00171" lon="-0.46469">
        <ele>47.72</ele>
        <time>2019-09-15T08:24:48Z</time>
      </trkpt>
      <trkpt lat="49.00172" lon="-0.46453">
        <ele>49.16</ele>
        <time>2019-09-15T08:25:03Z</time>
      </trkpt>
      <trkpt lat="49.00179" lon="-0.46438">
        <ele>51.57</ele>
        <time>2019-09-15T08:25:18Z</time>
      </trkpt>
      <trkpt lat="49.00188" lon="-0.4643">
        <ele>54.45</ele>
        <time>2019-09-15T08:25:35Z</time>
      </trkpt>
      <trkpt lat="49.00189" lon="-0.46418">
        <ele>56.86</ele>
        <time>2019-09-15T08:25:48Z</time>
      </trkpt>
      <trkpt lat="49.00196" lon="-0.46408">
        <ele>59.26</ele>
        <time>2019-09-15T08:26:01Z</time>
      </trkpt>
      <trkpt lat="49.002" lon="-0.46399">
        <ele>62.62</ele>
        <time>2019-09-15T08:26:15Z</time>
      </trkpt>
      <trkpt lat="49.002" lon="-0.46385">
        <ele>65.51</ele>
        <time>2019-09-15T08:26:30Z</time>
      </trkpt>
      <trkpt lat="49.00204" lon="-0.46389">
        <ele>67.91</ele>
        <time>2019-09-15T08:26:45Z</time>
      </trkpt>
      <trkpt lat="49.00211" lon="-0.46398">
        <ele>71.27</ele>
        <time>2019-09-15T08:26:59Z</time>
      </trkpt>
      <trkpt lat="49.00215" lon="-0.46394">
        <ele>73.68</ele>
        <time>2019-09-15T08:27:13Z</time>
      </trkpt>
      <trkpt lat="49.00216" lon="-0.46375">
        <ele>75.6</ele>
        <time>2019-09-15T08:27:27Z</time>
      </trkpt>
      <trkpt lat="49.00214" lon="-0.46361">
        <ele>78.48</ele>
        <time>2019-09-15T08:27:44Z</time>
      </trkpt>
      <trkpt lat="49.00207" lon="-0.46347">
        <ele>78.97</ele>
        <time>2019-09-15T08:27:58Z</time>
      </trkpt>
      <trkpt lat="49.00206" lon="-0.46341">
        <ele>80.89</ele>
        <time>2019-09-15T08:28:06Z</time>
      </trkpt>
      <trkpt lat="49.00191" lon="-0.46325">
        <ele>81.85</ele>
        <time>2019-09-15T08:28:24Z</time>
      </trkpt>
      <trkpt lat="49.00185" lon="-0.46317">
        <ele>85.21</ele>
        <time>2019-09-15T08:28:38Z</time>
      </trkpt>
      <trkpt lat="49.00175" lon="-0.46311">
        <ele>87.14</ele>
        <time>2019-09-15T08:28:55Z</time>
      </trkpt>
      <trkpt lat="49.00167" lon="-0.46315">
        <ele>87.62</ele>
        <time>2019-09-15T08:29:08Z</time>
      </trkpt>
      <trkpt lat="49.00158" lon="-0.4631">
        <ele>90.98</ele>
        <time>2019-09-15T08:29:22Z</time>
      </trkpt>
      <trkpt lat="49.00153" lon="-0.46302">
        <ele>93.39</ele>
        <time>2019-09-15T08:29:35Z</time>
      </trkpt>
      <trkpt lat="49.00151" lon="-0.4629">
        <ele>95.79</ele>
        <time>2019-09-15T08:29:50Z</time>
      </trkpt>
      <trkpt lat="49.0015" lon="-0.46283">
        <ele>98.67</ele>
        <time>2019-09-15T08:30:04Z</time>
      </trkpt>
      <trkpt lat="49.00148" lon="-0.46275">
        <ele>102.04</ele>
        <time>2019-09-15T08:30:19Z</time>
      </trkpt>
      <trkpt lat="49.00143" lon="-0.46263">
        <ele>104.92</ele>
        <time>2019-09-15T08:30:35Z</time>
      </trkpt>
      <trkpt lat="49.00144" lon="-0.46257">
        <ele>107.81</ele>
        <time>2019-09-15T08:30:50Z</time>
      </trkpt>
      <trkpt lat="49.00152" lon="-0.4626">
        <ele>110.21</ele>
        <time>2019-09-15T08:31:05Z</time>
      </trkpt>
      <trkpt lat="49.00163" lon="-0.46263">
        <ele>112.13</ele>
        <time>2019-09-15T08:31:20Z</time>
      </trkpt>
      <trkpt lat="49.00173" lon="-0.4625">
        <ele>114.53</ele>
        <time>2019-09-15T08:31:35Z</time>
      </trkpt>
      <trkpt lat="49.00174" lon="-0.46244">
        <ele>115.98</ele>
        <time>2019-09-15T08:31:40Z</time>
      </trkpt>
      <trkpt lat="49.00177" lon="-0.4624">
        <ele>115.98</ele>
        <time>2019-09-15T08:31:58Z</time>
      </trkpt>
      <trkpt lat="49.00182" lon="-0.4624">
        <ele>115.98</ele>
        <time>2019-09-15T08:32:21Z</time>
      </trkpt>
      <trkpt lat="49.0019" lon="-0.46238">
        <ele>115.98</ele>
        <time>2019-09-15T08:32:29Z</time>
      </trkpt>
      <trkpt lat="49.00206" lon="-0.46234">
        <ele>116.46</ele>
        <time>2019-09-15T08:32:44Z</time>
      </trkpt>
      <trkpt lat="49.00211" lon="-0.46237">
        <ele>116.46</ele>
        <time>2019-09-15T08:32:58Z</time>
      </trkpt>
      <trkpt lat="49.00224" lon="-0.46251">
        <ele>115.98</ele>
        <time>2019-09-15T08:33:12Z</time>
      </trkpt>
      <trkpt lat="49.00239" lon="-0.46271">
        <ele>115.98</ele>
        <time>2019-09-15T08:33:30Z</time>
      </trkpt>
      <trkpt lat="49.00253" lon="-0.46288">
        <ele>115.98</ele>
        <time>2019-09-15T08:33:45Z</time>
      </trkpt>
      <trkpt lat="49.00271" lon="-0.46297">
        <ele>115.98</ele>
        <time>2019-09-15T08:34:01Z</time>
      </trkpt>
      <trkpt lat="49.00289" lon="-0.46298">
        <ele>113.57</ele>
        <time>2019-09-15T08:34:16Z</time>
      </trkpt>
      <trkpt lat="49.00315" lon="-0.463">
        <ele>112.13</ele>
        <time>2019-09-15T08:34:36Z</time>
      </trkpt>
      <trkpt lat="49.0033" lon="-0.46299">
        <ele>111.17</ele>
        <time>2019-09-15T08:34:48Z</time>
      </trkpt>
      <trkpt lat="49.00331" lon="-0.463">
        <ele>111.17</ele>
        <time>2019-09-15T08:34:49Z</time>
      </trkpt>
      <trkpt lat="49.00334" lon="-0.46301">
        <ele>110.69</ele>
        <time>2019-09-15T08:34:52Z</time>
      </trkpt>
      <trkpt lat="49.00338" lon="-0.46301">
        <ele>110.69</ele>
        <time>2019-09-15T08:35:03Z</time>
      </trkpt>
      <trkpt lat="49.00339" lon="-0.46302">
        <ele>110.69</ele>
        <time>2019-09-15T08:35:04Z</time>
      </trkpt>
      <trkpt lat="49.0034" lon="-0.46302">
        <ele>110.69</ele>
        <time>2019-09-15T08:35:05Z</time>
      </trkpt>
      <trkpt lat="49.00341" lon="-0.46303">
        <ele>110.21</ele>
        <time>2019-09-15T08:35:06Z</time>
      </trkpt>
      <trkpt lat="49.00353" lon="-0.46305">
        <ele>108.77</ele>
        <time>2019-09-15T08:35:19Z</time>
      </trkpt>
      <trkpt lat="49.00359" lon="-0.46305">
        <ele>108.29</ele>
        <time>2019-09-15T08:35:40Z</time>
      </trkpt>
      <trkpt lat="49.00379" lon="-0.46309">
        <ele>105.4</ele>
        <time>2019-09-15T08:35:58Z</time>
      </trkpt>
      <trkpt lat="49.004" lon="-0.46326">
        <ele>103.96</ele>
        <time>2019-09-15T08:36:17Z</time>
      </trkpt>
      <trkpt lat="49.00418" lon="-0.46339">
        <ele>102.52</ele>
        <time>2019-09-15T08:36:34Z</time>
      </trkpt>
      <trkpt lat="49.00434" lon="-0.46349">
        <ele>99.63</ele>
        <time>2019-09-15T08:36:48Z</time>
      </trkpt>
      <trkpt lat="49.00452" lon="-0.46367">
        <ele>98.19</ele>
        <time>2019-09-15T08:37:05Z</time>
      </trkpt>
      <trkpt lat="49.00472" lon="-0.46384">
        <ele>96.75</ele>
        <time>2019-09-15T08:37:22Z</time>
      </trkpt>
      <trkpt lat="49.00486" lon="-0.46401">
        <ele>95.31</ele>
        <time>2019-09-15T08:37:38Z</time>
      </trkpt>
      <trkpt lat="49.00491" lon="-0.46413">
        <ele>93.87</ele>
        <time>2019-09-15T08:37:55Z</time>
      </trkpt>
      <trkpt lat="49.00495" lon="-0.46416">
        <ele>93.87</ele>
        <time>2019-09-15T08:38:03Z</time>
      </trkpt>
      <trkpt lat="49.00497" lon="-0.46417">
        <ele>93.87</ele>
        <time>2019-09-15T08:38:04Z</time>
      </trkpt>
      <trkpt lat="49.00498" lon="-0.46417">
        <ele>93.87</ele>
        <time>2019-09-15T08:38:05Z</time>
      </trkpt>
      <trkpt lat="49.00517" lon="-0.46437">
        <ele>91.46</ele>
        <time>2019-09-15T08:38:25Z</time>
      </trkpt>
      <trkpt lat="49.00535" lon="-0.46455">
        <ele>88.1</ele>
        <time>2019-09-15T08:38:43Z</time>
      </trkpt>
      <trkpt lat="49.00555" lon="-0.46474">
        <ele>84.73</ele>
        <time>2019-09-15T08:39:03Z</time>
      </trkpt>
      <trkpt lat="49.00568" lon="-0.46486">
        <ele>81.37</ele>
        <time>2019-09-15T08:39:17Z</time>
      </trkpt>
      <trkpt lat="49.00585" lon="-0.46494">
        <ele>78.48</ele>
        <time>2019-09-15T08:39:34Z</time>
      </trkpt>
      <trkpt lat="49.00587" lon="-0.46505">
        <ele>78</ele>
        <time>2019-09-15T08:39:44Z</time>
      </trkpt>
      <trkpt lat="49.0059" lon="-0.46533">
        <ele>75.6</ele>
        <time>2019-09-15T08:40:01Z</time>
      </trkpt>
      <trkpt lat="49.00595" lon="-0.46551">
        <ele>73.2</ele>
        <time>2019-09-15T08:40:12Z</time>
      </trkpt>
      <trkpt lat="49.00596" lon="-0.46553">
        <ele>73.2</ele>
        <time>2019-09-15T08:40:13Z</time>
      </trkpt>
      <trkpt lat="49.00602" lon="-0.46569">
        <ele>70.31</ele>
        <time>2019-09-15T08:40:24Z</time>
      </trkpt>
      <trkpt lat="49.00606" lon="-0.46575">
        <ele>68.87</ele>
        <time>2019-09-15T08:40:30Z</time>
      </trkpt>
      <trkpt lat="49.0061" lon="-0.4659">
        <ele>67.91</ele>
        <time>2019-09-15T08:40:45Z</time>
      </trkpt>
      <trkpt lat="49.00616" lon="-0.46615">
        <ele>65.03</ele>
        <time>2019-09-15T08:40:59Z</time>
      </trkpt>
      <trkpt lat="49.00616" lon="-0.46626">
        <ele>65.99</ele>
        <time>2019-09-15T08:41:12Z</time>
      </trkpt>
      <trkpt lat="49.00617" lon="-0.46624">
        <ele>65.99</ele>
        <time>2019-09-15T08:41:37Z</time>
      </trkpt>
      <trkpt lat="49.00618" lon="-0.46621">
        <ele>65.99</ele>
        <time>2019-09-15T08:41:51Z</time>
      </trkpt>
      <trkpt lat="49.00619" lon="-0.46619">
        <ele>64.55</ele>
        <time>2019-09-15T08:41:52Z</time>
      </trkpt>
      <trkpt lat="49.00619" lon="-0.46618">
        <ele>64.55</ele>
        <time>2019-09-15T08:41:53Z</time>
      </trkpt>
      <trkpt lat="49.00623" lon="-0.4662">
        <ele>64.07</ele>
        <time>2019-09-15T08:42:05Z</time>
      </trkpt>
      <trkpt lat="49.00627" lon="-0.46637">
        <ele>63.58</ele>
        <time>2019-09-15T08:42:18Z</time>
      </trkpt>
      <trkpt lat="49.0063" lon="-0.46651">
        <ele>62.14</ele>
        <time>2019-09-15T08:42:28Z</time>
      </trkpt>
      <trkpt lat="49.00631" lon="-0.46668">
        <ele>61.66</ele>
        <time>2019-09-15T08:42:42Z</time>
      </trkpt>
      <trkpt lat="49.00638" lon="-0.46685">
        <ele>60.7</ele>
        <time>2019-09-15T08:42:58Z</time>
      </trkpt>
      <trkpt lat="49.00639" lon="-0.46701">
        <ele>58.78</ele>
        <time>2019-09-15T08:43:12Z</time>
      </trkpt>
      <trkpt lat="49.0065" lon="-0.46719">
        <ele>55.41</ele>
        <time>2019-09-15T08:43:28Z</time>
      </trkpt>
      <trkpt lat="49.00657" lon="-0.46732">
        <ele>55.41</ele>
        <time>2019-09-15T08:43:38Z</time>
      </trkpt>
      <trkpt lat="49.00658" lon="-0.46733">
        <ele>55.41</ele>
        <time>2019-09-15T08:43:39Z</time>
      </trkpt>
      <trkpt lat="49.00659" lon="-0.46734">
        <ele>54.45</ele>
        <time>2019-09-15T08:43:40Z</time>
      </trkpt>
      <trkpt lat="49.00666" lon="-0.46752">
        <ele>52.05</ele>
        <time>2019-09-15T08:43:56Z</time>
      </trkpt>
      <trkpt lat="49.0067" lon="-0.46765">
        <ele>50.61</ele>
        <time>2019-09-15T08:44:09Z</time>
      </trkpt>
      <trkpt lat="49.00674" lon="-0.4677">
        <ele>49.65</ele>
        <time>2019-09-15T08:44:14Z</time>
      </trkpt>
      <trkpt lat="49.00674" lon="-0.46771">
        <ele>49.65</ele>
        <time>2019-09-15T08:44:15Z</time>
      </trkpt>
      <trkpt lat="49.00679" lon="-0.46797">
        <ele>46.28</ele>
        <time>2019-09-15T08:44:32Z</time>
      </trkpt>
      <trkpt lat="49.00681" lon="-0.46798">
        <ele>46.28</ele>
        <time>2019-09-15T08:44:45Z</time>
      </trkpt>
      <trkpt lat="49.00681" lon="-0.468">
        <ele>46.28</ele>
        <time>2019-09-15T08:45:03Z</time>
      </trkpt>
      <trkpt lat="49.00682" lon="-0.46801">
        <ele>46.28</ele>
        <time>2019-09-15T08:45:04Z</time>
      </trkpt>
      <trkpt lat="49.00684" lon="-0.46806">
        <ele>47.72</ele>
        <time>2019-09-15T08:45:08Z</time>
      </trkpt>
      <trkpt lat="49.00684" lon="-0.46808">
        <ele>47.72</ele>
        <time>2019-09-15T08:45:09Z</time>
      </trkpt>
      <trkpt lat="49.00689" lon="-0.46824">
        <ele>47.72</ele>
        <time>2019-09-15T08:45:19Z</time>
      </trkpt>
      <trkpt lat="49.00702" lon="-0.46837">
        <ele>48.2</ele>
        <time>2019-09-15T08:45:34Z</time>
      </trkpt>
      <trkpt lat="49.00708" lon="-0.46848">
        <ele>45.8</ele>
        <time>2019-09-15T08:45:46Z</time>
      </trkpt>
      <trkpt lat="49.00709" lon="-0.46852">
        <ele>45.8</ele>
        <time>2019-09-15T08:45:48Z</time>
      </trkpt>
      <trkpt lat="49.00714" lon="-0.4686">
        <ele>41.95</ele>
        <time>2019-09-15T08:46:03Z</time>
      </trkpt>
      <trkpt lat="49.00723" lon="-0.46863">
        <ele>39.55</ele>
        <time>2019-09-15T08:46:17Z</time>
      </trkpt>
      <trkpt lat="49.00728" lon="-0.46864">
        <ele>36.67</ele>
        <time>2019-09-15T08:46:26Z</time>
      </trkpt>
      <trkpt lat="49.0073" lon="-0.46866">
        <ele>35.71</ele>
        <time>2019-09-15T08:46:28Z</time>
      </trkpt>
      <trkpt lat="49.00737" lon="-0.46881">
        <ele>32.82</ele>
        <time>2019-09-15T08:46:46Z</time>
      </trkpt>
      <trkpt lat="49.00742" lon="-0.46898">
        <ele>32.34</ele>
        <time>2019-09-15T08:47:02Z</time>
      </trkpt>
      <trkpt lat="49.00745" lon="-0.46909">
        <ele>30.9</ele>
        <time>2019-09-15T08:47:11Z</time>
      </trkpt>
      <trkpt lat="49.00745" lon="-0.46921">
        <ele>28.98</ele>
        <time>2019-09-15T08:47:24Z</time>
      </trkpt>
      <trkpt lat="49.00745" lon="-0.46931">
        <ele>25.61</ele>
        <time>2019-09-15T08:47:38Z</time>
      </trkpt>
      <trkpt lat="49.00745" lon="-0.46936">
        <ele>24.65</ele>
        <time>2019-09-15T08:47:53Z</time>
      </trkpt>
      <trkpt lat="49.00748" lon="-0.46944">
        <ele>24.17</ele>
        <time>2019-09-15T08:48:11Z</time>
      </trkpt>
      <trkpt lat="49.0075" lon="-0.46945">
        <ele>24.17</ele>
        <time>2019-09-15T08:48:28Z</time>
      </trkpt>
      <trkpt lat="49.00756" lon="-0.46949">
        <ele>24.17</ele>
        <time>2019-09-15T08:48:35Z</time>
      </trkpt>
      <trkpt lat="49.0076" lon="-0.4695">
        <ele>24.17</ele>
        <time>2019-09-15T08:48:39Z</time>
      </trkpt>
      <trkpt lat="49.00769" lon="-0.46943">
        <ele>26.57</ele>
        <time>2019-09-15T08:48:53Z</time>
      </trkpt>
      <trkpt lat="49.00778" lon="-0.46929">
        <ele>29.46</ele>
        <time>2019-09-15T08:49:06Z</time>
      </trkpt>
      <trkpt lat="49.00779" lon="-0.46925">
        <ele>29.46</ele>
        <time>2019-09-15T08:49:09Z</time>
      </trkpt>
      <trkpt lat="49.00778" lon="-0.469">
        <ele>32.34</ele>
        <time>2019-09-15T08:49:25Z</time>
      </trkpt>
      <trkpt lat="49.00778" lon="-0.46898">
        <ele>32.34</ele>
        <time>2019-09-15T08:49:26Z</time>
      </trkpt>
      <trkpt lat="49.00777" lon="-0.46873">
        <ele>33.78</ele>
        <time>2019-09-15T08:49:41Z</time>
      </trkpt>
      <trkpt lat="49.00769" lon="-0.46842">
        <ele>34.26</ele>
        <time>2019-09-15T08:49:59Z</time>
      </trkpt>
      <trkpt lat="49.00764" lon="-0.46819">
        <ele>35.71</ele>
        <time>2019-09-15T08:50:14Z</time>
      </trkpt>
      <trkpt lat="49.00765" lon="-0.46802">
        <ele>38.11</ele>
        <time>2019-09-15T08:50:28Z</time>
      </trkpt>
      <trkpt lat="49.00767" lon="-0.46787">
        <ele>40.51</ele>
        <time>2019-09-15T08:50:41Z</time>
      </trkpt>
      <trkpt lat="49.00772" lon="-0.46777">
        <ele>43.88</ele>
        <time>2019-09-15T08:50:55Z</time>
      </trkpt>
      <trkpt lat="49.00778" lon="-0.46766">
        <ele>46.76</ele>
        <time>2019-09-15T08:51:09Z</time>
      </trkpt>
      <trkpt lat="49.00781" lon="-0.46748">
        <ele>48.68</ele>
        <time>2019-09-15T08:51:23Z</time>
      </trkpt>
      <trkpt lat="49.0078" lon="-0.46747">
        <ele>48.68</ele>
        <time>2019-09-15T08:51:24Z</time>
      </trkpt>
      <trkpt lat="49.00766" lon="-0.46744">
        <ele>50.61</ele>
        <time>2019-09-15T08:51:39Z</time>
      </trkpt>
      <trkpt lat="49.00753" lon="-0.46734">
        <ele>53.01</ele>
        <time>2019-09-15T08:51:56Z</time>
      </trkpt>
      <trkpt lat="49.00754" lon="-0.46732">
        <ele>53.49</ele>
        <time>2019-09-15T08:51:58Z</time>
      </trkpt>
      <trkpt lat="49.00764" lon="-0.46722">
        <ele>55.89</ele>
        <time>2019-09-15T08:52:12Z</time>
      </trkpt>
      <trkpt lat="49.00769" lon="-0.46714">
        <ele>57.34</ele>
        <time>2019-09-15T08:52:28Z</time>
      </trkpt>
      <trkpt lat="49.0078" lon="-0.467">
        <ele>60.7</ele>
        <time>2019-09-15T08:52:44Z</time>
      </trkpt>
      <trkpt lat="49.00787" lon="-0.46688">
        <ele>62.14</ele>
        <time>2019-09-15T08:52:58Z</time>
      </trkpt>
      <trkpt lat="49.00789" lon="-0.46687">
        <ele>62.14</ele>
        <time>2019-09-15T08:53:22Z</time>
      </trkpt>
      <trkpt lat="49.00791" lon="-0.46686">
        <ele>62.62</ele>
        <time>2019-09-15T08:53:23Z</time>
      </trkpt>
      <trkpt lat="49.00792" lon="-0.46685">
        <ele>62.62</ele>
        <time>2019-09-15T08:53:24Z</time>
      </trkpt>
      <trkpt lat="49.0081" lon="-0.46687">
        <ele>62.62</ele>
        <time>2019-09-15T08:53:41Z</time>
      </trkpt>
      <trkpt lat="49.00812" lon="-0.4669">
        <ele>62.62</ele>
        <time>2019-09-15T08:53:44Z</time>
      </trkpt>
      <trkpt lat="49.00815" lon="-0.46718">
        <ele>64.07</ele>
        <time>2019-09-15T08:54:00Z</time>
      </trkpt>
      <trkpt lat="49.00815" lon="-0.46752">
        <ele>64.07</ele>
        <time>2019-09-15T08:54:18Z</time>
      </trkpt>
      <trkpt lat="49.00818" lon="-0.46786">
        <ele>64.07</ele>
        <time>2019-09-15T08:54:37Z</time>
      </trkpt>
      <trkpt lat="49.00822" lon="-0.46817">
        <ele>61.18</ele>
        <time>2019-09-15T08:54:54Z</time>
      </trkpt>
      <trkpt lat="49.00837" lon="-0.46845">
        <ele>58.3</ele>
        <time>2019-09-15T08:55:13Z</time>
      </trkpt>
      <trkpt lat="49.00857" lon="-0.4686">
        <ele>55.89</ele>
        <time>2019-09-15T08:55:32Z</time>
      </trkpt>
      <trkpt lat="49.00878" lon="-0.46865">
        <ele>54.45</ele>
        <time>2019-09-15T08:55:50Z</time>
      </trkpt>
      <trkpt lat="49.00899" lon="-0.46864">
        <ele>51.09</ele>
        <time>2019-09-15T08:56:07Z</time>
      </trkpt>
      <trkpt lat="49.00921" lon="-0.46867">
        <ele>49.16</ele>
        <time>2019-09-15T08:56:26Z</time>
      </trkpt>
      <trkpt lat="49.00922" lon="-0.46867">
        <ele>49.16</ele>
        <time>2019-09-15T08:56:27Z</time>
      </trkpt>
      <trkpt lat="49.00923" lon="-0.46868">
        <ele>49.16</ele>
        <time>2019-09-15T08:56:28Z</time>
      </trkpt>
      <trkpt lat="49.00926" lon="-0.46863">
        <ele>48.68</ele>
        <time>2019-09-15T08:56:40Z</time>
      </trkpt>
      <trkpt lat="49.0093" lon="-0.46861">
        <ele>48.68</ele>
        <time>2019-09-15T08:57:02Z</time>
      </trkpt>
      <trkpt lat="49.00933" lon="-0.46859">
        <ele>48.68</ele>
        <time>2019-09-15T08:57:04Z</time>
      </trkpt>
      <trkpt lat="49.00947" lon="-0.46845">
        <ele>48.68</ele>
        <time>2019-09-15T08:57:19Z</time>
      </trkpt>
      <trkpt lat="49.00963" lon="-0.46832">
        <ele>50.13</ele>
        <time>2019-09-15T08:57:35Z</time>
      </trkpt>
      <trkpt lat="49.00972" lon="-0.46823">
        <ele>51.09</ele>
        <time>2019-09-15T08:57:44Z</time>
      </trkpt>
      <trkpt lat="49.00973" lon="-0.46822">
        <ele>51.09</ele>
        <time>2019-09-15T08:57:45Z</time>
      </trkpt>
      <trkpt lat="49.00988" lon="-0.46807">
        <ele>52.05</ele>
        <time>2019-09-15T08:57:59Z</time>
      </trkpt>
      <trkpt lat="49.01" lon="-0.46796">
        <ele>52.53</ele>
        <time>2019-09-15T08:58:10Z</time>
      </trkpt>
      <trkpt lat="49.01001" lon="-0.46795">
        <ele>52.53</ele>
        <time>2019-09-15T08:58:11Z</time>
      </trkpt>
      <trkpt lat="49.01003" lon="-0.46794">
        <ele>52.53</ele>
        <time>2019-09-15T08:58:12Z</time>
      </trkpt>
      <trkpt lat="49.01003" lon="-0.46792">
        <ele>52.53</ele>
        <time>2019-09-15T08:58:13Z</time>
      </trkpt>
      <trkpt lat="49.01004" lon="-0.4679">
        <ele>52.53</ele>
        <time>2019-09-15T08:58:14Z</time>
      </trkpt>
      <trkpt lat="49.01004" lon="-0.46788">
        <ele>52.53</ele>
        <time>2019-09-15T08:58:15Z</time>
      </trkpt>
      <trkpt lat="49.01004" lon="-0.46786">
        <ele>52.53</ele>
        <time>2019-09-15T08:58:16Z</time>
      </trkpt>
      <trkpt lat="49.01005" lon="-0.46784">
        <ele>53.49</ele>
        <time>2019-09-15T08:58:17Z</time>
      </trkpt>
      <trkpt lat="49.01006" lon="-0.46779">
        <ele>53.49</ele>
        <time>2019-09-15T08:58:20Z</time>
      </trkpt>
      <trkpt lat="49.01006" lon="-0.46777">
        <ele>53.49</ele>
        <time>2019-09-15T08:58:21Z</time>
      </trkpt>
      <trkpt lat="49.01007" lon="-0.46773">
        <ele>53.49</ele>
        <time>2019-09-15T08:58:23Z</time>
      </trkpt>
      <trkpt lat="49.01007" lon="-0.46771">
        <ele>53.97</ele>
        <time>2019-09-15T08:58:24Z</time>
      </trkpt>
      <trkpt lat="49.01007" lon="-0.46769">
        <ele>53.97</ele>
        <time>2019-09-15T08:58:25Z</time>
      </trkpt>
      <trkpt lat="49.01007" lon="-0.46767">
        <ele>53.97</ele>
        <time>2019-09-15T08:58:26Z</time>
      </trkpt>
      <trkpt lat="49.01008" lon="-0.46765">
        <ele>54.45</ele>
        <time>2019-09-15T08:58:27Z</time>
      </trkpt>
      <trkpt lat="49.01009" lon="-0.46764">
        <ele>54.45</ele>
        <time>2019-09-15T08:58:28Z</time>
      </trkpt>
      <trkpt lat="49.01012" lon="-0.46761">
        <ele>54.93</ele>
        <time>2019-09-15T08:58:31Z</time>
      </trkpt>
      <trkpt lat="49.0103" lon="-0.46758">
        <ele>53.49</ele>
        <time>2019-09-15T08:58:45Z</time>
      </trkpt>
      <trkpt lat="49.0105" lon="-0.4675">
        <ele>51.57</ele>
        <time>2019-09-15T08:59:01Z</time>
      </trkpt>
      <trkpt lat="49.01073" lon="-0.46743">
        <ele>48.68</ele>
        <time>2019-09-15T08:59:19Z</time>
      </trkpt>
      <trkpt lat="49.01095" lon="-0.46743">
        <ele>47.72</ele>
        <time>2019-09-15T08:59:37Z</time>
      </trkpt>
      <trkpt lat="49.01096" lon="-0.46747">
        <ele>47.72</ele>
        <time>2019-09-15T08:59:48Z</time>
      </trkpt>
      <trkpt lat="49.01106" lon="-0.46745">
        <ele>47.72</ele>
        <time>2019-09-15T09:00:04Z</time>
      </trkpt>
      <trkpt lat="49.01129" lon="-0.46749">
        <ele>47.72</ele>
        <time>2019-09-15T09:00:23Z</time>
      </trkpt>
      <trkpt lat="49.01153" lon="-0.46748">
        <ele>47.24</ele>
        <time>2019-09-15T09:00:41Z</time>
      </trkpt>
      <trkpt lat="49.01163" lon="-0.46749">
        <ele>46.76</ele>
        <time>2019-09-15T09:00:49Z</time>
      </trkpt>
      <trkpt lat="49.01164" lon="-0.46748">
        <ele>46.76</ele>
        <time>2019-09-15T09:00:50Z</time>
      </trkpt>
      <trkpt lat="49.01165" lon="-0.46748">
        <ele>46.76</ele>
        <time>2019-09-15T09:00:51Z</time>
      </trkpt>
      <trkpt lat="49.01192" lon="-0.46752">
        <ele>46.76</ele>
        <time>2019-09-15T09:01:11Z</time>
      </trkpt>
      <trkpt lat="49.01216" lon="-0.46754">
        <ele>46.76</ele>
        <time>2019-09-15T09:01:29Z</time>
      </trkpt>
      <trkpt lat="49.01238" lon="-0.46754">
        <ele>46.76</ele>
        <time>2019-09-15T09:01:46Z</time>
      </trkpt>
      <trkpt lat="49.01261" lon="-0.46749">
        <ele>46.28</ele>
        <time>2019-09-15T09:02:03Z</time>
      </trkpt>
      <trkpt lat="49.01286" lon="-0.46744">
        <ele>46.28</ele>
        <time>2019-09-15T09:02:21Z</time>
      </trkpt>
      <trkpt lat="49.01303" lon="-0.4674">
        <ele>46.28</ele>
        <time>2019-09-15T09:02:33Z</time>
      </trkpt>
      <trkpt lat="49.01321" lon="-0.46736">
        <ele>46.28</ele>
        <time>2019-09-15T09:02:49Z</time>
      </trkpt>
      <trkpt lat="49.01347" lon="-0.46731">
        <ele>46.28</ele>
        <time>2019-09-15T09:03:06Z</time>
      </trkpt>
      <trkpt lat="49.01371" lon="-0.46727">
        <ele>46.28</ele>
        <time>2019-09-15T09:03:24Z</time>
      </trkpt>
      <trkpt lat="49.01392" lon="-0.46723">
        <ele>45.32</ele>
        <time>2019-09-15T09:03:41Z</time>
      </trkpt>
      <trkpt lat="49.01412" lon="-0.46715">
        <ele>45.32</ele>
        <time>2019-09-15T09:03:57Z</time>
      </trkpt>
      <trkpt lat="49.01429" lon="-0.4671">
        <ele>44.84</ele>
        <time>2019-09-15T09:04:09Z</time>
      </trkpt>
      <trkpt lat="49.01439" lon="-0.46705">
        <ele>44.84</ele>
        <time>2019-09-15T09:04:22Z</time>
      </trkpt>
      <trkpt lat="49.01442" lon="-0.46703">
        <ele>44.36</ele>
        <time>2019-09-15T09:04:43Z</time>
      </trkpt>
      <trkpt lat="49.0145" lon="-0.467">
        <ele>43.88</ele>
        <time>2019-09-15T09:04:59Z</time>
      </trkpt>
      <trkpt lat="49.0147" lon="-0.46697">
        <ele>43.88</ele>
        <time>2019-09-15T09:05:16Z</time>
      </trkpt>
      <trkpt lat="49.0149" lon="-0.46689">
        <ele>43.88</ele>
        <time>2019-09-15T09:05:31Z</time>
      </trkpt>
      <trkpt lat="49.01497" lon="-0.46686">
        <ele>43.88</ele>
        <time>2019-09-15T09:05:44Z</time>
      </trkpt>
      <trkpt lat="49.01517" lon="-0.46678">
        <ele>43.88</ele>
        <time>2019-09-15T09:06:01Z</time>
      </trkpt>
      <trkpt lat="49.01527" lon="-0.46674">
        <ele>43.4</ele>
        <time>2019-09-15T09:06:15Z</time>
      </trkpt>
      <trkpt lat="49.01539" lon="-0.46664">
        <ele>43.4</ele>
        <time>2019-09-15T09:06:33Z</time>
      </trkpt>
      <trkpt lat="49.01557" lon="-0.46654">
        <ele>42.92</ele>
        <time>2019-09-15T09:06:50Z</time>
      </trkpt>
      <trkpt lat="49.01557" lon="-0.46653">
        <ele>42.92</ele>
        <time>2019-09-15T09:06:51Z</time>
      </trkpt>
      <trkpt lat="49.01558" lon="-0.46653">
        <ele>42.92</ele>
        <time>2019-09-15T09:06:52Z</time>
      </trkpt>
      <trkpt lat="49.0156" lon="-0.46652">
        <ele>42.92</ele>
        <time>2019-09-15T09:06:53Z</time>
      </trkpt>
      <trkpt lat="49.01561" lon="-0.46652">
        <ele>42.92</ele>
        <time>2019-09-15T09:06:54Z</time>
      </trkpt>
      <trkpt lat="49.01562" lon="-0.46651">
        <ele>42.92</ele>
        <time>2019-09-15T09:06:55Z</time>
      </trkpt>
      <trkpt lat="49.01563" lon="-0.4665">
        <ele>42.92</ele>
        <time>2019-09-15T09:06:56Z</time>
      </trkpt>
      <trkpt lat="49.01564" lon="-0.46649">
        <ele>42.92</ele>
        <time>2019-09-15T09:06:57Z</time>
      </trkpt>
      <trkpt lat="49.01566" lon="-0.46648">
        <ele>42.92</ele>
        <time>2019-09-15T09:06:58Z</time>
      </trkpt>
      <trkpt lat="49.01582" lon="-0.46633">
        <ele>44.84</ele>
        <time>2019-09-15T09:07:13Z</time>
      </trkpt>
      <trkpt lat="49.01597" lon="-0.4661">
        <ele>45.8</ele>
        <time>2019-09-15T09:07:30Z</time>
      </trkpt>
      <trkpt lat="49.01616" lon="-0.4658">
        <ele>48.2</ele>
        <time>2019-09-15T09:07:49Z</time>
      </trkpt>
      <trkpt lat="49.01629" lon="-0.4656">
        <ele>49.65</ele>
        <time>2019-09-15T09:08:05Z</time>
      </trkpt>
      <trkpt lat="49.01631" lon="-0.46557">
        <ele>50.13</ele>
        <time>2019-09-15T09:08:08Z</time>
      </trkpt>
      <trkpt lat="49.01638" lon="-0.46558">
        <ele>50.13</ele>
        <time>2019-09-15T09:08:22Z</time>
      </trkpt>
      <trkpt lat="49.01638" lon="-0.46557">
        <ele>48.68</ele>
        <time>2019-09-15T09:08:25Z</time>
      </trkpt>
      <trkpt lat="49.01655" lon="-0.46523">
        <ele>51.09</ele>
        <time>2019-09-15T09:20:57Z</time>
      </trkpt>
      <trkpt lat="49.01657" lon="-0.46512">
        <ele>51.09</ele>
        <time>2019-09-15T09:20:59Z</time>
      </trkpt>
      <trkpt lat="49.01658" lon="-0.46515">
        <ele>50.61</ele>
        <time>2019-09-15T09:21:16Z</time>
      </trkpt>
      <trkpt lat="49.0166" lon="-0.46509">
        <ele>52.05</ele>
        <time>2019-09-15T09:21:21Z</time>
      </trkpt>
      <trkpt lat="49.01666" lon="-0.4649">
        <ele>53.49</ele>
        <time>2019-09-15T09:21:36Z</time>
      </trkpt>
      <trkpt lat="49.0167" lon="-0.46474">
        <ele>55.89</ele>
        <time>2019-09-15T09:21:47Z</time>
      </trkpt>
      <trkpt lat="49.01679" lon="-0.46453">
        <ele>57.82</ele>
        <time>2019-09-15T09:22:02Z</time>
      </trkpt>
      <trkpt lat="49.01681" lon="-0.46455">
        <ele>57.82</ele>
        <time>2019-09-15T09:22:25Z</time>
      </trkpt>
      <trkpt lat="49.01682" lon="-0.46455">
        <ele>57.82</ele>
        <time>2019-09-15T09:22:27Z</time>
      </trkpt>
      <trkpt lat="49.01699" lon="-0.4645">
        <ele>57.82</ele>
        <time>2019-09-15T09:22:42Z</time>
      </trkpt>
      <trkpt lat="49.01721" lon="-0.46441">
        <ele>58.3</ele>
        <time>2019-09-15T09:23:01Z</time>
      </trkpt>
      <trkpt lat="49.01746" lon="-0.46429">
        <ele>56.86</ele>
        <time>2019-09-15T09:23:22Z</time>
      </trkpt>
      <trkpt lat="49.01765" lon="-0.46418">
        <ele>56.37</ele>
        <time>2019-09-15T09:23:38Z</time>
      </trkpt>
      <trkpt lat="49.01786" lon="-0.46406">
        <ele>53.49</ele>
        <time>2019-09-15T09:23:57Z</time>
      </trkpt>
      <trkpt lat="49.01806" lon="-0.46397">
        <ele>51.57</ele>
        <time>2019-09-15T09:24:15Z</time>
      </trkpt>
      <trkpt lat="49.01808" lon="-0.46397">
        <ele>51.57</ele>
        <time>2019-09-15T09:24:16Z</time>
      </trkpt>
      <trkpt lat="49.0183" lon="-0.46384">
        <ele>49.65</ele>
        <time>2019-09-15T09:24:36Z</time>
      </trkpt>
      <trkpt lat="49.01837" lon="-0.4637">
        <ele>48.2</ele>
        <time>2019-09-15T09:24:51Z</time>
      </trkpt>
      <trkpt lat="49.01835" lon="-0.46357">
        <ele>47.24</ele>
        <time>2019-09-15T09:24:59Z</time>
      </trkpt>
      <trkpt lat="49.01831" lon="-0.46339">
        <ele>47.24</ele>
        <time>2019-09-15T09:25:10Z</time>
      </trkpt>
      <trkpt lat="49.01827" lon="-0.46314">
        <ele>47.24</ele>
        <time>2019-09-15T09:25:24Z</time>
      </trkpt>
      <trkpt lat="49.0182" lon="-0.46277">
        <ele>48.2</ele>
        <time>2019-09-15T09:25:43Z</time>
      </trkpt>
      <trkpt lat="49.01815" lon="-0.46251">
        <ele>48.2</ele>
        <time>2019-09-15T09:25:57Z</time>
      </trkpt>
      <trkpt lat="49.01814" lon="-0.46246">
        <ele>48.68</ele>
        <time>2019-09-15T09:26:00Z</time>
      </trkpt>
      <trkpt lat="49.01813" lon="-0.4624">
        <ele>48.68</ele>
        <time>2019-09-15T09:26:03Z</time>
      </trkpt>
      <trkpt lat="49.01806" lon="-0.46207">
        <ele>49.16</ele>
        <time>2019-09-15T09:26:20Z</time>
      </trkpt>
      <trkpt lat="49.01805" lon="-0.46199">
        <ele>49.16</ele>
        <time>2019-09-15T09:26:24Z</time>
      </trkpt>
      <trkpt lat="49.01805" lon="-0.46195">
        <ele>49.16</ele>
        <time>2019-09-15T09:26:26Z</time>
      </trkpt>
      <trkpt lat="49.01804" lon="-0.46176">
        <ele>47.72</ele>
        <time>2019-09-15T09:26:35Z</time>
      </trkpt>
      <trkpt lat="49.01802" lon="-0.46155">
        <ele>47.72</ele>
        <time>2019-09-15T09:26:45Z</time>
      </trkpt>
      <trkpt lat="49.01798" lon="-0.4613">
        <ele>46.76</ele>
        <time>2019-09-15T09:27:00Z</time>
      </trkpt>
      <trkpt lat="49.01798" lon="-0.46127">
        <ele>46.76</ele>
        <time>2019-09-15T09:27:04Z</time>
      </trkpt>
      <trkpt lat="49.01804" lon="-0.46121">
        <ele>44.84</ele>
        <time>2019-09-15T09:27:18Z</time>
      </trkpt>
      <trkpt lat="49.01807" lon="-0.46135">
        <ele>43.4</ele>
        <time>2019-09-15T09:27:29Z</time>
      </trkpt>
      <trkpt lat="49.01812" lon="-0.46163">
        <ele>41.95</ele>
        <time>2019-09-15T09:27:44Z</time>
      </trkpt>
      <trkpt lat="49.01814" lon="-0.46174">
        <ele>41.47</ele>
        <time>2019-09-15T09:27:51Z</time>
      </trkpt>
      <trkpt lat="49.01819" lon="-0.46197">
        <ele>40.99</ele>
        <time>2019-09-15T09:28:05Z</time>
      </trkpt>
      <trkpt lat="49.01825" lon="-0.46218">
        <ele>39.07</ele>
        <time>2019-09-15T09:28:18Z</time>
      </trkpt>
      <trkpt lat="49.01837" lon="-0.46245">
        <ele>37.63</ele>
        <time>2019-09-15T09:28:33Z</time>
      </trkpt>
      <trkpt lat="49.01848" lon="-0.46262">
        <ele>36.67</ele>
        <time>2019-09-15T09:28:45Z</time>
      </trkpt>
      <trkpt lat="49.01857" lon="-0.46272">
        <ele>34.74</ele>
        <time>2019-09-15T09:28:57Z</time>
      </trkpt>
      <trkpt lat="49.01869" lon="-0.46289">
        <ele>32.34</ele>
        <time>2019-09-15T09:29:10Z</time>
      </trkpt>
      <trkpt lat="49.01875" lon="-0.46299">
        <ele>30.42</ele>
        <time>2019-09-15T09:29:18Z</time>
      </trkpt>
      <trkpt lat="49.01888" lon="-0.46315">
        <ele>29.46</ele>
        <time>2019-09-15T09:29:30Z</time>
      </trkpt>
      <trkpt lat="49.01892" lon="-0.46322">
        <ele>29.46</ele>
        <time>2019-09-15T09:29:34Z</time>
      </trkpt>
      <trkpt lat="49.01893" lon="-0.46324">
        <ele>29.46</ele>
        <time>2019-09-15T09:29:35Z</time>
      </trkpt>
      <trkpt lat="49.01894" lon="-0.46326">
        <ele>29.46</ele>
        <time>2019-09-15T09:29:36Z</time>
      </trkpt>
      <trkpt lat="49.01903" lon="-0.46347">
        <ele>28.5</ele>
        <time>2019-09-15T09:29:48Z</time>
      </trkpt>
      <trkpt lat="49.01909" lon="-0.46354">
        <ele>26.57</ele>
        <time>2019-09-15T09:29:58Z</time>
      </trkpt>
      <trkpt lat="49.0191" lon="-0.46354">
        <ele>26.57</ele>
        <time>2019-09-15T09:29:59Z</time>
      </trkpt>
      <trkpt lat="49.01911" lon="-0.46354">
        <ele>26.57</ele>
        <time>2019-09-15T09:30:00Z</time>
      </trkpt>
      <trkpt lat="49.01926" lon="-0.4636">
        <ele>26.09</ele>
        <time>2019-09-15T09:30:12Z</time>
      </trkpt>
      <trkpt lat="49.01926" lon="-0.46368">
        <ele>26.57</ele>
        <time>2019-09-15T09:30:26Z</time>
      </trkpt>
      <trkpt lat="49.01927" lon="-0.4636">
        <ele>28.02</ele>
        <time>2019-09-15T09:30:45Z</time>
      </trkpt>
      <trkpt lat="49.0192" lon="-0.46345">
        <ele>29.46</ele>
        <time>2019-09-15T09:31:01Z</time>
      </trkpt>
      <trkpt lat="49.01918" lon="-0.46339">
        <ele>29.46</ele>
        <time>2019-09-15T09:31:05Z</time>
      </trkpt>
      <trkpt lat="49.01909" lon="-0.46313">
        <ele>29.94</ele>
        <time>2019-09-15T09:31:20Z</time>
      </trkpt>
      <trkpt lat="49.01904" lon="-0.46299">
        <ele>30.9</ele>
        <time>2019-09-15T09:31:29Z</time>
      </trkpt>
      <trkpt lat="49.01902" lon="-0.46297">
        <ele>30.9</ele>
        <time>2019-09-15T09:31:30Z</time>
      </trkpt>
      <trkpt lat="49.01901" lon="-0.46295">
        <ele>30.9</ele>
        <time>2019-09-15T09:31:31Z</time>
      </trkpt>
      <trkpt lat="49.01889" lon="-0.46271">
        <ele>32.34</ele>
        <time>2019-09-15T09:31:46Z</time>
      </trkpt>
      <trkpt lat="49.01881" lon="-0.46248">
        <ele>33.78</ele>
        <time>2019-09-15T09:32:00Z</time>
      </trkpt>
      <trkpt lat="49.01878" lon="-0.4622">
        <ele>34.26</ele>
        <time>2019-09-15T09:32:14Z</time>
      </trkpt>
      <trkpt lat="49.01878" lon="-0.46204">
        <ele>35.23</ele>
        <time>2019-09-15T09:32:23Z</time>
      </trkpt>
      <trkpt lat="49.01876" lon="-0.46179">
        <ele>35.23</ele>
        <time>2019-09-15T09:32:36Z</time>
      </trkpt>
      <trkpt lat="49.01873" lon="-0.4617">
        <ele>36.67</ele>
        <time>2019-09-15T09:32:40Z</time>
      </trkpt>
      <trkpt lat="49.01874" lon="-0.46159">
        <ele>37.15</ele>
        <time>2019-09-15T09:32:45Z</time>
      </trkpt>
      <trkpt lat="49.01875" lon="-0.46152">
        <ele>37.15</ele>
        <time>2019-09-15T09:32:48Z</time>
      </trkpt>
      <trkpt lat="49.01877" lon="-0.46132">
        <ele>37.15</ele>
        <time>2019-09-15T09:32:59Z</time>
      </trkpt>
      <trkpt lat="49.01877" lon="-0.46129">
        <ele>37.15</ele>
        <time>2019-09-15T09:33:00Z</time>
      </trkpt>
      <trkpt lat="49.01877" lon="-0.46127">
        <ele>37.15</ele>
        <time>2019-09-15T09:33:01Z</time>
      </trkpt>
      <trkpt lat="49.01876" lon="-0.46125">
        <ele>37.15</ele>
        <time>2019-09-15T09:33:02Z</time>
      </trkpt>
      <trkpt lat="49.01875" lon="-0.46123">
        <ele>37.63</ele>
        <time>2019-09-15T09:33:03Z</time>
      </trkpt>
      <trkpt lat="49.01875" lon="-0.46121">
        <ele>37.63</ele>
        <time>2019-09-15T09:33:04Z</time>
      </trkpt>
      <trkpt lat="49.01874" lon="-0.46119">
        <ele>37.63</ele>
        <time>2019-09-15T09:33:05Z</time>
      </trkpt>
      <trkpt lat="49.01873" lon="-0.4611">
        <ele>38.59</ele>
        <time>2019-09-15T09:33:10Z</time>
      </trkpt>
      <trkpt lat="49.01873" lon="-0.46108">
        <ele>38.11</ele>
        <time>2019-09-15T09:33:11Z</time>
      </trkpt>
      <trkpt lat="49.01874" lon="-0.46098">
        <ele>37.15</ele>
        <time>2019-09-15T09:33:15Z</time>
      </trkpt>
      <trkpt lat="49.01874" lon="-0.46096">
        <ele>37.15</ele>
        <time>2019-09-15T09:33:16Z</time>
      </trkpt>
      <trkpt lat="49.01875" lon="-0.46079">
        <ele>39.07</ele>
        <time>2019-09-15T09:33:26Z</time>
      </trkpt>
      <trkpt lat="49.01875" lon="-0.46077">
        <ele>39.07</ele>
        <time>2019-09-15T09:33:27Z</time>
      </trkpt>
      <trkpt lat="49.01875" lon="-0.46075">
        <ele>39.07</ele>
        <time>2019-09-15T09:33:28Z</time>
      </trkpt>
      <trkpt lat="49.01875" lon="-0.46073">
        <ele>39.07</ele>
        <time>2019-09-15T09:33:29Z</time>
      </trkpt>
      <trkpt lat="49.01874" lon="-0.46067">
        <ele>39.55</ele>
        <time>2019-09-15T09:33:33Z</time>
      </trkpt>
      <trkpt lat="49.01873" lon="-0.46062">
        <ele>40.03</ele>
        <time>2019-09-15T09:33:36Z</time>
      </trkpt>
      <trkpt lat="49.0187" lon="-0.4605">
        <ele>40.99</ele>
        <time>2019-09-15T09:33:44Z</time>
      </trkpt>
      <trkpt lat="49.01869" lon="-0.46038">
        <ele>41.95</ele>
        <time>2019-09-15T09:33:52Z</time>
      </trkpt>
      <trkpt lat="49.01868" lon="-0.46035">
        <ele>41.95</ele>
        <time>2019-09-15T09:33:53Z</time>
      </trkpt>
      <trkpt lat="49.01867" lon="-0.46034">
        <ele>41.95</ele>
        <time>2019-09-15T09:33:54Z</time>
      </trkpt>
      <trkpt lat="49.0186" lon="-0.46008">
        <ele>43.4</ele>
        <time>2019-09-15T09:34:09Z</time>
      </trkpt>
      <trkpt lat="49.0186" lon="-0.46">
        <ele>43.88</ele>
        <time>2019-09-15T09:34:13Z</time>
      </trkpt>
      <trkpt lat="49.01864" lon="-0.45977">
        <ele>44.84</ele>
        <time>2019-09-15T09:34:26Z</time>
      </trkpt>
      <trkpt lat="49.01859" lon="-0.45952">
        <ele>44.84</ele>
        <time>2019-09-15T09:34:40Z</time>
      </trkpt>
      <trkpt lat="49.01858" lon="-0.45948">
        <ele>44.84</ele>
        <time>2019-09-15T09:34:43Z</time>
      </trkpt>
      <trkpt lat="49.01858" lon="-0.45946">
        <ele>44.84</ele>
        <time>2019-09-15T09:34:44Z</time>
      </trkpt>
      <trkpt lat="49.01853" lon="-0.4592">
        <ele>46.76</ele>
        <time>2019-09-15T09:35:00Z</time>
      </trkpt>
      <trkpt lat="49.01843" lon="-0.45889">
        <ele>47.24</ele>
        <time>2019-09-15T09:35:18Z</time>
      </trkpt>
      <trkpt lat="49.01837" lon="-0.45862">
        <ele>48.2</ele>
        <time>2019-09-15T09:35:34Z</time>
      </trkpt>
      <trkpt lat="49.01831" lon="-0.45843">
        <ele>48.2</ele>
        <time>2019-09-15T09:35:46Z</time>
      </trkpt>
      <trkpt lat="49.01828" lon="-0.4583">
        <ele>48.68</ele>
        <time>2019-09-15T09:35:55Z</time>
      </trkpt>
      <trkpt lat="49.01813" lon="-0.45809">
        <ele>50.13</ele>
        <time>2019-09-15T09:36:10Z</time>
      </trkpt>
      <trkpt lat="49.01808" lon="-0.45784">
        <ele>52.05</ele>
        <time>2019-09-15T09:36:26Z</time>
      </trkpt>
      <trkpt lat="49.01807" lon="-0.45781">
        <ele>52.05</ele>
        <time>2019-09-15T09:36:27Z</time>
      </trkpt>
      <trkpt lat="49.018" lon="-0.45753">
        <ele>54.45</ele>
        <time>2019-09-15T09:36:43Z</time>
      </trkpt>
      <trkpt lat="49.01794" lon="-0.45732">
        <ele>55.41</ele>
        <time>2019-09-15T09:36:55Z</time>
      </trkpt>
      <trkpt lat="49.01787" lon="-0.45721">
        <ele>55.89</ele>
        <time>2019-09-15T09:37:09Z</time>
      </trkpt>
      <trkpt lat="49.01786" lon="-0.4572">
        <ele>55.89</ele>
        <time>2019-09-15T09:37:23Z</time>
      </trkpt>
      <trkpt lat="49.01785" lon="-0.45717">
        <ele>55.89</ele>
        <time>2019-09-15T09:37:24Z</time>
      </trkpt>
      <trkpt lat="49.01772" lon="-0.45695">
        <ele>54.93</ele>
        <time>2019-09-15T09:37:39Z</time>
      </trkpt>
      <trkpt lat="49.01759" lon="-0.45678">
        <ele>54.93</ele>
        <time>2019-09-15T09:37:52Z</time>
      </trkpt>
      <trkpt lat="49.01748" lon="-0.45664">
        <ele>56.37</ele>
        <time>2019-09-15T09:38:05Z</time>
      </trkpt>
      <trkpt lat="49.01738" lon="-0.45647">
        <ele>56.86</ele>
        <time>2019-09-15T09:38:18Z</time>
      </trkpt>
      <trkpt lat="49.01734" lon="-0.45639">
        <ele>57.34</ele>
        <time>2019-09-15T09:38:24Z</time>
      </trkpt>
      <trkpt lat="49.01734" lon="-0.45638">
        <ele>57.34</ele>
        <time>2019-09-15T09:38:25Z</time>
      </trkpt>
      <trkpt lat="49.01733" lon="-0.45636">
        <ele>57.34</ele>
        <time>2019-09-15T09:38:26Z</time>
      </trkpt>
      <trkpt lat="49.01727" lon="-0.45616">
        <ele>57.34</ele>
        <time>2019-09-15T09:38:38Z</time>
      </trkpt>
      <trkpt lat="49.01728" lon="-0.45614">
        <ele>59.26</ele>
        <time>2019-09-15T09:38:39Z</time>
      </trkpt>
      <trkpt lat="49.01728" lon="-0.45611">
        <ele>58.3</ele>
        <time>2019-09-15T09:38:40Z</time>
      </trkpt>
      <trkpt lat="49.01727" lon="-0.45602">
        <ele>59.26</ele>
        <time>2019-09-15T09:38:45Z</time>
      </trkpt>
      <trkpt lat="49.01726" lon="-0.456">
        <ele>59.26</ele>
        <time>2019-09-15T09:38:46Z</time>
      </trkpt>
      <trkpt lat="49.01726" lon="-0.45598">
        <ele>59.26</ele>
        <time>2019-09-15T09:38:47Z</time>
      </trkpt>
      <trkpt lat="49.01717" lon="-0.45574">
        <ele>61.66</ele>
        <time>2019-09-15T09:39:02Z</time>
      </trkpt>
      <trkpt lat="49.01717" lon="-0.45572">
        <ele>61.66</ele>
        <time>2019-09-15T09:39:03Z</time>
      </trkpt>
      <trkpt lat="49.01716" lon="-0.4557">
        <ele>61.66</ele>
        <time>2019-09-15T09:39:04Z</time>
      </trkpt>
      <trkpt lat="49.01705" lon="-0.45544">
        <ele>61.66</ele>
        <time>2019-09-15T09:39:19Z</time>
      </trkpt>
      <trkpt lat="49.01698" lon="-0.45529">
        <ele>63.1</ele>
        <time>2019-09-15T09:39:32Z</time>
      </trkpt>
      <trkpt lat="49.0169" lon="-0.45515">
        <ele>64.55</ele>
        <time>2019-09-15T09:39:44Z</time>
      </trkpt>
      <trkpt lat="49.01688" lon="-0.45507">
        <ele>65.03</ele>
        <time>2019-09-15T09:39:54Z</time>
      </trkpt>
      <trkpt lat="49.01689" lon="-0.45508">
        <ele>65.03</ele>
        <time>2019-09-15T09:39:55Z</time>
      </trkpt>
      <trkpt lat="49.01698" lon="-0.45518">
        <ele>65.99</ele>
        <time>2019-09-15T09:40:08Z</time>
      </trkpt>
      <trkpt lat="49.01699" lon="-0.45519">
        <ele>65.99</ele>
        <time>2019-09-15T09:40:09Z</time>
      </trkpt>
      <trkpt lat="49.01701" lon="-0.45521">
        <ele>66.47</ele>
        <time>2019-09-15T09:40:10Z</time>
      </trkpt>
      <trkpt lat="49.01702" lon="-0.45522">
        <ele>66.47</ele>
        <time>2019-09-15T09:40:11Z</time>
      </trkpt>
      <trkpt lat="49.01703" lon="-0.45523">
        <ele>66.47</ele>
        <time>2019-09-15T09:40:12Z</time>
      </trkpt>
      <trkpt lat="49.01704" lon="-0.45524">
        <ele>66.47</ele>
        <time>2019-09-15T09:40:13Z</time>
      </trkpt>
      <trkpt lat="49.01705" lon="-0.45525">
        <ele>66.47</ele>
        <time>2019-09-15T09:40:14Z</time>
      </trkpt>
      <trkpt lat="49.01705" lon="-0.45526">
        <ele>66.95</ele>
        <time>2019-09-15T09:40:15Z</time>
      </trkpt>
      <trkpt lat="49.01718" lon="-0.4554">
        <ele>67.43</ele>
        <time>2019-09-15T09:40:29Z</time>
      </trkpt>
      <trkpt lat="49.0173" lon="-0.45558">
        <ele>68.39</ele>
        <time>2019-09-15T09:40:44Z</time>
      </trkpt>
      <trkpt lat="49.0174" lon="-0.45575">
        <ele>70.31</ele>
        <time>2019-09-15T09:40:58Z</time>
      </trkpt>
      <trkpt lat="49.01756" lon="-0.4559">
        <ele>71.76</ele>
        <time>2019-09-15T09:41:14Z</time>
      </trkpt>
      <trkpt lat="49.0177" lon="-0.45598">
        <ele>73.2</ele>
        <time>2019-09-15T09:41:28Z</time>
      </trkpt>
      <trkpt lat="49.01774" lon="-0.45601">
        <ele>73.2</ele>
        <time>2019-09-15T09:41:32Z</time>
      </trkpt>
      <trkpt lat="49.01777" lon="-0.45602">
        <ele>73.68</ele>
        <time>2019-09-15T09:41:35Z</time>
      </trkpt>
      <trkpt lat="49.01792" lon="-0.45611">
        <ele>75.12</ele>
        <time>2019-09-15T09:41:50Z</time>
      </trkpt>
      <trkpt lat="49.01806" lon="-0.45621">
        <ele>76.56</ele>
        <time>2019-09-15T09:42:04Z</time>
      </trkpt>
      <trkpt lat="49.0182" lon="-0.45632">
        <ele>77.52</ele>
        <time>2019-09-15T09:42:17Z</time>
      </trkpt>
      <trkpt lat="49.01834" lon="-0.45646">
        <ele>78.48</ele>
        <time>2019-09-15T09:42:32Z</time>
      </trkpt>
      <trkpt lat="49.01835" lon="-0.45647">
        <ele>78.97</ele>
        <time>2019-09-15T09:42:33Z</time>
      </trkpt>
      <trkpt lat="49.01856" lon="-0.45662">
        <ele>79.93</ele>
        <time>2019-09-15T09:42:50Z</time>
      </trkpt>
      <trkpt lat="49.01877" lon="-0.45679">
        <ele>80.41</ele>
        <time>2019-09-15T09:43:08Z</time>
      </trkpt>
      <trkpt lat="49.01881" lon="-0.45684">
        <ele>80.41</ele>
        <time>2019-09-15T09:43:13Z</time>
      </trkpt>
      <trkpt lat="49.01882" lon="-0.45686">
        <ele>80.41</ele>
        <time>2019-09-15T09:43:14Z</time>
      </trkpt>
      <trkpt lat="49.01895" lon="-0.45712">
        <ele>80.89</ele>
        <time>2019-09-15T09:43:30Z</time>
      </trkpt>
      <trkpt lat="49.01896" lon="-0.45749">
        <ele>81.85</ele>
        <time>2019-09-15T09:43:48Z</time>
      </trkpt>
      <trkpt lat="49.01903" lon="-0.45758">
        <ele>82.33</ele>
        <time>2019-09-15T09:43:57Z</time>
      </trkpt>
      <trkpt lat="49.01908" lon="-0.45756">
        <ele>83.29</ele>
        <time>2019-09-15T09:44:09Z</time>
      </trkpt>
      <trkpt lat="49.0191" lon="-0.45764">
        <ele>83.29</ele>
        <time>2019-09-15T09:44:19Z</time>
      </trkpt>
      <trkpt lat="49.0191" lon="-0.45765">
        <ele>83.29</ele>
        <time>2019-09-15T09:44:20Z</time>
      </trkpt>
      <trkpt lat="49.01911" lon="-0.45767">
        <ele>83.29</ele>
        <time>2019-09-15T09:44:21Z</time>
      </trkpt>
      <trkpt lat="49.01918" lon="-0.45792">
        <ele>83.29</ele>
        <time>2019-09-15T09:44:35Z</time>
      </trkpt>
      <trkpt lat="49.01926" lon="-0.45823">
        <ele>81.37</ele>
        <time>2019-09-15T09:44:53Z</time>
      </trkpt>
      <trkpt lat="49.01936" lon="-0.45859">
        <ele>80.89</ele>
        <time>2019-09-15T09:45:11Z</time>
      </trkpt>
      <trkpt lat="49.01943" lon="-0.45883">
        <ele>80.89</ele>
        <time>2019-09-15T09:45:24Z</time>
      </trkpt>
      <trkpt lat="49.01951" lon="-0.45899">
        <ele>82.33</ele>
        <time>2019-09-15T09:45:39Z</time>
      </trkpt>
      <trkpt lat="49.01956" lon="-0.45917">
        <ele>79.93</ele>
        <time>2019-09-15T09:45:51Z</time>
      </trkpt>
      <trkpt lat="49.01962" lon="-0.45933">
        <ele>78.48</ele>
        <time>2019-09-15T09:46:05Z</time>
      </trkpt>
      <trkpt lat="49.01965" lon="-0.45941">
        <ele>78</ele>
        <time>2019-09-15T09:46:18Z</time>
      </trkpt>
      <trkpt lat="49.01967" lon="-0.45944">
        <ele>77.52</ele>
        <time>2019-09-15T09:46:27Z</time>
      </trkpt>
      <trkpt lat="49.01967" lon="-0.45975">
        <ele>76.56</ele>
        <time>2019-09-15T09:46:44Z</time>
      </trkpt>
      <trkpt lat="49.01964" lon="-0.46006">
        <ele>76.56</ele>
        <time>2019-09-15T09:47:01Z</time>
      </trkpt>
      <trkpt lat="49.01958" lon="-0.46045">
        <ele>75.6</ele>
        <time>2019-09-15T09:47:19Z</time>
      </trkpt>
      <trkpt lat="49.01956" lon="-0.46086">
        <ele>72.24</ele>
        <time>2019-09-15T09:47:39Z</time>
      </trkpt>
      <trkpt lat="49.01957" lon="-0.46123">
        <ele>70.31</ele>
        <time>2019-09-15T09:47:58Z</time>
      </trkpt>
      <trkpt lat="49.01961" lon="-0.46153">
        <ele>68.39</ele>
        <time>2019-09-15T09:48:15Z</time>
      </trkpt>
      <trkpt lat="49.01975" lon="-0.46184">
        <ele>65.51</ele>
        <time>2019-09-15T09:48:33Z</time>
      </trkpt>
      <trkpt lat="49.0198" lon="-0.46198">
        <ele>65.51</ele>
        <time>2019-09-15T09:48:49Z</time>
      </trkpt>
      <trkpt lat="49.01984" lon="-0.46208">
        <ele>65.03</ele>
        <time>2019-09-15T09:48:55Z</time>
      </trkpt>
      <trkpt lat="49.01985" lon="-0.46211">
        <ele>65.03</ele>
        <time>2019-09-15T09:48:56Z</time>
      </trkpt>
      <trkpt lat="49.01985" lon="-0.46212">
        <ele>65.03</ele>
        <time>2019-09-15T09:48:57Z</time>
      </trkpt>
      <trkpt lat="49.01986" lon="-0.46214">
        <ele>65.03</ele>
        <time>2019-09-15T09:48:58Z</time>
      </trkpt>
      <trkpt lat="49.01986" lon="-0.46216">
        <ele>65.03</ele>
        <time>2019-09-15T09:48:59Z</time>
      </trkpt>
      <trkpt lat="49.0199" lon="-0.4625">
        <ele>64.55</ele>
        <time>2019-09-15T09:49:15Z</time>
      </trkpt>
      <trkpt lat="49.01998" lon="-0.46292">
        <ele>64.07</ele>
        <time>2019-09-15T09:49:36Z</time>
      </trkpt>
      <trkpt lat="49.02008" lon="-0.46324">
        <ele>62.62</ele>
        <time>2019-09-15T09:49:54Z</time>
      </trkpt>
      <trkpt lat="49.02022" lon="-0.46343">
        <ele>61.18</ele>
        <time>2019-09-15T09:50:09Z</time>
      </trkpt>
      <trkpt lat="49.02024" lon="-0.46346">
        <ele>60.7</ele>
        <time>2019-09-15T09:50:23Z</time>
      </trkpt>
      <trkpt lat="49.02028" lon="-0.46347">
        <ele>60.7</ele>
        <time>2019-09-15T09:50:39Z</time>
      </trkpt>
      <trkpt lat="49.02031" lon="-0.46353">
        <ele>59.26</ele>
        <time>2019-09-15T09:51:00Z</time>
      </trkpt>
      <trkpt lat="49.02035" lon="-0.46363">
        <ele>58.3</ele>
        <time>2019-09-15T09:51:10Z</time>
      </trkpt>
      <trkpt lat="49.02035" lon="-0.46383">
        <ele>56.86</ele>
        <time>2019-09-15T09:51:22Z</time>
      </trkpt>
      <trkpt lat="49.02025" lon="-0.46399">
        <ele>53.97</ele>
        <time>2019-09-15T09:51:38Z</time>
      </trkpt>
      <trkpt lat="49.02022" lon="-0.464">
        <ele>53.97</ele>
        <time>2019-09-15T09:51:41Z</time>
      </trkpt>
      <trkpt lat="49.02001" lon="-0.46399">
        <ele>52.53</ele>
        <time>2019-09-15T09:51:58Z</time>
      </trkpt>
      <trkpt lat="49.01982" lon="-0.46391">
        <ele>50.61</ele>
        <time>2019-09-15T09:52:14Z</time>
      </trkpt>
      <trkpt lat="49.01967" lon="-0.46375">
        <ele>49.16</ele>
        <time>2019-09-15T09:52:31Z</time>
      </trkpt>
      <trkpt lat="49.01961" lon="-0.46382">
        <ele>47.24</ele>
        <time>2019-09-15T09:52:39Z</time>
      </trkpt>
      <trkpt lat="49.01961" lon="-0.46384">
        <ele>46.28</ele>
        <time>2019-09-15T09:52:40Z</time>
      </trkpt>
      <trkpt lat="49.01962" lon="-0.4641">
        <ele>43.88</ele>
        <time>2019-09-15T09:52:52Z</time>
      </trkpt>
      <trkpt lat="49.01975" lon="-0.46429">
        <ele>43.88</ele>
        <time>2019-09-15T09:53:06Z</time>
      </trkpt>
      <trkpt lat="49.01988" lon="-0.46449">
        <ele>40.51</ele>
        <time>2019-09-15T09:53:21Z</time>
      </trkpt>
      <trkpt lat="49.02003" lon="-0.46466">
        <ele>38.11</ele>
        <time>2019-09-15T09:53:36Z</time>
      </trkpt>
      <trkpt lat="49.02016" lon="-0.46481">
        <ele>35.71</ele>
        <time>2019-09-15T09:53:50Z</time>
      </trkpt>
      <trkpt lat="49.02033" lon="-0.46493">
        <ele>33.78</ele>
        <time>2019-09-15T09:54:04Z</time>
      </trkpt>
      <trkpt lat="49.02053" lon="-0.46492">
        <ele>31.86</ele>
        <time>2019-09-15T09:54:19Z</time>
      </trkpt>
      <trkpt lat="49.02066" lon="-0.46501">
        <ele>30.42</ele>
        <time>2019-09-15T09:54:35Z</time>
      </trkpt>
      <trkpt lat="49.02075" lon="-0.46511">
        <ele>29.46</ele>
        <time>2019-09-15T09:55:01Z</time>
      </trkpt>
      <trkpt lat="49.02086" lon="-0.46519">
        <ele>27.53</ele>
        <time>2019-09-15T09:55:12Z</time>
      </trkpt>
      <trkpt lat="49.02087" lon="-0.46521">
        <ele>27.53</ele>
        <time>2019-09-15T09:55:13Z</time>
      </trkpt>
      <trkpt lat="49.02103" lon="-0.46526">
        <ele>26.09</ele>
        <time>2019-09-15T09:55:28Z</time>
      </trkpt>
      <trkpt lat="49.02108" lon="-0.46522">
        <ele>26.09</ele>
        <time>2019-09-15T09:55:33Z</time>
      </trkpt>
      <trkpt lat="49.02109" lon="-0.46522">
        <ele>26.09</ele>
        <time>2019-09-15T09:55:34Z</time>
      </trkpt>
      <trkpt lat="49.02123" lon="-0.46519">
        <ele>26.09</ele>
        <time>2019-09-15T09:55:47Z</time>
      </trkpt>
      <trkpt lat="49.02143" lon="-0.46514">
        <ele>28.02</ele>
        <time>2019-09-15T09:56:01Z</time>
      </trkpt>
      <trkpt lat="49.02166" lon="-0.46509">
        <ele>28.98</ele>
        <time>2019-09-15T09:56:16Z</time>
      </trkpt>
      <trkpt lat="49.02189" lon="-0.46502">
        <ele>29.46</ele>
        <time>2019-09-15T09:56:32Z</time>
      </trkpt>
      <trkpt lat="49.02195" lon="-0.465">
        <ele>29.46</ele>
        <time>2019-09-15T09:56:37Z</time>
      </trkpt>
      <trkpt lat="49.02197" lon="-0.465">
        <ele>29.46</ele>
        <time>2019-09-15T09:56:39Z</time>
      </trkpt>
      <trkpt lat="49.0222" lon="-0.46496">
        <ele>29.46</ele>
        <time>2019-09-15T09:56:54Z</time>
      </trkpt>
      <trkpt lat="49.02241" lon="-0.46498">
        <ele>29.46</ele>
        <time>2019-09-15T09:57:09Z</time>
      </trkpt>
      <trkpt lat="49.02248" lon="-0.46497">
        <ele>28.02</ele>
        <time>2019-09-15T09:57:14Z</time>
      </trkpt>
      <trkpt lat="49.02273" lon="-0.46487">
        <ele>27.53</ele>
        <time>2019-09-15T09:57:33Z</time>
      </trkpt>
      <trkpt lat="49.02285" lon="-0.46486">
        <ele>27.05</ele>
        <time>2019-09-15T09:57:47Z</time>
      </trkpt>
      <trkpt lat="49.02287" lon="-0.46486">
        <ele>27.05</ele>
        <time>2019-09-15T09:57:49Z</time>
      </trkpt>
      <trkpt lat="49.02288" lon="-0.46486">
        <ele>27.05</ele>
        <time>2019-09-15T09:57:50Z</time>
      </trkpt>
      <trkpt lat="49.02289" lon="-0.46486">
        <ele>27.05</ele>
        <time>2019-09-15T09:57:51Z</time>
      </trkpt>
      <trkpt lat="49.02311" lon="-0.46481">
        <ele>26.57</ele>
        <time>2019-09-15T09:58:08Z</time>
      </trkpt>
      <trkpt lat="49.02317" lon="-0.4648">
        <ele>26.57</ele>
        <time>2019-09-15T09:58:12Z</time>
      </trkpt>
      <trkpt lat="49.02319" lon="-0.4648">
        <ele>26.57</ele>
        <time>2019-09-15T09:58:13Z</time>
      </trkpt>
      <trkpt lat="49.0232" lon="-0.46479">
        <ele>26.57</ele>
        <time>2019-09-15T09:58:14Z</time>
      </trkpt>
      <trkpt lat="49.02321" lon="-0.46479">
        <ele>26.57</ele>
        <time>2019-09-15T09:58:15Z</time>
      </trkpt>
      <trkpt lat="49.02338" lon="-0.46476">
        <ele>26.57</ele>
        <time>2019-09-15T09:58:29Z</time>
      </trkpt>
      <trkpt lat="49.02353" lon="-0.46473">
        <ele>26.57</ele>
        <time>2019-09-15T09:58:42Z</time>
      </trkpt>
      <trkpt lat="49.02355" lon="-0.46473">
        <ele>25.61</ele>
        <time>2019-09-15T09:58:43Z</time>
      </trkpt>
      <trkpt lat="49.02356" lon="-0.46473">
        <ele>25.61</ele>
        <time>2019-09-15T09:58:44Z</time>
      </trkpt>
      <trkpt lat="49.02379" lon="-0.4647">
        <ele>24.17</ele>
        <time>2019-09-15T09:59:00Z</time>
      </trkpt>
      <trkpt lat="49.02391" lon="-0.46467">
        <ele>24.17</ele>
        <time>2019-09-15T09:59:09Z</time>
      </trkpt>
      <trkpt lat="49.02405" lon="-0.46464">
        <ele>22.73</ele>
        <time>2019-09-15T09:59:20Z</time>
      </trkpt>
      <trkpt lat="49.02407" lon="-0.46463">
        <ele>22.73</ele>
        <time>2019-09-15T09:59:21Z</time>
      </trkpt>
      <trkpt lat="49.02408" lon="-0.46462">
        <ele>22.73</ele>
        <time>2019-09-15T09:59:22Z</time>
      </trkpt>
      <trkpt lat="49.02419" lon="-0.46457">
        <ele>22.25</ele>
        <time>2019-09-15T09:59:30Z</time>
      </trkpt>
      <trkpt lat="49.0242" lon="-0.46456">
        <ele>22.25</ele>
        <time>2019-09-15T09:59:31Z</time>
      </trkpt>
      <trkpt lat="49.02421" lon="-0.46456">
        <ele>22.25</ele>
        <time>2019-09-15T09:59:32Z</time>
      </trkpt>
      <trkpt lat="49.02423" lon="-0.46456">
        <ele>22.25</ele>
        <time>2019-09-15T09:59:33Z</time>
      </trkpt>
      <trkpt lat="49.02424" lon="-0.46455">
        <ele>22.25</ele>
        <time>2019-09-15T09:59:34Z</time>
      </trkpt>
      <trkpt lat="49.02435" lon="-0.46453">
        <ele>21.29</ele>
        <time>2019-09-15T09:59:42Z</time>
      </trkpt>
      <trkpt lat="49.02442" lon="-0.46452">
        <ele>21.29</ele>
        <time>2019-09-15T09:59:47Z</time>
      </trkpt>
      <trkpt lat="49.02444" lon="-0.46452">
        <ele>20.81</ele>
        <time>2019-09-15T09:59:48Z</time>
      </trkpt>
      <trkpt lat="49.02445" lon="-0.46452">
        <ele>20.81</ele>
        <time>2019-09-15T09:59:49Z</time>
      </trkpt>
      <trkpt lat="49.02446" lon="-0.46451">
        <ele>20.81</ele>
        <time>2019-09-15T09:59:50Z</time>
      </trkpt>
      <trkpt lat="49.02448" lon="-0.46451">
        <ele>20.81</ele>
        <time>2019-09-15T09:59:51Z</time>
      </trkpt>
      <trkpt lat="49.02466" lon="-0.46443">
        <ele>19.84</ele>
        <time>2019-09-15T10:00:05Z</time>
      </trkpt>
      <trkpt lat="49.02487" lon="-0.4644">
        <ele>19.84</ele>
        <time>2019-09-15T10:00:20Z</time>
      </trkpt>
      <trkpt lat="49.02501" lon="-0.46435">
        <ele>19.84</ele>
        <time>2019-09-15T10:00:31Z</time>
      </trkpt>
      <trkpt lat="49.02503" lon="-0.46435">
        <ele>19.84</ele>
        <time>2019-09-15T10:00:32Z</time>
      </trkpt>
      <trkpt lat="49.02504" lon="-0.46434">
        <ele>19.84</ele>
        <time>2019-09-15T10:00:33Z</time>
      </trkpt>
      <trkpt lat="49.02505" lon="-0.46434">
        <ele>19.84</ele>
        <time>2019-09-15T10:00:34Z</time>
      </trkpt>
      <trkpt lat="49.02523" lon="-0.46436">
        <ele>19.36</ele>
        <time>2019-09-15T10:00:48Z</time>
      </trkpt>
      <trkpt lat="49.02526" lon="-0.46432">
        <ele>20.81</ele>
        <time>2019-09-15T10:01:03Z</time>
      </trkpt>
      <trkpt lat="49.02532" lon="-0.46432">
        <ele>20.81</ele>
        <time>2019-09-15T10:01:18Z</time>
      </trkpt>
      <trkpt lat="49.02536" lon="-0.46437">
        <ele>20.81</ele>
        <time>2019-09-15T10:01:24Z</time>
      </trkpt>
      <trkpt lat="49.02548" lon="-0.46432">
        <ele>20.81</ele>
        <time>2019-09-15T10:01:41Z</time>
      </trkpt>
      <trkpt lat="49.02558" lon="-0.46423">
        <ele>21.29</ele>
        <time>2019-09-15T10:01:58Z</time>
      </trkpt>
      <trkpt lat="49.02559" lon="-0.46422">
        <ele>21.77</ele>
        <time>2019-09-15T10:01:59Z</time>
      </trkpt>
      <trkpt lat="49.02562" lon="-0.4642">
        <ele>21.77</ele>
        <time>2019-09-15T10:02:00Z</time>
      </trkpt>
      <trkpt lat="49.0258" lon="-0.464">
        <ele>22.25</ele>
        <time>2019-09-15T10:02:16Z</time>
      </trkpt>
      <trkpt lat="49.02583" lon="-0.4639">
        <ele>23.21</ele>
        <time>2019-09-15T10:02:22Z</time>
      </trkpt>
      <trkpt lat="49.02589" lon="-0.46362">
        <ele>25.13</ele>
        <time>2019-09-15T10:02:39Z</time>
      </trkpt>
      <trkpt lat="49.02598" lon="-0.46343">
        <ele>28.5</ele>
        <time>2019-09-15T10:02:54Z</time>
      </trkpt>
      <trkpt lat="49.02605" lon="-0.46325">
        <ele>31.38</ele>
        <time>2019-09-15T10:03:08Z</time>
      </trkpt>
      <trkpt lat="49.02606" lon="-0.46331">
        <ele>32.82</ele>
        <time>2019-09-15T10:03:16Z</time>
      </trkpt>
      <trkpt lat="49.02606" lon="-0.46332">
        <ele>32.82</ele>
        <time>2019-09-15T10:03:17Z</time>
      </trkpt>
      <trkpt lat="49.02605" lon="-0.46334">
        <ele>33.3</ele>
        <time>2019-09-15T10:03:18Z</time>
      </trkpt>
      <trkpt lat="49.02605" lon="-0.46336">
        <ele>33.3</ele>
        <time>2019-09-15T10:03:19Z</time>
      </trkpt>
      <trkpt lat="49.02605" lon="-0.46359">
        <ele>34.74</ele>
        <time>2019-09-15T10:03:34Z</time>
      </trkpt>
      <trkpt lat="49.02609" lon="-0.46363">
        <ele>37.15</ele>
        <time>2019-09-15T10:03:43Z</time>
      </trkpt>
      <trkpt lat="49.02616" lon="-0.46344">
        <ele>39.55</ele>
        <time>2019-09-15T10:03:58Z</time>
      </trkpt>
      <trkpt lat="49.02626" lon="-0.46319">
        <ele>42.44</ele>
        <time>2019-09-15T10:04:15Z</time>
      </trkpt>
      <trkpt lat="49.02641" lon="-0.46288">
        <ele>43.4</ele>
        <time>2019-09-15T10:04:35Z</time>
      </trkpt>
      <trkpt lat="49.02652" lon="-0.46262">
        <ele>45.8</ele>
        <time>2019-09-15T10:04:52Z</time>
      </trkpt>
      <trkpt lat="49.02666" lon="-0.46243">
        <ele>47.72</ele>
        <time>2019-09-15T10:05:08Z</time>
      </trkpt>
      <trkpt lat="49.02671" lon="-0.4623">
        <ele>49.16</ele>
        <time>2019-09-15T10:05:20Z</time>
      </trkpt>
      <trkpt lat="49.02675" lon="-0.46206">
        <ele>50.13</ele>
        <time>2019-09-15T10:05:34Z</time>
      </trkpt>
      <trkpt lat="49.02676" lon="-0.46177">
        <ele>52.53</ele>
        <time>2019-09-15T10:05:50Z</time>
      </trkpt>
      <trkpt lat="49.0268" lon="-0.46148">
        <ele>54.45</ele>
        <time>2019-09-15T10:06:07Z</time>
      </trkpt>
      <trkpt lat="49.02681" lon="-0.46142">
        <ele>54.93</ele>
        <time>2019-09-15T10:06:10Z</time>
      </trkpt>
      <trkpt lat="49.02684" lon="-0.46112">
        <ele>56.86</ele>
        <time>2019-09-15T10:06:27Z</time>
      </trkpt>
      <trkpt lat="49.02686" lon="-0.46098">
        <ele>57.34</ele>
        <time>2019-09-15T10:06:41Z</time>
      </trkpt>
      <trkpt lat="49.02689" lon="-0.46074">
        <ele>58.78</ele>
        <time>2019-09-15T10:06:57Z</time>
      </trkpt>
      <trkpt lat="49.02689" lon="-0.46072">
        <ele>58.78</ele>
        <time>2019-09-15T10:06:58Z</time>
      </trkpt>
      <trkpt lat="49.02691" lon="-0.4607">
        <ele>59.26</ele>
        <time>2019-09-15T10:07:00Z</time>
      </trkpt>
      <trkpt lat="49.02691" lon="-0.46068">
        <ele>59.74</ele>
        <time>2019-09-15T10:07:01Z</time>
      </trkpt>
      <trkpt lat="49.02699" lon="-0.46043">
        <ele>60.7</ele>
        <time>2019-09-15T10:07:14Z</time>
      </trkpt>
      <trkpt lat="49.02703" lon="-0.4603">
        <ele>61.18</ele>
        <time>2019-09-15T10:07:21Z</time>
      </trkpt>
      <trkpt lat="49.02709" lon="-0.46001">
        <ele>63.1</ele>
        <time>2019-09-15T10:07:37Z</time>
      </trkpt>
      <trkpt lat="49.02712" lon="-0.45988">
        <ele>63.1</ele>
        <time>2019-09-15T10:07:44Z</time>
      </trkpt>
      <trkpt lat="49.02712" lon="-0.45986">
        <ele>63.58</ele>
        <time>2019-09-15T10:07:45Z</time>
      </trkpt>
      <trkpt lat="49.02713" lon="-0.45984">
        <ele>63.58</ele>
        <time>2019-09-15T10:07:46Z</time>
      </trkpt>
      <trkpt lat="49.02713" lon="-0.45982">
        <ele>63.58</ele>
        <time>2019-09-15T10:07:47Z</time>
      </trkpt>
      <trkpt lat="49.02713" lon="-0.4598">
        <ele>64.07</ele>
        <time>2019-09-15T10:07:48Z</time>
      </trkpt>
      <trkpt lat="49.02718" lon="-0.45949">
        <ele>65.51</ele>
        <time>2019-09-15T10:08:04Z</time>
      </trkpt>
      <trkpt lat="49.02726" lon="-0.45918">
        <ele>66.95</ele>
        <time>2019-09-15T10:08:21Z</time>
      </trkpt>
      <trkpt lat="49.02736" lon="-0.45892">
        <ele>68.39</ele>
        <time>2019-09-15T10:08:36Z</time>
      </trkpt>
      <trkpt lat="49.02746" lon="-0.45873">
        <ele>69.35</ele>
        <time>2019-09-15T10:08:49Z</time>
      </trkpt>
      <trkpt lat="49.02746" lon="-0.45871">
        <ele>69.35</ele>
        <time>2019-09-15T10:08:50Z</time>
      </trkpt>
      <trkpt lat="49.02747" lon="-0.45859">
        <ele>69.83</ele>
        <time>2019-09-15T10:09:03Z</time>
      </trkpt>
      <trkpt lat="49.02746" lon="-0.45857">
        <ele>69.83</ele>
        <time>2019-09-15T10:09:16Z</time>
      </trkpt>
      <trkpt lat="49.02747" lon="-0.45856">
        <ele>69.83</ele>
        <time>2019-09-15T10:09:42Z</time>
      </trkpt>
      <trkpt lat="49.02747" lon="-0.45855">
        <ele>70.31</ele>
        <time>2019-09-15T10:10:09Z</time>
      </trkpt>
      <trkpt lat="49.02748" lon="-0.45855">
        <ele>70.31</ele>
        <time>2019-09-15T10:10:13Z</time>
      </trkpt>
      <trkpt lat="49.02749" lon="-0.45855">
        <ele>70.31</ele>
        <time>2019-09-15T10:10:14Z</time>
      </trkpt>
      <trkpt lat="49.02758" lon="-0.45849">
        <ele>71.27</ele>
        <time>2019-09-15T10:10:28Z</time>
      </trkpt>
      <trkpt lat="49.02777" lon="-0.45844">
        <ele>73.2</ele>
        <time>2019-09-15T10:10:45Z</time>
      </trkpt>
      <trkpt lat="49.02798" lon="-0.45839">
        <ele>75.6</ele>
        <time>2019-09-15T10:11:04Z</time>
      </trkpt>
      <trkpt lat="49.02818" lon="-0.45834">
        <ele>78</ele>
        <time>2019-09-15T10:11:23Z</time>
      </trkpt>
      <trkpt lat="49.0284" lon="-0.45828">
        <ele>80.89</ele>
        <time>2019-09-15T10:11:43Z</time>
      </trkpt>
      <trkpt lat="49.02851" lon="-0.45825">
        <ele>82.33</ele>
        <time>2019-09-15T10:11:54Z</time>
      </trkpt>
      <trkpt lat="49.0288" lon="-0.45819">
        <ele>83.77</ele>
        <time>2019-09-15T10:12:16Z</time>
      </trkpt>
      <trkpt lat="49.02912" lon="-0.45812">
        <ele>83.77</ele>
        <time>2019-09-15T10:12:40Z</time>
      </trkpt>
      <trkpt lat="49.02946" lon="-0.45802">
        <ele>83.77</ele>
        <time>2019-09-15T10:13:05Z</time>
      </trkpt>
      <trkpt lat="49.02982" lon="-0.45794">
        <ele>80.89</ele>
        <time>2019-09-15T10:13:32Z</time>
      </trkpt>
      <trkpt lat="49.0301" lon="-0.45787">
        <ele>79.45</ele>
        <time>2019-09-15T10:13:54Z</time>
      </trkpt>
      <trkpt lat="49.0304" lon="-0.4578">
        <ele>78.97</ele>
        <time>2019-09-15T10:14:17Z</time>
      </trkpt>
      <trkpt lat="49.03069" lon="-0.45773">
        <ele>78.97</ele>
        <time>2019-09-15T10:14:39Z</time>
      </trkpt>
      <trkpt lat="49.03096" lon="-0.45768">
        <ele>78</ele>
        <time>2019-09-15T10:15:00Z</time>
      </trkpt>
      <trkpt lat="49.03112" lon="-0.45766">
        <ele>76.08</ele>
        <time>2019-09-15T10:15:13Z</time>
      </trkpt>
      <trkpt lat="49.03116" lon="-0.45765">
        <ele>76.08</ele>
        <time>2019-09-15T10:15:17Z</time>
      </trkpt>
      <trkpt lat="49.03118" lon="-0.45765">
        <ele>76.08</ele>
        <time>2019-09-15T10:15:18Z</time>
      </trkpt>
      <trkpt lat="49.03134" lon="-0.45762">
        <ele>74.64</ele>
        <time>2019-09-15T10:15:33Z</time>
      </trkpt>
      <trkpt lat="49.03152" lon="-0.45755">
        <ele>73.2</ele>
        <time>2019-09-15T10:15:47Z</time>
      </trkpt>
      <trkpt lat="49.03179" lon="-0.45749">
        <ele>72.24</ele>
        <time>2019-09-15T10:16:05Z</time>
      </trkpt>
      <trkpt lat="49.03182" lon="-0.45741">
        <ele>72.24</ele>
        <time>2019-09-15T10:16:19Z</time>
      </trkpt>
      <trkpt lat="49.03183" lon="-0.45738">
        <ele>72.24</ele>
        <time>2019-09-15T10:16:32Z</time>
      </trkpt>
      <trkpt lat="49.03183" lon="-0.45736">
        <ele>72.24</ele>
        <time>2019-09-15T10:16:33Z</time>
      </trkpt>
      <trkpt lat="49.03183" lon="-0.45734">
        <ele>72.24</ele>
        <time>2019-09-15T10:16:34Z</time>
      </trkpt>
      <trkpt lat="49.03177" lon="-0.45687">
        <ele>73.68</ele>
        <time>2019-09-15T10:16:57Z</time>
      </trkpt>
      <trkpt lat="49.0317" lon="-0.45639">
        <ele>75.6</ele>
        <time>2019-09-15T10:17:20Z</time>
      </trkpt>
      <trkpt lat="49.03157" lon="-0.45585">
        <ele>77.04</ele>
        <time>2019-09-15T10:17:46Z</time>
      </trkpt>
      <trkpt lat="49.03136" lon="-0.45556">
        <ele>78.48</ele>
        <time>2019-09-15T10:18:07Z</time>
      </trkpt>
      <trkpt lat="49.0312" lon="-0.4553">
        <ele>79.93</ele>
        <time>2019-09-15T10:18:25Z</time>
      </trkpt>
      <trkpt lat="49.03114" lon="-0.45491">
        <ele>80.41</ele>
        <time>2019-09-15T10:18:45Z</time>
      </trkpt>
      <trkpt lat="49.03104" lon="-0.4545">
        <ele>81.85</ele>
        <time>2019-09-15T10:19:06Z</time>
      </trkpt>
      <trkpt lat="49.03095" lon="-0.45416">
        <ele>83.29</ele>
        <time>2019-09-15T10:19:25Z</time>
      </trkpt>
      <trkpt lat="49.03085" lon="-0.45381">
        <ele>84.73</ele>
        <time>2019-09-15T10:19:45Z</time>
      </trkpt>
      <trkpt lat="49.03085" lon="-0.45379">
        <ele>84.73</ele>
        <time>2019-09-15T10:19:46Z</time>
      </trkpt>
      <trkpt lat="49.03072" lon="-0.45349">
        <ele>87.62</ele>
        <time>2019-09-15T10:20:05Z</time>
      </trkpt>
      <trkpt lat="49.03063" lon="-0.45322">
        <ele>89.06</ele>
        <time>2019-09-15T10:20:25Z</time>
      </trkpt>
      <trkpt lat="49.0306" lon="-0.45315">
        <ele>88.58</ele>
        <time>2019-09-15T10:20:44Z</time>
      </trkpt>
      <trkpt lat="49.03048" lon="-0.45285">
        <ele>90.02</ele>
        <time>2019-09-15T10:21:02Z</time>
      </trkpt>
      <trkpt lat="49.03034" lon="-0.45246">
        <ele>92.42</ele>
        <time>2019-09-15T10:21:26Z</time>
      </trkpt>
      <trkpt lat="49.03029" lon="-0.45229">
        <ele>93.87</ele>
        <time>2019-09-15T10:21:43Z</time>
      </trkpt>
      <trkpt lat="49.03031" lon="-0.45226">
        <ele>93.87</ele>
        <time>2019-09-15T10:21:49Z</time>
      </trkpt>
      <trkpt lat="49.03045" lon="-0.45192">
        <ele>93.87</ele>
        <time>2019-09-15T10:22:09Z</time>
      </trkpt>
      <trkpt lat="49.03048" lon="-0.45162">
        <ele>95.31</ele>
        <time>2019-09-15T10:22:24Z</time>
      </trkpt>
      <trkpt lat="49.03068" lon="-0.45175">
        <ele>93.87</ele>
        <time>2019-09-15T10:25:55Z</time>
      </trkpt>
      <trkpt lat="49.03096" lon="-0.45174">
        <ele>93.39</ele>
        <time>2019-09-15T10:26:16Z</time>
      </trkpt>
      <trkpt lat="49.03117" lon="-0.45154">
        <ele>93.39</ele>
        <time>2019-09-15T10:26:34Z</time>
      </trkpt>
      <trkpt lat="49.03123" lon="-0.45125">
        <ele>95.31</ele>
        <time>2019-09-15T10:26:50Z</time>
      </trkpt>
      <trkpt lat="49.03122" lon="-0.45092">
        <ele>97.23</ele>
        <time>2019-09-15T10:27:07Z</time>
      </trkpt>
      <trkpt lat="49.0312" lon="-0.45051">
        <ele>100.11</ele>
        <time>2019-09-15T10:27:28Z</time>
      </trkpt>
      <trkpt lat="49.03121" lon="-0.45021">
        <ele>101.56</ele>
        <time>2019-09-15T10:27:46Z</time>
      </trkpt>
      <trkpt lat="49.0312" lon="-0.44998">
        <ele>103</ele>
        <time>2019-09-15T10:28:04Z</time>
      </trkpt>
      <trkpt lat="49.03118" lon="-0.44959">
        <ele>104.92</ele>
        <time>2019-09-15T10:28:24Z</time>
      </trkpt>
      <trkpt lat="49.03115" lon="-0.44917">
        <ele>107.32</ele>
        <time>2019-09-15T10:28:45Z</time>
      </trkpt>
      <trkpt lat="49.03112" lon="-0.4487">
        <ele>110.21</ele>
        <time>2019-09-15T10:29:08Z</time>
      </trkpt>
      <trkpt lat="49.03109" lon="-0.44824">
        <ele>112.61</ele>
        <time>2019-09-15T10:29:30Z</time>
      </trkpt>
      <trkpt lat="49.03111" lon="-0.44786">
        <ele>114.53</ele>
        <time>2019-09-15T10:29:49Z</time>
      </trkpt>
      <trkpt lat="49.03118" lon="-0.44739">
        <ele>116.94</ele>
        <time>2019-09-15T10:30:13Z</time>
      </trkpt>
      <trkpt lat="49.03119" lon="-0.44725">
        <ele>111.65</ele>
        <time>2019-09-15T10:30:20Z</time>
      </trkpt>
      <trkpt lat="49.03119" lon="-0.44723">
        <ele>121.26</ele>
        <time>2019-09-15T10:30:21Z</time>
      </trkpt>
      <trkpt lat="49.03119" lon="-0.44721">
        <ele>117.42</ele>
        <time>2019-09-15T10:30:22Z</time>
      </trkpt>
      <trkpt lat="49.0312" lon="-0.44715">
        <ele>118.86</ele>
        <time>2019-09-15T10:30:25Z</time>
      </trkpt>
      <trkpt lat="49.03121" lon="-0.44707">
        <ele>118.38</ele>
        <time>2019-09-15T10:30:29Z</time>
      </trkpt>
      <trkpt lat="49.03121" lon="-0.44705">
        <ele>118.86</ele>
        <time>2019-09-15T10:30:30Z</time>
      </trkpt>
      <trkpt lat="49.03127" lon="-0.44659">
        <ele>119.82</ele>
        <time>2019-09-15T10:30:52Z</time>
      </trkpt>
      <trkpt lat="49.03131" lon="-0.44627">
        <ele>121.26</ele>
        <time>2019-09-15T10:31:09Z</time>
      </trkpt>
      <trkpt lat="49.03137" lon="-0.44579">
        <ele>123.19</ele>
        <time>2019-09-15T10:31:32Z</time>
      </trkpt>
      <trkpt lat="49.03144" lon="-0.44543">
        <ele>124.63</ele>
        <time>2019-09-15T10:31:52Z</time>
      </trkpt>
      <trkpt lat="49.03154" lon="-0.445">
        <ele>125.11</ele>
        <time>2019-09-15T10:32:12Z</time>
      </trkpt>
      <trkpt lat="49.03161" lon="-0.44468">
        <ele>126.07</ele>
        <time>2019-09-15T10:32:29Z</time>
      </trkpt>
      <trkpt lat="49.03173" lon="-0.44423">
        <ele>127.99</ele>
        <time>2019-09-15T10:32:52Z</time>
      </trkpt>
      <trkpt lat="49.03178" lon="-0.44389">
        <ele>128.95</ele>
        <time>2019-09-15T10:33:08Z</time>
      </trkpt>
      <trkpt lat="49.03184" lon="-0.44351">
        <ele>130.88</ele>
        <time>2019-09-15T10:33:28Z</time>
      </trkpt>
      <trkpt lat="49.03185" lon="-0.44328">
        <ele>132.8</ele>
        <time>2019-09-15T10:33:39Z</time>
      </trkpt>
      <trkpt lat="49.03185" lon="-0.44326">
        <ele>132.8</ele>
        <time>2019-09-15T10:33:40Z</time>
      </trkpt>
      <trkpt lat="49.03187" lon="-0.44298">
        <ele>134.24</ele>
        <time>2019-09-15T10:33:55Z</time>
      </trkpt>
      <trkpt lat="49.03189" lon="-0.4426">
        <ele>136.64</ele>
        <time>2019-09-15T10:34:13Z</time>
      </trkpt>
      <trkpt lat="49.03191" lon="-0.44227">
        <ele>138.09</ele>
        <time>2019-09-15T10:34:32Z</time>
      </trkpt>
      <trkpt lat="49.0319" lon="-0.44223">
        <ele>138.09</ele>
        <time>2019-09-15T10:34:45Z</time>
      </trkpt>
      <trkpt lat="49.0319" lon="-0.44221">
        <ele>138.09</ele>
        <time>2019-09-15T10:34:46Z</time>
      </trkpt>
      <trkpt lat="49.0319" lon="-0.44219">
        <ele>138.09</ele>
        <time>2019-09-15T10:34:47Z</time>
      </trkpt>
      <trkpt lat="49.0319" lon="-0.44217">
        <ele>138.09</ele>
        <time>2019-09-15T10:34:48Z</time>
      </trkpt>
      <trkpt lat="49.0319" lon="-0.44215">
        <ele>138.09</ele>
        <time>2019-09-15T10:34:49Z</time>
      </trkpt>
      <trkpt lat="49.03191" lon="-0.4418">
        <ele>139.05</ele>
        <time>2019-09-15T10:35:06Z</time>
      </trkpt>
      <trkpt lat="49.0319" lon="-0.44156">
        <ele>139.05</ele>
        <time>2019-09-15T10:35:19Z</time>
      </trkpt>
      <trkpt lat="49.0319" lon="-0.44154">
        <ele>139.05</ele>
        <time>2019-09-15T10:35:20Z</time>
      </trkpt>
      <trkpt lat="49.0319" lon="-0.44151">
        <ele>139.05</ele>
        <time>2019-09-15T10:35:21Z</time>
      </trkpt>
      <trkpt lat="49.03191" lon="-0.44116">
        <ele>139.05</ele>
        <time>2019-09-15T10:35:38Z</time>
      </trkpt>
      <trkpt lat="49.03192" lon="-0.44079">
        <ele>139.05</ele>
        <time>2019-09-15T10:35:56Z</time>
      </trkpt>
      <trkpt lat="49.03196" lon="-0.44034">
        <ele>139.05</ele>
        <time>2019-09-15T10:36:16Z</time>
      </trkpt>
      <trkpt lat="49.03197" lon="-0.4402">
        <ele>139.05</ele>
        <time>2019-09-15T10:36:23Z</time>
      </trkpt>
      <trkpt lat="49.03193" lon="-0.4401">
        <ele>139.05</ele>
        <time>2019-09-15T10:36:46Z</time>
      </trkpt>
      <trkpt lat="49.03197" lon="-0.43991">
        <ele>139.05</ele>
        <time>2019-09-15T10:37:02Z</time>
      </trkpt>
      <trkpt lat="49.03198" lon="-0.43975">
        <ele>139.05</ele>
        <time>2019-09-15T10:37:11Z</time>
      </trkpt>
      <trkpt lat="49.03199" lon="-0.43973">
        <ele>139.05</ele>
        <time>2019-09-15T10:37:12Z</time>
      </trkpt>
      <trkpt lat="49.03207" lon="-0.43934">
        <ele>139.05</ele>
        <time>2019-09-15T10:37:31Z</time>
      </trkpt>
      <trkpt lat="49.03219" lon="-0.43916">
        <ele>139.05</ele>
        <time>2019-09-15T10:37:48Z</time>
      </trkpt>
      <trkpt lat="49.03231" lon="-0.43922">
        <ele>139.05</ele>
        <time>2019-09-15T10:37:59Z</time>
      </trkpt>
      <trkpt lat="49.03232" lon="-0.43922">
        <ele>139.05</ele>
        <time>2019-09-15T10:38:00Z</time>
      </trkpt>
      <trkpt lat="49.03233" lon="-0.43922">
        <ele>139.05</ele>
        <time>2019-09-15T10:38:01Z</time>
      </trkpt>
      <trkpt lat="49.03234" lon="-0.43923">
        <ele>139.05</ele>
        <time>2019-09-15T10:38:02Z</time>
      </trkpt>
      <trkpt lat="49.03235" lon="-0.43923">
        <ele>139.05</ele>
        <time>2019-09-15T10:38:03Z</time>
      </trkpt>
      <trkpt lat="49.03237" lon="-0.43924">
        <ele>139.05</ele>
        <time>2019-09-15T10:38:04Z</time>
      </trkpt>
      <trkpt lat="49.03237" lon="-0.43925">
        <ele>139.05</ele>
        <time>2019-09-15T10:38:05Z</time>
      </trkpt>
      <trkpt lat="49.03248" lon="-0.43934">
        <ele>138.57</ele>
        <time>2019-09-15T10:38:16Z</time>
      </trkpt>
      <trkpt lat="49.03262" lon="-0.43939">
        <ele>138.09</ele>
        <time>2019-09-15T10:38:29Z</time>
      </trkpt>
      <trkpt lat="49.03277" lon="-0.43944">
        <ele>137.13</ele>
        <time>2019-09-15T10:38:45Z</time>
      </trkpt>
      <trkpt lat="49.03283" lon="-0.43947">
        <ele>137.13</ele>
        <time>2019-09-15T10:38:50Z</time>
      </trkpt>
      <trkpt lat="49.03285" lon="-0.43948">
        <ele>137.13</ele>
        <time>2019-09-15T10:38:51Z</time>
      </trkpt>
      <trkpt lat="49.03288" lon="-0.4395">
        <ele>137.13</ele>
        <time>2019-09-15T10:38:52Z</time>
      </trkpt>
      <trkpt lat="49.03295" lon="-0.43954">
        <ele>137.13</ele>
        <time>2019-09-15T10:38:56Z</time>
      </trkpt>
      <trkpt lat="49.03312" lon="-0.43969">
        <ele>136.64</ele>
        <time>2019-09-15T10:39:10Z</time>
      </trkpt>
      <trkpt lat="49.03313" lon="-0.43967">
        <ele>136.16</ele>
        <time>2019-09-15T10:39:12Z</time>
      </trkpt>
      <trkpt lat="49.03319" lon="-0.4394">
        <ele>136.16</ele>
        <time>2019-09-15T10:39:26Z</time>
      </trkpt>
      <trkpt lat="49.03324" lon="-0.43922">
        <ele>135.68</ele>
        <time>2019-09-15T10:39:36Z</time>
      </trkpt>
      <trkpt lat="49.03325" lon="-0.4392">
        <ele>135.2</ele>
        <time>2019-09-15T10:39:37Z</time>
      </trkpt>
      <trkpt lat="49.03325" lon="-0.43918">
        <ele>135.2</ele>
        <time>2019-09-15T10:39:38Z</time>
      </trkpt>
      <trkpt lat="49.03326" lon="-0.43916">
        <ele>135.2</ele>
        <time>2019-09-15T10:39:39Z</time>
      </trkpt>
      <trkpt lat="49.03326" lon="-0.43914">
        <ele>135.2</ele>
        <time>2019-09-15T10:39:40Z</time>
      </trkpt>
      <trkpt lat="49.0333" lon="-0.43902">
        <ele>135.2</ele>
        <time>2019-09-15T10:39:46Z</time>
      </trkpt>
      <trkpt lat="49.03331" lon="-0.439">
        <ele>135.2</ele>
        <time>2019-09-15T10:39:47Z</time>
      </trkpt>
      <trkpt lat="49.03331" lon="-0.43898">
        <ele>135.2</ele>
        <time>2019-09-15T10:39:48Z</time>
      </trkpt>
      <trkpt lat="49.03337" lon="-0.43868">
        <ele>135.2</ele>
        <time>2019-09-15T10:40:02Z</time>
      </trkpt>
      <trkpt lat="49.0334" lon="-0.43842">
        <ele>135.2</ele>
        <time>2019-09-15T10:40:15Z</time>
      </trkpt>
      <trkpt lat="49.03341" lon="-0.43808">
        <ele>135.68</ele>
        <time>2019-09-15T10:40:32Z</time>
      </trkpt>
      <trkpt lat="49.03342" lon="-0.43797">
        <ele>135.68</ele>
        <time>2019-09-15T10:40:38Z</time>
      </trkpt>
      <trkpt lat="49.03341" lon="-0.43795">
        <ele>135.68</ele>
        <time>2019-09-15T10:40:39Z</time>
      </trkpt>
      <trkpt lat="49.03341" lon="-0.43793">
        <ele>135.68</ele>
        <time>2019-09-15T10:40:40Z</time>
      </trkpt>
      <trkpt lat="49.03342" lon="-0.43779">
        <ele>136.64</ele>
        <time>2019-09-15T10:40:47Z</time>
      </trkpt>
      <trkpt lat="49.03347" lon="-0.43763">
        <ele>139.05</ele>
        <time>2019-09-15T10:40:59Z</time>
      </trkpt>
      <trkpt lat="49.03348" lon="-0.43761">
        <ele>138.57</ele>
        <time>2019-09-15T10:41:00Z</time>
      </trkpt>
      <trkpt lat="49.0335" lon="-0.43745">
        <ele>139.05</ele>
        <time>2019-09-15T10:41:13Z</time>
      </trkpt>
      <trkpt lat="49.03351" lon="-0.43731">
        <ele>139.05</ele>
        <time>2019-09-15T10:41:28Z</time>
      </trkpt>
      <trkpt lat="49.03356" lon="-0.43699">
        <ele>139.05</ele>
        <time>2019-09-15T10:41:45Z</time>
      </trkpt>
      <trkpt lat="49.03355" lon="-0.43693">
        <ele>139.53</ele>
        <time>2019-09-15T10:41:58Z</time>
      </trkpt>
      <trkpt lat="49.03356" lon="-0.43691">
        <ele>139.53</ele>
        <time>2019-09-15T10:41:59Z</time>
      </trkpt>
      <trkpt lat="49.03356" lon="-0.43689">
        <ele>139.53</ele>
        <time>2019-09-15T10:42:00Z</time>
      </trkpt>
      <trkpt lat="49.03366" lon="-0.4366">
        <ele>139.53</ele>
        <time>2019-09-15T10:42:17Z</time>
      </trkpt>
      <trkpt lat="49.03367" lon="-0.43633">
        <ele>140.01</ele>
        <time>2019-09-15T10:42:30Z</time>
      </trkpt>
      <trkpt lat="49.03367" lon="-0.4363">
        <ele>140.01</ele>
        <time>2019-09-15T10:42:31Z</time>
      </trkpt>
      <trkpt lat="49.03368" lon="-0.43628">
        <ele>140.01</ele>
        <time>2019-09-15T10:42:32Z</time>
      </trkpt>
      <trkpt lat="49.03368" lon="-0.43626">
        <ele>140.01</ele>
        <time>2019-09-15T10:42:33Z</time>
      </trkpt>
      <trkpt lat="49.03368" lon="-0.43624">
        <ele>140.01</ele>
        <time>2019-09-15T10:42:34Z</time>
      </trkpt>
      <trkpt lat="49.03366" lon="-0.43602">
        <ele>140.01</ele>
        <time>2019-09-15T10:42:49Z</time>
      </trkpt>
      <trkpt lat="49.03371" lon="-0.43554">
        <ele>140.01</ele>
        <time>2019-09-15T10:45:52Z</time>
      </trkpt>
      <trkpt lat="49.03375" lon="-0.43534">
        <ele>140.01</ele>
        <time>2019-09-15T10:46:01Z</time>
      </trkpt>
      <trkpt lat="49.03379" lon="-0.435">
        <ele>139.05</ele>
        <time>2019-09-15T10:46:18Z</time>
      </trkpt>
      <trkpt lat="49.03385" lon="-0.43467">
        <ele>138.57</ele>
        <time>2019-09-15T10:46:35Z</time>
      </trkpt>
      <trkpt lat="49.03391" lon="-0.43442">
        <ele>137.61</ele>
        <time>2019-09-15T10:46:49Z</time>
      </trkpt>
      <trkpt lat="49.03392" lon="-0.4344">
        <ele>137.61</ele>
        <time>2019-09-15T10:46:50Z</time>
      </trkpt>
      <trkpt lat="49.03393" lon="-0.43436">
        <ele>137.13</ele>
        <time>2019-09-15T10:47:06Z</time>
      </trkpt>
      <trkpt lat="49.034" lon="-0.43417">
        <ele>136.64</ele>
        <time>2019-09-15T10:47:20Z</time>
      </trkpt>
      <trkpt lat="49.03413" lon="-0.434">
        <ele>134.72</ele>
        <time>2019-09-15T10:47:36Z</time>
      </trkpt>
      <trkpt lat="49.03424" lon="-0.43381">
        <ele>133.76</ele>
        <time>2019-09-15T10:47:49Z</time>
      </trkpt>
      <trkpt lat="49.03428" lon="-0.43375">
        <ele>133.28</ele>
        <time>2019-09-15T10:47:55Z</time>
      </trkpt>
      <trkpt lat="49.0344" lon="-0.43356">
        <ele>131.84</ele>
        <time>2019-09-15T10:48:10Z</time>
      </trkpt>
      <trkpt lat="49.03452" lon="-0.43337">
        <ele>131.84</ele>
        <time>2019-09-15T10:48:22Z</time>
      </trkpt>
      <trkpt lat="49.03464" lon="-0.43317">
        <ele>130.88</ele>
        <time>2019-09-15T10:48:36Z</time>
      </trkpt>
      <trkpt lat="49.03473" lon="-0.43301">
        <ele>129.92</ele>
        <time>2019-09-15T10:48:46Z</time>
      </trkpt>
      <trkpt lat="49.03481" lon="-0.43288">
        <ele>129.43</ele>
        <time>2019-09-15T10:48:54Z</time>
      </trkpt>
      <trkpt lat="49.03495" lon="-0.43264">
        <ele>128.47</ele>
        <time>2019-09-15T10:49:11Z</time>
      </trkpt>
      <trkpt lat="49.03507" lon="-0.43242">
        <ele>127.51</ele>
        <time>2019-09-15T10:49:26Z</time>
      </trkpt>
      <trkpt lat="49.03513" lon="-0.43234">
        <ele>127.51</ele>
        <time>2019-09-15T10:49:32Z</time>
      </trkpt>
      <trkpt lat="49.03521" lon="-0.43221">
        <ele>126.55</ele>
        <time>2019-09-15T10:49:41Z</time>
      </trkpt>
      <trkpt lat="49.03534" lon="-0.43201">
        <ele>125.59</ele>
        <time>2019-09-15T10:49:55Z</time>
      </trkpt>
      <trkpt lat="49.03547" lon="-0.43178">
        <ele>124.63</ele>
        <time>2019-09-15T10:50:12Z</time>
      </trkpt>
      <trkpt lat="49.03553" lon="-0.43168">
        <ele>124.15</ele>
        <time>2019-09-15T10:50:19Z</time>
      </trkpt>
      <trkpt lat="49.0356" lon="-0.43158">
        <ele>123.19</ele>
        <time>2019-09-15T10:50:26Z</time>
      </trkpt>
      <trkpt lat="49.0357" lon="-0.43138">
        <ele>122.71</ele>
        <time>2019-09-15T10:50:40Z</time>
      </trkpt>
      <trkpt lat="49.03582" lon="-0.43117">
        <ele>121.74</ele>
        <time>2019-09-15T10:50:54Z</time>
      </trkpt>
      <trkpt lat="49.03596" lon="-0.43095">
        <ele>121.26</ele>
        <time>2019-09-15T10:51:09Z</time>
      </trkpt>
      <trkpt lat="49.0361" lon="-0.43073">
        <ele>119.82</ele>
        <time>2019-09-15T10:51:25Z</time>
      </trkpt>
      <trkpt lat="49.03616" lon="-0.43061">
        <ele>118.86</ele>
        <time>2019-09-15T10:51:42Z</time>
      </trkpt>
      <trkpt lat="49.03623" lon="-0.43047">
        <ele>117.9</ele>
        <time>2019-09-15T10:51:53Z</time>
      </trkpt>
      <trkpt lat="49.03631" lon="-0.43029">
        <ele>116.46</ele>
        <time>2019-09-15T10:52:05Z</time>
      </trkpt>
      <trkpt lat="49.03644" lon="-0.43009">
        <ele>114.53</ele>
        <time>2019-09-15T10:52:20Z</time>
      </trkpt>
      <trkpt lat="49.03655" lon="-0.42992">
        <ele>113.09</ele>
        <time>2019-09-15T10:52:33Z</time>
      </trkpt>
      <trkpt lat="49.03662" lon="-0.42982">
        <ele>112.13</ele>
        <time>2019-09-15T10:52:40Z</time>
      </trkpt>
      <trkpt lat="49.03674" lon="-0.42962">
        <ele>110.69</ele>
        <time>2019-09-15T10:52:54Z</time>
      </trkpt>
      <trkpt lat="49.03679" lon="-0.42953">
        <ele>110.21</ele>
        <time>2019-09-15T10:53:01Z</time>
      </trkpt>
      <trkpt lat="49.03694" lon="-0.42933">
        <ele>109.25</ele>
        <time>2019-09-15T10:53:15Z</time>
      </trkpt>
      <trkpt lat="49.03705" lon="-0.42915">
        <ele>107.81</ele>
        <time>2019-09-15T10:53:27Z</time>
      </trkpt>
      <trkpt lat="49.03719" lon="-0.4289">
        <ele>106.36</ele>
        <time>2019-09-15T10:53:43Z</time>
      </trkpt>
      <trkpt lat="49.0373" lon="-0.42869">
        <ele>105.4</ele>
        <time>2019-09-15T10:53:56Z</time>
      </trkpt>
      <trkpt lat="49.03738" lon="-0.42851">
        <ele>103.96</ele>
        <time>2019-09-15T10:54:09Z</time>
      </trkpt>
      <trkpt lat="49.0375" lon="-0.4284">
        <ele>103.48</ele>
        <time>2019-09-15T10:54:24Z</time>
      </trkpt>
      <trkpt lat="49.03754" lon="-0.42842">
        <ele>103.48</ele>
        <time>2019-09-15T10:54:29Z</time>
      </trkpt>
      <trkpt lat="49.03757" lon="-0.42843">
        <ele>103.48</ele>
        <time>2019-09-15T10:54:32Z</time>
      </trkpt>
      <trkpt lat="49.03766" lon="-0.42852">
        <ele>103.48</ele>
        <time>2019-09-15T10:54:48Z</time>
      </trkpt>
      <trkpt lat="49.03765" lon="-0.42849">
        <ele>103.48</ele>
        <time>2019-09-15T10:55:06Z</time>
      </trkpt>
      <trkpt lat="49.03765" lon="-0.42849">
        <ele>103</ele>
        <time>2019-09-15T10:55:11Z</time>
      </trkpt>
      <trkpt lat="49.03773" lon="-0.42846">
        <ele>95.31</ele>
        <time>2019-09-15T11:24:11Z</time>
      </trkpt>
      <trkpt lat="49.03755" lon="-0.42885">
        <ele>134.24</ele>
        <time>2019-09-15T11:24:24Z</time>
      </trkpt>
      <trkpt lat="49.03755" lon="-0.42884">
        <ele>134.24</ele>
        <time>2019-09-15T11:24:25Z</time>
      </trkpt>
      <trkpt lat="49.03768" lon="-0.42849">
        <ele>133.76</ele>
        <time>2019-09-15T11:24:49Z</time>
      </trkpt>
      <trkpt lat="49.0377" lon="-0.42846">
        <ele>133.76</ele>
        <time>2019-09-15T11:25:08Z</time>
      </trkpt>
      <trkpt lat="49.0377" lon="-0.42846">
        <ele>133.76</ele>
        <time>2019-09-15T11:25:28Z</time>
      </trkpt>
      <trkpt lat="49.03764" lon="-0.42847">
        <ele>133.76</ele>
        <time>2019-09-15T11:25:46Z</time>
      </trkpt>
      <trkpt lat="49.03775" lon="-0.42848">
        <ele>133.28</ele>
        <time>2019-09-15T11:26:01Z</time>
      </trkpt>
      <trkpt lat="49.03788" lon="-0.42858">
        <ele>133.28</ele>
        <time>2019-09-15T11:26:15Z</time>
      </trkpt>
      <trkpt lat="49.03799" lon="-0.42869">
        <ele>132.8</ele>
        <time>2019-09-15T11:26:31Z</time>
      </trkpt>
      <trkpt lat="49.0381" lon="-0.42883">
        <ele>132.8</ele>
        <time>2019-09-15T11:26:45Z</time>
      </trkpt>
      <trkpt lat="49.03816" lon="-0.42888">
        <ele>132.8</ele>
        <time>2019-09-15T11:26:51Z</time>
      </trkpt>
      <trkpt lat="49.03822" lon="-0.42896">
        <ele>132.32</ele>
        <time>2019-09-15T11:27:08Z</time>
      </trkpt>
      <trkpt lat="49.03827" lon="-0.42909">
        <ele>131.84</ele>
        <time>2019-09-15T11:27:21Z</time>
      </trkpt>
      <trkpt lat="49.03833" lon="-0.42917">
        <ele>132.8</ele>
        <time>2019-09-15T11:27:35Z</time>
      </trkpt>
      <trkpt lat="49.03842" lon="-0.42934">
        <ele>133.76</ele>
        <time>2019-09-15T11:27:52Z</time>
      </trkpt>
      <trkpt lat="49.03852" lon="-0.4295">
        <ele>133.76</ele>
        <time>2019-09-15T11:28:09Z</time>
      </trkpt>
      <trkpt lat="49.03863" lon="-0.42965">
        <ele>133.28</ele>
        <time>2019-09-15T11:28:25Z</time>
      </trkpt>
      <trkpt lat="49.03872" lon="-0.42979">
        <ele>132.8</ele>
        <time>2019-09-15T11:28:40Z</time>
      </trkpt>
      <trkpt lat="49.03883" lon="-0.42994">
        <ele>133.28</ele>
        <time>2019-09-15T11:28:53Z</time>
      </trkpt>
      <trkpt lat="49.03888" lon="-0.43012">
        <ele>133.28</ele>
        <time>2019-09-15T11:29:05Z</time>
      </trkpt>
      <trkpt lat="49.03893" lon="-0.43033">
        <ele>134.24</ele>
        <time>2019-09-15T11:29:19Z</time>
      </trkpt>
      <trkpt lat="49.03896" lon="-0.43041">
        <ele>134.24</ele>
        <time>2019-09-15T11:29:31Z</time>
      </trkpt>
      <trkpt lat="49.03901" lon="-0.43051">
        <ele>133.28</ele>
        <time>2019-09-15T11:30:01Z</time>
      </trkpt>
      <trkpt lat="49.03897" lon="-0.43046">
        <ele>133.28</ele>
        <time>2019-09-15T11:30:39Z</time>
      </trkpt>
      <trkpt lat="49.03891" lon="-0.43043">
        <ele>132.8</ele>
        <time>2019-09-15T11:30:53Z</time>
      </trkpt>
      <trkpt lat="49.03888" lon="-0.4305">
        <ele>133.28</ele>
        <time>2019-09-15T11:30:58Z</time>
      </trkpt>
      <trkpt lat="49.03886" lon="-0.43077">
        <ele>135.2</ele>
        <time>2019-09-15T11:31:14Z</time>
      </trkpt>
      <trkpt lat="49.03885" lon="-0.43102">
        <ele>134.72</ele>
        <time>2019-09-15T11:31:28Z</time>
      </trkpt>
      <trkpt lat="49.03882" lon="-0.43128">
        <ele>135.68</ele>
        <time>2019-09-15T11:31:43Z</time>
      </trkpt>
      <trkpt lat="49.03879" lon="-0.43157">
        <ele>135.2</ele>
        <time>2019-09-15T11:31:57Z</time>
      </trkpt>
      <trkpt lat="49.03875" lon="-0.43188">
        <ele>135.2</ele>
        <time>2019-09-15T11:32:12Z</time>
      </trkpt>
      <trkpt lat="49.03872" lon="-0.4321">
        <ele>133.76</ele>
        <time>2019-09-15T11:32:27Z</time>
      </trkpt>
      <trkpt lat="49.03873" lon="-0.43225">
        <ele>133.28</ele>
        <time>2019-09-15T11:32:40Z</time>
      </trkpt>
      <trkpt lat="49.03875" lon="-0.43235">
        <ele>133.28</ele>
        <time>2019-09-15T11:32:49Z</time>
      </trkpt>
      <trkpt lat="49.03879" lon="-0.43243">
        <ele>134.72</ele>
        <time>2019-09-15T11:32:56Z</time>
      </trkpt>
      <trkpt lat="49.03893" lon="-0.43266">
        <ele>136.16</ele>
        <time>2019-09-15T11:33:10Z</time>
      </trkpt>
      <trkpt lat="49.03896" lon="-0.43271">
        <ele>136.64</ele>
        <time>2019-09-15T11:33:13Z</time>
      </trkpt>
      <trkpt lat="49.03907" lon="-0.43279">
        <ele>136.64</ele>
        <time>2019-09-15T11:33:22Z</time>
      </trkpt>
      <trkpt lat="49.03928" lon="-0.43275">
        <ele>134.72</ele>
        <time>2019-09-15T11:33:40Z</time>
      </trkpt>
      <trkpt lat="49.03932" lon="-0.43276">
        <ele>136.16</ele>
        <time>2019-09-15T11:33:45Z</time>
      </trkpt>
      <trkpt lat="49.03957" lon="-0.4328">
        <ele>135.68</ele>
        <time>2019-09-15T11:34:01Z</time>
      </trkpt>
      <trkpt lat="49.03972" lon="-0.43286">
        <ele>134.24</ele>
        <time>2019-09-15T11:34:14Z</time>
      </trkpt>
      <trkpt lat="49.03991" lon="-0.433">
        <ele>133.28</ele>
        <time>2019-09-15T11:34:30Z</time>
      </trkpt>
      <trkpt lat="49.04" lon="-0.43307">
        <ele>132.8</ele>
        <time>2019-09-15T11:34:37Z</time>
      </trkpt>
      <trkpt lat="49.04012" lon="-0.43322">
        <ele>131.84</ele>
        <time>2019-09-15T11:34:51Z</time>
      </trkpt>
      <trkpt lat="49.04031" lon="-0.43341">
        <ele>129.92</ele>
        <time>2019-09-15T11:35:08Z</time>
      </trkpt>
      <trkpt lat="49.04047" lon="-0.43359">
        <ele>129.92</ele>
        <time>2019-09-15T11:35:24Z</time>
      </trkpt>
      <trkpt lat="49.04061" lon="-0.43379">
        <ele>129.43</ele>
        <time>2019-09-15T11:35:39Z</time>
      </trkpt>
      <trkpt lat="49.04072" lon="-0.43402">
        <ele>129.43</ele>
        <time>2019-09-15T11:35:54Z</time>
      </trkpt>
      <trkpt lat="49.04078" lon="-0.43415">
        <ele>129.43</ele>
        <time>2019-09-15T11:36:02Z</time>
      </trkpt>
      <trkpt lat="49.04083" lon="-0.43427">
        <ele>128.95</ele>
        <time>2019-09-15T11:36:10Z</time>
      </trkpt>
      <trkpt lat="49.04094" lon="-0.43453">
        <ele>128.47</ele>
        <time>2019-09-15T11:36:25Z</time>
      </trkpt>
      <trkpt lat="49.04095" lon="-0.43458">
        <ele>128.47</ele>
        <time>2019-09-15T11:36:28Z</time>
      </trkpt>
      <trkpt lat="49.04106" lon="-0.43485">
        <ele>128.47</ele>
        <time>2019-09-15T11:36:43Z</time>
      </trkpt>
      <trkpt lat="49.04116" lon="-0.43508">
        <ele>127.99</ele>
        <time>2019-09-15T11:36:57Z</time>
      </trkpt>
      <trkpt lat="49.04122" lon="-0.43526">
        <ele>127.99</ele>
        <time>2019-09-15T11:37:07Z</time>
      </trkpt>
      <trkpt lat="49.04128" lon="-0.43549">
        <ele>127.99</ele>
        <time>2019-09-15T11:37:21Z</time>
      </trkpt>
      <trkpt lat="49.0413" lon="-0.43572">
        <ele>127.51</ele>
        <time>2019-09-15T11:37:34Z</time>
      </trkpt>
      <trkpt lat="49.04133" lon="-0.43595">
        <ele>127.51</ele>
        <time>2019-09-15T11:37:47Z</time>
      </trkpt>
      <trkpt lat="49.04134" lon="-0.43598">
        <ele>127.51</ele>
        <time>2019-09-15T11:37:48Z</time>
      </trkpt>
      <trkpt lat="49.04137" lon="-0.43609">
        <ele>127.51</ele>
        <time>2019-09-15T11:37:54Z</time>
      </trkpt>
      <trkpt lat="49.04139" lon="-0.43614">
        <ele>127.03</ele>
        <time>2019-09-15T11:37:57Z</time>
      </trkpt>
      <trkpt lat="49.04144" lon="-0.43626">
        <ele>127.03</ele>
        <time>2019-09-15T11:38:03Z</time>
      </trkpt>
      <trkpt lat="49.04157" lon="-0.43644">
        <ele>127.03</ele>
        <time>2019-09-15T11:38:16Z</time>
      </trkpt>
      <trkpt lat="49.04164" lon="-0.43655">
        <ele>126.07</ele>
        <time>2019-09-15T11:38:23Z</time>
      </trkpt>
      <trkpt lat="49.04181" lon="-0.43679">
        <ele>124.15</ele>
        <time>2019-09-15T11:38:39Z</time>
      </trkpt>
      <trkpt lat="49.04185" lon="-0.43689">
        <ele>123.67</ele>
        <time>2019-09-15T11:38:50Z</time>
      </trkpt>
      <trkpt lat="49.04182" lon="-0.4371">
        <ele>123.67</ele>
        <time>2019-09-15T11:39:03Z</time>
      </trkpt>
      <trkpt lat="49.04179" lon="-0.4374">
        <ele>123.19</ele>
        <time>2019-09-15T11:39:19Z</time>
      </trkpt>
      <trkpt lat="49.04193" lon="-0.43759">
        <ele>121.26</ele>
        <time>2019-09-15T11:39:35Z</time>
      </trkpt>
      <trkpt lat="49.04213" lon="-0.43771">
        <ele>119.34</ele>
        <time>2019-09-15T11:39:52Z</time>
      </trkpt>
      <trkpt lat="49.04234" lon="-0.43783">
        <ele>117.42</ele>
        <time>2019-09-15T11:40:10Z</time>
      </trkpt>
      <trkpt lat="49.04254" lon="-0.43794">
        <ele>116.46</ele>
        <time>2019-09-15T11:40:27Z</time>
      </trkpt>
      <trkpt lat="49.04272" lon="-0.43802">
        <ele>114.53</ele>
        <time>2019-09-15T11:40:42Z</time>
      </trkpt>
      <trkpt lat="49.04274" lon="-0.43803">
        <ele>114.53</ele>
        <time>2019-09-15T11:40:44Z</time>
      </trkpt>
      <trkpt lat="49.04286" lon="-0.43812">
        <ele>113.57</ele>
        <time>2019-09-15T11:40:55Z</time>
      </trkpt>
      <trkpt lat="49.04299" lon="-0.43814">
        <ele>113.09</ele>
        <time>2019-09-15T11:41:11Z</time>
      </trkpt>
      <trkpt lat="49.04313" lon="-0.43821">
        <ele>112.13</ele>
        <time>2019-09-15T11:41:24Z</time>
      </trkpt>
      <trkpt lat="49.04331" lon="-0.43838">
        <ele>111.17</ele>
        <time>2019-09-15T11:41:41Z</time>
      </trkpt>
      <trkpt lat="49.0433" lon="-0.4384">
        <ele>111.17</ele>
        <time>2019-09-15T11:41:43Z</time>
      </trkpt>
      <trkpt lat="49.04329" lon="-0.43849">
        <ele>110.21</ele>
        <time>2019-09-15T11:41:48Z</time>
      </trkpt>
      <trkpt lat="49.04324" lon="-0.43875">
        <ele>109.25</ele>
        <time>2019-09-15T11:42:04Z</time>
      </trkpt>
      <trkpt lat="49.0432" lon="-0.43906">
        <ele>107.81</ele>
        <time>2019-09-15T11:42:18Z</time>
      </trkpt>
      <trkpt lat="49.04317" lon="-0.43941">
        <ele>105.88</ele>
        <time>2019-09-15T11:42:36Z</time>
      </trkpt>
      <trkpt lat="49.04313" lon="-0.4397">
        <ele>107.32</ele>
        <time>2019-09-15T11:42:53Z</time>
      </trkpt>
      <trkpt lat="49.04309" lon="-0.43997">
        <ele>108.29</ele>
        <time>2019-09-15T11:43:07Z</time>
      </trkpt>
      <trkpt lat="49.04305" lon="-0.44023">
        <ele>109.73</ele>
        <time>2019-09-15T11:43:22Z</time>
      </trkpt>
      <trkpt lat="49.04303" lon="-0.44049">
        <ele>110.69</ele>
        <time>2019-09-15T11:43:38Z</time>
      </trkpt>
      <trkpt lat="49.043" lon="-0.44078">
        <ele>111.65</ele>
        <time>2019-09-15T11:43:53Z</time>
      </trkpt>
      <trkpt lat="49.04297" lon="-0.44101">
        <ele>112.61</ele>
        <time>2019-09-15T11:44:06Z</time>
      </trkpt>
      <trkpt lat="49.04292" lon="-0.44131">
        <ele>113.09</ele>
        <time>2019-09-15T11:44:20Z</time>
      </trkpt>
      <trkpt lat="49.04291" lon="-0.44154">
        <ele>113.09</ele>
        <time>2019-09-15T11:44:39Z</time>
      </trkpt>
      <trkpt lat="49.04289" lon="-0.44168">
        <ele>113.09</ele>
        <time>2019-09-15T11:44:47Z</time>
      </trkpt>
      <trkpt lat="49.04284" lon="-0.44198">
        <ele>113.57</ele>
        <time>2019-09-15T11:45:03Z</time>
      </trkpt>
      <trkpt lat="49.0428" lon="-0.44223">
        <ele>114.05</ele>
        <time>2019-09-15T11:45:16Z</time>
      </trkpt>
      <trkpt lat="49.0428" lon="-0.44227">
        <ele>114.05</ele>
        <time>2019-09-15T11:45:18Z</time>
      </trkpt>
      <trkpt lat="49.04276" lon="-0.44251">
        <ele>114.05</ele>
        <time>2019-09-15T11:45:30Z</time>
      </trkpt>
      <trkpt lat="49.04271" lon="-0.44281">
        <ele>113.57</ele>
        <time>2019-09-15T11:45:46Z</time>
      </trkpt>
      <trkpt lat="49.04266" lon="-0.44318">
        <ele>113.57</ele>
        <time>2019-09-15T11:46:05Z</time>
      </trkpt>
      <trkpt lat="49.04263" lon="-0.44347">
        <ele>113.57</ele>
        <time>2019-09-15T11:46:20Z</time>
      </trkpt>
      <trkpt lat="49.04257" lon="-0.44383">
        <ele>113.09</ele>
        <time>2019-09-15T11:46:38Z</time>
      </trkpt>
      <trkpt lat="49.04256" lon="-0.44413">
        <ele>113.09</ele>
        <time>2019-09-15T11:46:52Z</time>
      </trkpt>
      <trkpt lat="49.04253" lon="-0.44442">
        <ele>113.09</ele>
        <time>2019-09-15T11:47:07Z</time>
      </trkpt>
      <trkpt lat="49.04251" lon="-0.44462">
        <ele>113.09</ele>
        <time>2019-09-15T11:47:17Z</time>
      </trkpt>
      <trkpt lat="49.04248" lon="-0.44487">
        <ele>113.09</ele>
        <time>2019-09-15T11:47:29Z</time>
      </trkpt>
      <trkpt lat="49.04244" lon="-0.44512">
        <ele>112.61</ele>
        <time>2019-09-15T11:47:41Z</time>
      </trkpt>
      <trkpt lat="49.04239" lon="-0.44544">
        <ele>112.61</ele>
        <time>2019-09-15T11:47:58Z</time>
      </trkpt>
      <trkpt lat="49.04241" lon="-0.44555">
        <ele>111.17</ele>
        <time>2019-09-15T11:48:06Z</time>
      </trkpt>
      <trkpt lat="49.04245" lon="-0.44557">
        <ele>111.17</ele>
        <time>2019-09-15T11:48:24Z</time>
      </trkpt>
      <trkpt lat="49.04247" lon="-0.44558">
        <ele>111.17</ele>
        <time>2019-09-15T11:48:25Z</time>
      </trkpt>
      <trkpt lat="49.04269" lon="-0.44567">
        <ele>111.17</ele>
        <time>2019-09-15T11:48:43Z</time>
      </trkpt>
      <trkpt lat="49.04293" lon="-0.44573">
        <ele>109.73</ele>
        <time>2019-09-15T11:49:02Z</time>
      </trkpt>
      <trkpt lat="49.04323" lon="-0.44584">
        <ele>108.29</ele>
        <time>2019-09-15T11:49:26Z</time>
      </trkpt>
      <trkpt lat="49.04347" lon="-0.44592">
        <ele>107.32</ele>
        <time>2019-09-15T11:49:45Z</time>
      </trkpt>
      <trkpt lat="49.04373" lon="-0.446">
        <ele>106.36</ele>
        <time>2019-09-15T11:50:06Z</time>
      </trkpt>
      <trkpt lat="49.04399" lon="-0.44609">
        <ele>105.88</ele>
        <time>2019-09-15T11:50:26Z</time>
      </trkpt>
      <trkpt lat="49.04421" lon="-0.44618">
        <ele>104.92</ele>
        <time>2019-09-15T11:50:44Z</time>
      </trkpt>
      <trkpt lat="49.04423" lon="-0.44623">
        <ele>104.44</ele>
        <time>2019-09-15T11:50:48Z</time>
      </trkpt>
      <trkpt lat="49.04419" lon="-0.44653">
        <ele>104.44</ele>
        <time>2019-09-15T11:51:06Z</time>
      </trkpt>
      <trkpt lat="49.04416" lon="-0.44677">
        <ele>104.44</ele>
        <time>2019-09-15T11:51:20Z</time>
      </trkpt>
      <trkpt lat="49.04411" lon="-0.44718">
        <ele>103.96</ele>
        <time>2019-09-15T11:51:41Z</time>
      </trkpt>
      <trkpt lat="49.04406" lon="-0.44758">
        <ele>103.96</ele>
        <time>2019-09-15T11:52:01Z</time>
      </trkpt>
      <trkpt lat="49.04405" lon="-0.44787">
        <ele>103.96</ele>
        <time>2019-09-15T11:52:20Z</time>
      </trkpt>
      <trkpt lat="49.04405" lon="-0.44788">
        <ele>103.96</ele>
        <time>2019-09-15T11:52:24Z</time>
      </trkpt>
      <trkpt lat="49.04403" lon="-0.44796">
        <ele>103.48</ele>
        <time>2019-09-15T11:52:29Z</time>
      </trkpt>
      <trkpt lat="49.04399" lon="-0.44831">
        <ele>103.48</ele>
        <time>2019-09-15T11:52:46Z</time>
      </trkpt>
      <trkpt lat="49.04391" lon="-0.44873">
        <ele>103.48</ele>
        <time>2019-09-15T11:53:08Z</time>
      </trkpt>
      <trkpt lat="49.04386" lon="-0.4492">
        <ele>103</ele>
        <time>2019-09-15T11:53:30Z</time>
      </trkpt>
      <trkpt lat="49.04385" lon="-0.4493">
        <ele>102.52</ele>
        <time>2019-09-15T11:53:35Z</time>
      </trkpt>
      <trkpt lat="49.04388" lon="-0.44934">
        <ele>102.04</ele>
        <time>2019-09-15T11:53:48Z</time>
      </trkpt>
      <trkpt lat="49.04387" lon="-0.44936">
        <ele>102.04</ele>
        <time>2019-09-15T11:53:50Z</time>
      </trkpt>
      <trkpt lat="49.04378" lon="-0.44969">
        <ele>102.04</ele>
        <time>2019-09-15T11:54:07Z</time>
      </trkpt>
      <trkpt lat="49.04377" lon="-0.45005">
        <ele>101.56</ele>
        <time>2019-09-15T11:54:24Z</time>
      </trkpt>
      <trkpt lat="49.04381" lon="-0.45046">
        <ele>100.6</ele>
        <time>2019-09-15T11:54:44Z</time>
      </trkpt>
      <trkpt lat="49.04385" lon="-0.45083">
        <ele>99.63</ele>
        <time>2019-09-15T11:55:03Z</time>
      </trkpt>
      <trkpt lat="49.04392" lon="-0.45122">
        <ele>99.15</ele>
        <time>2019-09-15T11:55:23Z</time>
      </trkpt>
      <trkpt lat="49.04399" lon="-0.45152">
        <ele>98.67</ele>
        <time>2019-09-15T11:55:39Z</time>
      </trkpt>
      <trkpt lat="49.04406" lon="-0.45183">
        <ele>97.23</ele>
        <time>2019-09-15T11:55:55Z</time>
      </trkpt>
      <trkpt lat="49.04408" lon="-0.45227">
        <ele>95.79</ele>
        <time>2019-09-15T11:56:16Z</time>
      </trkpt>
      <trkpt lat="49.04414" lon="-0.45278">
        <ele>94.35</ele>
        <time>2019-09-15T11:56:41Z</time>
      </trkpt>
      <trkpt lat="49.04415" lon="-0.45303">
        <ele>93.39</ele>
        <time>2019-09-15T11:57:00Z</time>
      </trkpt>
      <trkpt lat="49.04416" lon="-0.45303">
        <ele>92.9</ele>
        <time>2019-09-15T11:57:27Z</time>
      </trkpt>
      <trkpt lat="49.04415" lon="-0.45303">
        <ele>92.42</ele>
        <time>2019-09-15T11:57:53Z</time>
      </trkpt>
      <trkpt lat="49.04416" lon="-0.45304">
        <ele>92.42</ele>
        <time>2019-09-15T11:58:13Z</time>
      </trkpt>
      <trkpt lat="49.0442" lon="-0.45334">
        <ele>92.42</ele>
        <time>2019-09-15T11:58:29Z</time>
      </trkpt>
      <trkpt lat="49.04424" lon="-0.45369">
        <ele>91.94</ele>
        <time>2019-09-15T11:58:47Z</time>
      </trkpt>
      <trkpt lat="49.04426" lon="-0.45412">
        <ele>90.98</ele>
        <time>2019-09-15T11:59:09Z</time>
      </trkpt>
      <trkpt lat="49.04429" lon="-0.45496">
        <ele>87.14</ele>
        <time>2019-09-15T12:00:31Z</time>
      </trkpt>
      <trkpt lat="49.04438" lon="-0.45502">
        <ele>87.14</ele>
        <time>2019-09-15T12:00:38Z</time>
      </trkpt>
      <trkpt lat="49.04443" lon="-0.45513">
        <ele>87.14</ele>
        <time>2019-09-15T12:00:45Z</time>
      </trkpt>
      <trkpt lat="49.04444" lon="-0.45534">
        <ele>87.62</ele>
        <time>2019-09-15T12:00:59Z</time>
      </trkpt>
      <trkpt lat="49.04442" lon="-0.45571">
        <ele>87.62</ele>
        <time>2019-09-15T12:01:17Z</time>
      </trkpt>
      <trkpt lat="49.04443" lon="-0.45614">
        <ele>87.62</ele>
        <time>2019-09-15T12:01:38Z</time>
      </trkpt>
      <trkpt lat="49.04446" lon="-0.45663">
        <ele>85.21</ele>
        <time>2019-09-15T12:02:03Z</time>
      </trkpt>
      <trkpt lat="49.04446" lon="-0.45667">
        <ele>84.73</ele>
        <time>2019-09-15T12:02:05Z</time>
      </trkpt>
      <trkpt lat="49.04443" lon="-0.45668">
        <ele>83.29</ele>
        <time>2019-09-15T12:02:19Z</time>
      </trkpt>
      <trkpt lat="49.04444" lon="-0.45676">
        <ele>82.81</ele>
        <time>2019-09-15T12:02:36Z</time>
      </trkpt>
      <trkpt lat="49.04447" lon="-0.45686">
        <ele>82.33</ele>
        <time>2019-09-15T12:02:42Z</time>
      </trkpt>
      <trkpt lat="49.04449" lon="-0.45722">
        <ele>80.41</ele>
        <time>2019-09-15T12:03:01Z</time>
      </trkpt>
      <trkpt lat="49.04448" lon="-0.45767">
        <ele>78.97</ele>
        <time>2019-09-15T12:03:23Z</time>
      </trkpt>
      <trkpt lat="49.04446" lon="-0.45805">
        <ele>77.52</ele>
        <time>2019-09-15T12:03:42Z</time>
      </trkpt>
      <trkpt lat="49.04442" lon="-0.45845">
        <ele>75.6</ele>
        <time>2019-09-15T12:04:02Z</time>
      </trkpt>
      <trkpt lat="49.0444" lon="-0.45855">
        <ele>74.16</ele>
        <time>2019-09-15T12:04:08Z</time>
      </trkpt>
      <trkpt lat="49.0444" lon="-0.45872">
        <ele>73.2</ele>
        <time>2019-09-15T12:04:16Z</time>
      </trkpt>
      <trkpt lat="49.04431" lon="-0.45897">
        <ele>70.31</ele>
        <time>2019-09-15T12:04:33Z</time>
      </trkpt>
      <trkpt lat="49.0442" lon="-0.45915">
        <ele>66.95</ele>
        <time>2019-09-15T12:04:48Z</time>
      </trkpt>
      <trkpt lat="49.04412" lon="-0.45933">
        <ele>63.1</ele>
        <time>2019-09-15T12:05:03Z</time>
      </trkpt>
      <trkpt lat="49.04408" lon="-0.45959">
        <ele>60.22</ele>
        <time>2019-09-15T12:05:17Z</time>
      </trkpt>
      <trkpt lat="49.04405" lon="-0.45982">
        <ele>56.86</ele>
        <time>2019-09-15T12:05:31Z</time>
      </trkpt>
      <trkpt lat="49.04401" lon="-0.46003">
        <ele>53.49</ele>
        <time>2019-09-15T12:05:45Z</time>
      </trkpt>
      <trkpt lat="49.044" lon="-0.46018">
        <ele>51.57</ele>
        <time>2019-09-15T12:05:55Z</time>
      </trkpt>
      <trkpt lat="49.04403" lon="-0.46042">
        <ele>48.2</ele>
        <time>2019-09-15T12:06:09Z</time>
      </trkpt>
      <trkpt lat="49.04411" lon="-0.4607">
        <ele>44.84</ele>
        <time>2019-09-15T12:06:25Z</time>
      </trkpt>
      <trkpt lat="49.04412" lon="-0.46073">
        <ele>44.84</ele>
        <time>2019-09-15T12:06:27Z</time>
      </trkpt>
      <trkpt lat="49.04416" lon="-0.46092">
        <ele>41.95</ele>
        <time>2019-09-15T12:06:40Z</time>
      </trkpt>
      <trkpt lat="49.04422" lon="-0.46115">
        <ele>38.59</ele>
        <time>2019-09-15T12:06:53Z</time>
      </trkpt>
      <trkpt lat="49.04431" lon="-0.46144">
        <ele>35.71</ele>
        <time>2019-09-15T12:07:10Z</time>
      </trkpt>
      <trkpt lat="49.04441" lon="-0.46176">
        <ele>34.74</ele>
        <time>2019-09-15T12:07:26Z</time>
      </trkpt>
      <trkpt lat="49.04444" lon="-0.46187">
        <ele>33.78</ele>
        <time>2019-09-15T12:07:34Z</time>
      </trkpt>
      <trkpt lat="49.04439" lon="-0.46178">
        <ele>33.78</ele>
        <time>2019-09-15T12:07:40Z</time>
      </trkpt>
      <trkpt lat="49.04433" lon="-0.46178">
        <ele>33.78</ele>
        <time>2019-09-15T12:07:45Z</time>
      </trkpt>
      <trkpt lat="49.04423" lon="-0.46185">
        <ele>33.78</ele>
        <time>2019-09-15T12:07:54Z</time>
      </trkpt>
      <trkpt lat="49.04398" lon="-0.46203">
        <ele>33.78</ele>
        <time>2019-09-15T12:08:15Z</time>
      </trkpt>
      <trkpt lat="49.04372" lon="-0.46218">
        <ele>32.34</ele>
        <time>2019-09-15T12:08:35Z</time>
      </trkpt>
      <trkpt lat="49.04357" lon="-0.46227">
        <ele>33.78</ele>
        <time>2019-09-15T12:08:47Z</time>
      </trkpt>
      <trkpt lat="49.04354" lon="-0.46228">
        <ele>32.34</ele>
        <time>2019-09-15T12:08:49Z</time>
      </trkpt>
      <trkpt lat="49.04329" lon="-0.46241">
        <ele>33.3</ele>
        <time>2019-09-15T12:09:09Z</time>
      </trkpt>
      <trkpt lat="49.04304" lon="-0.46252">
        <ele>33.3</ele>
        <time>2019-09-15T12:09:28Z</time>
      </trkpt>
      <trkpt lat="49.04277" lon="-0.46265">
        <ele>33.3</ele>
        <time>2019-09-15T12:09:48Z</time>
      </trkpt>
      <trkpt lat="49.0425" lon="-0.46277">
        <ele>32.82</ele>
        <time>2019-09-15T12:10:08Z</time>
      </trkpt>
      <trkpt lat="49.04219" lon="-0.46288">
        <ele>32.82</ele>
        <time>2019-09-15T12:10:29Z</time>
      </trkpt>
      <trkpt lat="49.04193" lon="-0.46299">
        <ele>32.82</ele>
        <time>2019-09-15T12:10:48Z</time>
      </trkpt>
      <trkpt lat="49.04164" lon="-0.46313">
        <ele>32.34</ele>
        <time>2019-09-15T12:11:09Z</time>
      </trkpt>
      <trkpt lat="49.04135" lon="-0.46325">
        <ele>32.34</ele>
        <time>2019-09-15T12:11:31Z</time>
      </trkpt>
      <trkpt lat="49.04129" lon="-0.46331">
        <ele>32.34</ele>
        <time>2019-09-15T12:11:41Z</time>
      </trkpt>
      <trkpt lat="49.04122" lon="-0.46333">
        <ele>32.34</ele>
        <time>2019-09-15T12:11:46Z</time>
      </trkpt>
      <trkpt lat="49.041" lon="-0.46344">
        <ele>32.34</ele>
        <time>2019-09-15T12:12:04Z</time>
      </trkpt>
      <trkpt lat="49.0408" lon="-0.46351">
        <ele>32.34</ele>
        <time>2019-09-15T12:12:20Z</time>
      </trkpt>
      <trkpt lat="49.04059" lon="-0.46359">
        <ele>31.86</ele>
        <time>2019-09-15T12:12:37Z</time>
      </trkpt>
      <trkpt lat="49.04039" lon="-0.46368">
        <ele>30.9</ele>
        <time>2019-09-15T12:12:53Z</time>
      </trkpt>
      <trkpt lat="49.04018" lon="-0.46379">
        <ele>30.9</ele>
        <time>2019-09-15T12:13:09Z</time>
      </trkpt>
      <trkpt lat="49.03996" lon="-0.46387">
        <ele>30.9</ele>
        <time>2019-09-15T12:13:27Z</time>
      </trkpt>
      <trkpt lat="49.03967" lon="-0.46397">
        <ele>30.42</ele>
        <time>2019-09-15T12:13:49Z</time>
      </trkpt>
      <trkpt lat="49.03938" lon="-0.46414">
        <ele>30.42</ele>
        <time>2019-09-15T12:14:10Z</time>
      </trkpt>
      <trkpt lat="49.0391" lon="-0.46426">
        <ele>30.42</ele>
        <time>2019-09-15T12:14:31Z</time>
      </trkpt>
      <trkpt lat="49.03886" lon="-0.46435">
        <ele>30.42</ele>
        <time>2019-09-15T12:14:51Z</time>
      </trkpt>
      <trkpt lat="49.03867" lon="-0.46443">
        <ele>29.94</ele>
        <time>2019-09-15T12:15:06Z</time>
      </trkpt>
      <trkpt lat="49.03862" lon="-0.46445">
        <ele>29.94</ele>
        <time>2019-09-15T12:15:10Z</time>
      </trkpt>
      <trkpt lat="49.03838" lon="-0.46454">
        <ele>29.94</ele>
        <time>2019-09-15T12:15:28Z</time>
      </trkpt>
      <trkpt lat="49.03812" lon="-0.46465">
        <ele>29.94</ele>
        <time>2019-09-15T12:15:47Z</time>
      </trkpt>
      <trkpt lat="49.03793" lon="-0.46474">
        <ele>29.94</ele>
        <time>2019-09-15T12:16:03Z</time>
      </trkpt>
      <trkpt lat="49.0377" lon="-0.46487">
        <ele>29.46</ele>
        <time>2019-09-15T12:16:19Z</time>
      </trkpt>
      <trkpt lat="49.03745" lon="-0.46498">
        <ele>29.46</ele>
        <time>2019-09-15T12:16:37Z</time>
      </trkpt>
      <trkpt lat="49.03718" lon="-0.46509">
        <ele>29.46</ele>
        <time>2019-09-15T12:16:56Z</time>
      </trkpt>
      <trkpt lat="49.03687" lon="-0.46521">
        <ele>30.42</ele>
        <time>2019-09-15T12:17:19Z</time>
      </trkpt>
      <trkpt lat="49.03661" lon="-0.46529">
        <ele>30.42</ele>
        <time>2019-09-15T12:17:39Z</time>
      </trkpt>
      <trkpt lat="49.03636" lon="-0.46542">
        <ele>30.42</ele>
        <time>2019-09-15T12:17:58Z</time>
      </trkpt>
      <trkpt lat="49.03607" lon="-0.46553">
        <ele>29.94</ele>
        <time>2019-09-15T12:18:19Z</time>
      </trkpt>
      <trkpt lat="49.03574" lon="-0.46566">
        <ele>30.42</ele>
        <time>2019-09-15T12:18:44Z</time>
      </trkpt>
      <trkpt lat="49.03543" lon="-0.46576">
        <ele>30.42</ele>
        <time>2019-09-15T12:19:07Z</time>
      </trkpt>
      <trkpt lat="49.03513" lon="-0.46581">
        <ele>30.42</ele>
        <time>2019-09-15T12:19:28Z</time>
      </trkpt>
      <trkpt lat="49.03484" lon="-0.46586">
        <ele>30.42</ele>
        <time>2019-09-15T12:19:47Z</time>
      </trkpt>
      <trkpt lat="49.03455" lon="-0.4659">
        <ele>30.42</ele>
        <time>2019-09-15T12:20:07Z</time>
      </trkpt>
      <trkpt lat="49.03427" lon="-0.46591">
        <ele>30.42</ele>
        <time>2019-09-15T12:20:26Z</time>
      </trkpt>
      <trkpt lat="49.03399" lon="-0.4659">
        <ele>30.42</ele>
        <time>2019-09-15T12:20:46Z</time>
      </trkpt>
      <trkpt lat="49.03378" lon="-0.4659">
        <ele>30.42</ele>
        <time>2019-09-15T12:21:02Z</time>
      </trkpt>
      <trkpt lat="49.03348" lon="-0.46586">
        <ele>30.42</ele>
        <time>2019-09-15T12:21:23Z</time>
      </trkpt>
      <trkpt lat="49.03325" lon="-0.46579">
        <ele>30.42</ele>
        <time>2019-09-15T12:21:39Z</time>
      </trkpt>
      <trkpt lat="49.03319" lon="-0.46579">
        <ele>30.42</ele>
        <time>2019-09-15T12:21:44Z</time>
      </trkpt>
      <trkpt lat="49.03314" lon="-0.46587">
        <ele>30.42</ele>
        <time>2019-09-15T12:21:49Z</time>
      </trkpt>
      <trkpt lat="49.03311" lon="-0.46629">
        <ele>31.38</ele>
        <time>2019-09-15T12:22:07Z</time>
      </trkpt>
      <trkpt lat="49.03307" lon="-0.46673">
        <ele>31.38</ele>
        <time>2019-09-15T12:22:28Z</time>
      </trkpt>
      <trkpt lat="49.03305" lon="-0.46689">
        <ele>30.9</ele>
        <time>2019-09-15T12:22:41Z</time>
      </trkpt>
      <trkpt lat="49.03298" lon="-0.46711">
        <ele>30.9</ele>
        <time>2019-09-15T12:22:55Z</time>
      </trkpt>
      <trkpt lat="49.0329" lon="-0.46739">
        <ele>30.9</ele>
        <time>2019-09-15T12:23:11Z</time>
      </trkpt>
      <trkpt lat="49.0329" lon="-0.46747">
        <ele>30.9</ele>
        <time>2019-09-15T12:23:15Z</time>
      </trkpt>
      <trkpt lat="49.03293" lon="-0.46752">
        <ele>30.9</ele>
        <time>2019-09-15T12:23:28Z</time>
      </trkpt>
      <trkpt lat="49.03296" lon="-0.46754">
        <ele>30.42</ele>
        <time>2019-09-15T12:23:55Z</time>
      </trkpt>
      <trkpt lat="49.03296" lon="-0.46751">
        <ele>30.42</ele>
        <time>2019-09-15T12:24:19Z</time>
      </trkpt>
      <trkpt lat="49.03294" lon="-0.4675">
        <ele>30.42</ele>
        <time>2019-09-15T12:24:21Z</time>
      </trkpt>
      <trkpt lat="49.0328" lon="-0.46749">
        <ele>30.42</ele>
        <time>2019-09-15T12:24:32Z</time>
      </trkpt>
      <trkpt lat="49.03275" lon="-0.46744">
        <ele>30.42</ele>
        <time>2019-09-15T12:24:37Z</time>
      </trkpt>
      <trkpt lat="49.03248" lon="-0.46741">
        <ele>30.42</ele>
        <time>2019-09-15T12:24:57Z</time>
      </trkpt>
      <trkpt lat="49.03216" lon="-0.46733">
        <ele>29.94</ele>
        <time>2019-09-15T12:25:19Z</time>
      </trkpt>
      <trkpt lat="49.0319" lon="-0.46735">
        <ele>29.94</ele>
        <time>2019-09-15T12:25:38Z</time>
      </trkpt>
      <trkpt lat="49.03162" lon="-0.46737">
        <ele>32.34</ele>
        <time>2019-09-15T12:25:59Z</time>
      </trkpt>
      <trkpt lat="49.03138" lon="-0.46738">
        <ele>33.78</ele>
        <time>2019-09-15T12:26:17Z</time>
      </trkpt>
      <trkpt lat="49.03108" lon="-0.46743">
        <ele>36.67</ele>
        <time>2019-09-15T12:26:38Z</time>
      </trkpt>
      <trkpt lat="49.03083" lon="-0.4675">
        <ele>39.07</ele>
        <time>2019-09-15T12:26:55Z</time>
      </trkpt>
      <trkpt lat="49.03048" lon="-0.46763">
        <ele>41.47</ele>
        <time>2019-09-15T12:27:19Z</time>
      </trkpt>
      <trkpt lat="49.03022" lon="-0.46772">
        <ele>42.44</ele>
        <time>2019-09-15T12:27:38Z</time>
      </trkpt>
      <trkpt lat="49.03001" lon="-0.46781">
        <ele>42.92</ele>
        <time>2019-09-15T12:27:55Z</time>
      </trkpt>
      <trkpt lat="49.02978" lon="-0.46783">
        <ele>42.92</ele>
        <time>2019-09-15T12:28:13Z</time>
      </trkpt>
      <trkpt lat="49.02954" lon="-0.46783">
        <ele>42.92</ele>
        <time>2019-09-15T12:28:30Z</time>
      </trkpt>
      <trkpt lat="49.02932" lon="-0.46781">
        <ele>42.44</ele>
        <time>2019-09-15T12:28:46Z</time>
      </trkpt>
      <trkpt lat="49.02911" lon="-0.46777">
        <ele>42.44</ele>
        <time>2019-09-15T12:28:59Z</time>
      </trkpt>
      <trkpt lat="49.02893" lon="-0.46777">
        <ele>42.44</ele>
        <time>2019-09-15T12:29:13Z</time>
      </trkpt>
      <trkpt lat="49.02869" lon="-0.46775">
        <ele>42.44</ele>
        <time>2019-09-15T12:29:31Z</time>
      </trkpt>
      <trkpt lat="49.02843" lon="-0.46774">
        <ele>40.99</ele>
        <time>2019-09-15T12:29:48Z</time>
      </trkpt>
      <trkpt lat="49.02819" lon="-0.46774">
        <ele>40.99</ele>
        <time>2019-09-15T12:30:05Z</time>
      </trkpt>
      <trkpt lat="49.02787" lon="-0.46776">
        <ele>40.99</ele>
        <time>2019-09-15T12:30:27Z</time>
      </trkpt>
      <trkpt lat="49.02773" lon="-0.46776">
        <ele>40.99</ele>
        <time>2019-09-15T12:30:36Z</time>
      </trkpt>
      <trkpt lat="49.02762" lon="-0.46777">
        <ele>40.51</ele>
        <time>2019-09-15T12:30:52Z</time>
      </trkpt>
      <trkpt lat="49.0276" lon="-0.46776">
        <ele>40.03</ele>
        <time>2019-09-15T12:31:21Z</time>
      </trkpt>
      <trkpt lat="49.02748" lon="-0.46777">
        <ele>39.55</ele>
        <time>2019-09-15T12:31:33Z</time>
      </trkpt>
      <trkpt lat="49.02736" lon="-0.46777">
        <ele>39.55</ele>
        <time>2019-09-15T12:31:49Z</time>
      </trkpt>
      <trkpt lat="49.02735" lon="-0.46777">
        <ele>40.51</ele>
        <time>2019-09-15T12:32:00Z</time>
      </trkpt>
      <trkpt lat="49.02727" lon="-0.46779">
        <ele>41.47</ele>
        <time>2019-09-15T12:32:09Z</time>
      </trkpt>
      <trkpt lat="49.02706" lon="-0.46777">
        <ele>42.44</ele>
        <time>2019-09-15T12:32:23Z</time>
      </trkpt>
      <trkpt lat="49.02697" lon="-0.46774">
        <ele>42.44</ele>
        <time>2019-09-15T12:32:31Z</time>
      </trkpt>
      <trkpt lat="49.02692" lon="-0.46774">
        <ele>42.44</ele>
        <time>2019-09-15T12:32:34Z</time>
      </trkpt>
      <trkpt lat="49.02668" lon="-0.46772">
        <ele>41.95</ele>
        <time>2019-09-15T12:32:50Z</time>
      </trkpt>
      <trkpt lat="49.02642" lon="-0.46774">
        <ele>40.51</ele>
        <time>2019-09-15T12:33:09Z</time>
      </trkpt>
      <trkpt lat="49.0263" lon="-0.46771">
        <ele>40.51</ele>
        <time>2019-09-15T12:33:19Z</time>
      </trkpt>
      <trkpt lat="49.02617" lon="-0.46793">
        <ele>43.88</ele>
        <time>2019-09-15T12:33:36Z</time>
      </trkpt>
      <trkpt lat="49.02608" lon="-0.4681">
        <ele>45.8</ele>
        <time>2019-09-15T12:33:52Z</time>
      </trkpt>
      <trkpt lat="49.02598" lon="-0.46827">
        <ele>47.72</ele>
        <time>2019-09-15T12:34:07Z</time>
      </trkpt>
      <trkpt lat="49.02588" lon="-0.46847">
        <ele>50.13</ele>
        <time>2019-09-15T12:34:22Z</time>
      </trkpt>
      <trkpt lat="49.02569" lon="-0.46868">
        <ele>52.53</ele>
        <time>2019-09-15T12:34:40Z</time>
      </trkpt>
      <trkpt lat="49.02552" lon="-0.46869">
        <ele>51.09</ele>
        <time>2019-09-15T12:34:53Z</time>
      </trkpt>
      <trkpt lat="49.02545" lon="-0.46869">
        <ele>50.13</ele>
        <time>2019-09-15T12:34:59Z</time>
      </trkpt>
      <trkpt lat="49.02531" lon="-0.46857">
        <ele>50.13</ele>
        <time>2019-09-15T12:35:14Z</time>
      </trkpt>
      <trkpt lat="49.02529" lon="-0.46855">
        <ele>50.13</ele>
        <time>2019-09-15T12:35:16Z</time>
      </trkpt>
      <trkpt lat="49.02518" lon="-0.46842">
        <ele>50.13</ele>
        <time>2019-09-15T12:35:29Z</time>
      </trkpt>
      <trkpt lat="49.02502" lon="-0.46825">
        <ele>48.68</ele>
        <time>2019-09-15T12:35:44Z</time>
      </trkpt>
      <trkpt lat="49.02485" lon="-0.46804">
        <ele>46.76</ele>
        <time>2019-09-15T12:35:58Z</time>
      </trkpt>
      <trkpt lat="49.02482" lon="-0.46802">
        <ele>46.28</ele>
        <time>2019-09-15T12:36:00Z</time>
      </trkpt>
      <trkpt lat="49.02473" lon="-0.46793">
        <ele>44.84</ele>
        <time>2019-09-15T12:36:10Z</time>
      </trkpt>
      <trkpt lat="49.02465" lon="-0.46788">
        <ele>43.4</ele>
        <time>2019-09-15T12:36:16Z</time>
      </trkpt>
      <trkpt lat="49.02444" lon="-0.46773">
        <ele>42.92</ele>
        <time>2019-09-15T12:36:30Z</time>
      </trkpt>
      <trkpt lat="49.02444" lon="-0.46764">
        <ele>42.44</ele>
        <time>2019-09-15T12:36:36Z</time>
      </trkpt>
      <trkpt lat="49.02449" lon="-0.46753">
        <ele>39.55</ele>
        <time>2019-09-15T12:36:47Z</time>
      </trkpt>
      <trkpt lat="49.02456" lon="-0.46739">
        <ele>37.15</ele>
        <time>2019-09-15T12:36:59Z</time>
      </trkpt>
      <trkpt lat="49.02458" lon="-0.46726">
        <ele>36.19</ele>
        <time>2019-09-15T12:37:08Z</time>
      </trkpt>
      <trkpt lat="49.02463" lon="-0.46702">
        <ele>35.71</ele>
        <time>2019-09-15T12:37:20Z</time>
      </trkpt>
      <trkpt lat="49.0245" lon="-0.46687">
        <ele>35.23</ele>
        <time>2019-09-15T12:37:36Z</time>
      </trkpt>
      <trkpt lat="49.02433" lon="-0.46678">
        <ele>36.67</ele>
        <time>2019-09-15T12:37:51Z</time>
      </trkpt>
      <trkpt lat="49.02413" lon="-0.46673">
        <ele>36.67</ele>
        <time>2019-09-15T12:38:04Z</time>
      </trkpt>
      <trkpt lat="49.02391" lon="-0.46674">
        <ele>35.23</ele>
        <time>2019-09-15T12:38:19Z</time>
      </trkpt>
      <trkpt lat="49.0237" lon="-0.46675">
        <ele>34.74</ele>
        <time>2019-09-15T12:38:36Z</time>
      </trkpt>
      <trkpt lat="49.0235" lon="-0.4668">
        <ele>34.74</ele>
        <time>2019-09-15T12:38:50Z</time>
      </trkpt>
      <trkpt lat="49.02337" lon="-0.46685">
        <ele>34.26</ele>
        <time>2019-09-15T12:39:01Z</time>
      </trkpt>
      <trkpt lat="49.02333" lon="-0.46689">
        <ele>34.26</ele>
        <time>2019-09-15T12:39:05Z</time>
      </trkpt>
      <trkpt lat="49.02317" lon="-0.46696">
        <ele>33.3</ele>
        <time>2019-09-15T12:39:20Z</time>
      </trkpt>
      <trkpt lat="49.0231" lon="-0.46698">
        <ele>30.42</ele>
        <time>2019-09-15T12:39:28Z</time>
      </trkpt>
      <trkpt lat="49.02304" lon="-0.46702">
        <ele>29.46</ele>
        <time>2019-09-15T12:39:33Z</time>
      </trkpt>
      <trkpt lat="49.02289" lon="-0.46688">
        <ele>29.94</ele>
        <time>2019-09-15T12:39:49Z</time>
      </trkpt>
      <trkpt lat="49.02285" lon="-0.46687">
        <ele>30.42</ele>
        <time>2019-09-15T12:39:52Z</time>
      </trkpt>
      <trkpt lat="49.02265" lon="-0.46689">
        <ele>28.98</ele>
        <time>2019-09-15T12:40:08Z</time>
      </trkpt>
      <trkpt lat="49.02244" lon="-0.46688">
        <ele>28.5</ele>
        <time>2019-09-15T12:40:23Z</time>
      </trkpt>
      <trkpt lat="49.02231" lon="-0.46692">
        <ele>28.02</ele>
        <time>2019-09-15T12:40:33Z</time>
      </trkpt>
      <trkpt lat="49.02207" lon="-0.46698">
        <ele>27.53</ele>
        <time>2019-09-15T12:40:50Z</time>
      </trkpt>
      <trkpt lat="49.0219" lon="-0.46701">
        <ele>27.53</ele>
        <time>2019-09-15T12:41:03Z</time>
      </trkpt>
      <trkpt lat="49.02171" lon="-0.46707">
        <ele>28.98</ele>
        <time>2019-09-15T12:41:17Z</time>
      </trkpt>
      <trkpt lat="49.02151" lon="-0.46718">
        <ele>29.94</ele>
        <time>2019-09-15T12:41:32Z</time>
      </trkpt>
      <trkpt lat="49.02137" lon="-0.46726">
        <ele>30.9</ele>
        <time>2019-09-15T12:41:46Z</time>
      </trkpt>
      <trkpt lat="49.02133" lon="-0.46727">
        <ele>30.9</ele>
        <time>2019-09-15T12:41:50Z</time>
      </trkpt>
      <trkpt lat="49.02116" lon="-0.46744">
        <ele>31.38</ele>
        <time>2019-09-15T12:42:05Z</time>
      </trkpt>
      <trkpt lat="49.02104" lon="-0.46761">
        <ele>33.3</ele>
        <time>2019-09-15T12:42:19Z</time>
      </trkpt>
      <trkpt lat="49.02096" lon="-0.4677">
        <ele>35.23</ele>
        <time>2019-09-15T12:42:33Z</time>
      </trkpt>
      <trkpt lat="49.02091" lon="-0.46776">
        <ele>36.19</ele>
        <time>2019-09-15T12:42:38Z</time>
      </trkpt>
      <trkpt lat="49.02072" lon="-0.46789">
        <ele>37.15</ele>
        <time>2019-09-15T12:42:54Z</time>
      </trkpt>
      <trkpt lat="49.0206" lon="-0.46796">
        <ele>37.63</ele>
        <time>2019-09-15T12:43:04Z</time>
      </trkpt>
      <trkpt lat="49.02052" lon="-0.46802">
        <ele>37.63</ele>
        <time>2019-09-15T12:43:10Z</time>
      </trkpt>
      <trkpt lat="49.02038" lon="-0.4682">
        <ele>38.11</ele>
        <time>2019-09-15T12:43:25Z</time>
      </trkpt>
      <trkpt lat="49.02023" lon="-0.46841">
        <ele>39.55</ele>
        <time>2019-09-15T12:43:41Z</time>
      </trkpt>
      <trkpt lat="49.02004" lon="-0.4686">
        <ele>40.51</ele>
        <time>2019-09-15T12:43:57Z</time>
      </trkpt>
      <trkpt lat="49.01992" lon="-0.46868">
        <ele>40.51</ele>
        <time>2019-09-15T12:44:12Z</time>
      </trkpt>
      <trkpt lat="49.01995" lon="-0.46869">
        <ele>41.47</ele>
        <time>2019-09-15T12:44:33Z</time>
      </trkpt>
      <trkpt lat="49.01995" lon="-0.46869">
        <ele>40.03</ele>
        <time>2019-09-15T12:44:35Z</time>
      </trkpt>
      <trkpt lat="49.0199" lon="-0.46874">
        <ele>40.03</ele>
        <time>2019-09-15T12:44:50Z</time>
      </trkpt>
      <trkpt lat="49.01985" lon="-0.46878">
        <ele>40.03</ele>
        <time>2019-09-15T12:44:55Z</time>
      </trkpt>
      <trkpt lat="49.01979" lon="-0.46883">
        <ele>40.03</ele>
        <time>2019-09-15T12:45:00Z</time>
      </trkpt>
      <trkpt lat="49.01957" lon="-0.46893">
        <ele>39.07</ele>
        <time>2019-09-15T12:45:17Z</time>
      </trkpt>
      <trkpt lat="49.01935" lon="-0.469">
        <ele>38.11</ele>
        <time>2019-09-15T12:45:35Z</time>
      </trkpt>
      <trkpt lat="49.01917" lon="-0.46911">
        <ele>35.23</ele>
        <time>2019-09-15T12:45:52Z</time>
      </trkpt>
      <trkpt lat="49.01907" lon="-0.46932">
        <ele>34.26</ele>
        <time>2019-09-15T12:46:07Z</time>
      </trkpt>
      <trkpt lat="49.01899" lon="-0.46961">
        <ele>34.26</ele>
        <time>2019-09-15T12:46:23Z</time>
      </trkpt>
      <trkpt lat="49.01895" lon="-0.46964">
        <ele>35.23</ele>
        <time>2019-09-15T12:46:30Z</time>
      </trkpt>
      <trkpt lat="49.01885" lon="-0.46951">
        <ele>33.78</ele>
        <time>2019-09-15T12:46:40Z</time>
      </trkpt>
      <trkpt lat="49.01861" lon="-0.46932">
        <ele>31.86</ele>
        <time>2019-09-15T12:47:00Z</time>
      </trkpt>
      <trkpt lat="49.01849" lon="-0.46925">
        <ele>30.9</ele>
        <time>2019-09-15T12:47:17Z</time>
      </trkpt>
      <trkpt lat="49.01826" lon="-0.46918">
        <ele>29.94</ele>
        <time>2019-09-15T12:47:35Z</time>
      </trkpt>
      <trkpt lat="49.01802" lon="-0.46923">
        <ele>28.5</ele>
        <time>2019-09-15T12:47:53Z</time>
      </trkpt>
      <trkpt lat="49.01784" lon="-0.46929">
        <ele>28.02</ele>
        <time>2019-09-15T12:48:07Z</time>
      </trkpt>
      <trkpt lat="49.01779" lon="-0.46934">
        <ele>27.05</ele>
        <time>2019-09-15T12:48:20Z</time>
      </trkpt>
      <trkpt lat="49.01768" lon="-0.46942">
        <ele>26.57</ele>
        <time>2019-09-15T12:48:34Z</time>
      </trkpt>
      <trkpt lat="49.01754" lon="-0.46951">
        <ele>26.57</ele>
        <time>2019-09-15T12:48:45Z</time>
      </trkpt>
      <trkpt lat="49.01745" lon="-0.46956">
        <ele>26.09</ele>
        <time>2019-09-15T12:48:52Z</time>
      </trkpt>
      <trkpt lat="49.01721" lon="-0.46973">
        <ele>25.61</ele>
        <time>2019-09-15T12:49:14Z</time>
      </trkpt>
      <trkpt lat="49.01715" lon="-0.46983">
        <ele>25.13</ele>
        <time>2019-09-15T12:49:22Z</time>
      </trkpt>
      <trkpt lat="49.01704" lon="-0.47003">
        <ele>25.13</ele>
        <time>2019-09-15T12:49:37Z</time>
      </trkpt>
      <trkpt lat="49.017" lon="-0.47008">
        <ele>25.13</ele>
        <time>2019-09-15T12:49:41Z</time>
      </trkpt>
      <trkpt lat="49.01697" lon="-0.47015">
        <ele>25.13</ele>
        <time>2019-09-15T12:49:48Z</time>
      </trkpt>
      <trkpt lat="49.01683" lon="-0.47034">
        <ele>25.13</ele>
        <time>2019-09-15T12:50:03Z</time>
      </trkpt>
      <trkpt lat="49.01667" lon="-0.47059">
        <ele>25.13</ele>
        <time>2019-09-15T12:50:19Z</time>
      </trkpt>
      <trkpt lat="49.01649" lon="-0.4708">
        <ele>25.13</ele>
        <time>2019-09-15T12:50:35Z</time>
      </trkpt>
      <trkpt lat="49.01637" lon="-0.47095">
        <ele>24.65</ele>
        <time>2019-09-15T12:50:47Z</time>
      </trkpt>
      <trkpt lat="49.01617" lon="-0.47112">
        <ele>26.09</ele>
        <time>2019-09-15T12:51:03Z</time>
      </trkpt>
      <trkpt lat="49.01602" lon="-0.47123">
        <ele>26.09</ele>
        <time>2019-09-15T12:51:15Z</time>
      </trkpt>
      <trkpt lat="49.01591" lon="-0.47143">
        <ele>25.61</ele>
        <time>2019-09-15T12:51:29Z</time>
      </trkpt>
      <trkpt lat="49.01583" lon="-0.47154">
        <ele>25.61</ele>
        <time>2019-09-15T12:51:39Z</time>
      </trkpt>
      <trkpt lat="49.01578" lon="-0.4716">
        <ele>25.61</ele>
        <time>2019-09-15T12:51:44Z</time>
      </trkpt>
      <trkpt lat="49.01565" lon="-0.47177">
        <ele>26.09</ele>
        <time>2019-09-15T12:51:56Z</time>
      </trkpt>
      <trkpt lat="49.01559" lon="-0.47184">
        <ele>26.09</ele>
        <time>2019-09-15T12:52:01Z</time>
      </trkpt>
      <trkpt lat="49.01539" lon="-0.47213">
        <ele>26.09</ele>
        <time>2019-09-15T12:52:20Z</time>
      </trkpt>
      <trkpt lat="49.01522" lon="-0.47237">
        <ele>26.09</ele>
        <time>2019-09-15T12:52:37Z</time>
      </trkpt>
      <trkpt lat="49.01505" lon="-0.47261">
        <ele>26.09</ele>
        <time>2019-09-15T12:52:54Z</time>
      </trkpt>
      <trkpt lat="49.01489" lon="-0.47284">
        <ele>26.09</ele>
        <time>2019-09-15T12:53:12Z</time>
      </trkpt>
      <trkpt lat="49.01474" lon="-0.47307">
        <ele>26.09</ele>
        <time>2019-09-15T12:53:28Z</time>
      </trkpt>
      <trkpt lat="49.01458" lon="-0.47337">
        <ele>26.57</ele>
        <time>2019-09-15T12:53:47Z</time>
      </trkpt>
      <trkpt lat="49.01445" lon="-0.47365">
        <ele>27.53</ele>
        <time>2019-09-15T12:54:05Z</time>
      </trkpt>
      <trkpt lat="49.01438" lon="-0.47379">
        <ele>28.02</ele>
        <time>2019-09-15T12:54:14Z</time>
      </trkpt>
      <trkpt lat="49.01431" lon="-0.47403">
        <ele>28.5</ele>
        <time>2019-09-15T12:54:27Z</time>
      </trkpt>
      <trkpt lat="49.01415" lon="-0.47431">
        <ele>29.46</ele>
        <time>2019-09-15T12:54:44Z</time>
      </trkpt>
      <trkpt lat="49.01407" lon="-0.47441">
        <ele>28.02</ele>
        <time>2019-09-15T12:54:52Z</time>
      </trkpt>
      <trkpt lat="49.01394" lon="-0.47449">
        <ele>26.57</ele>
        <time>2019-09-15T12:55:03Z</time>
      </trkpt>
      <trkpt lat="49.01381" lon="-0.4746">
        <ele>25.13</ele>
        <time>2019-09-15T12:55:14Z</time>
      </trkpt>
      <trkpt lat="49.01363" lon="-0.47462">
        <ele>24.17</ele>
        <time>2019-09-15T12:55:28Z</time>
      </trkpt>
      <trkpt lat="49.01345" lon="-0.47469">
        <ele>24.17</ele>
        <time>2019-09-15T12:55:42Z</time>
      </trkpt>
      <trkpt lat="49.01344" lon="-0.47469">
        <ele>24.17</ele>
        <time>2019-09-15T12:55:43Z</time>
      </trkpt>
      <trkpt lat="49.01336" lon="-0.47478">
        <ele>24.17</ele>
        <time>2019-09-15T12:55:57Z</time>
      </trkpt>
      <trkpt lat="49.01334" lon="-0.47484">
        <ele>23.21</ele>
        <time>2019-09-15T12:56:13Z</time>
      </trkpt>
      <trkpt lat="49.01335" lon="-0.47482">
        <ele>23.21</ele>
        <time>2019-09-15T12:56:34Z</time>
      </trkpt>
      <trkpt lat="49.01334" lon="-0.47481">
        <ele>23.21</ele>
        <time>2019-09-15T12:57:04Z</time>
      </trkpt>
      <trkpt lat="49.01333" lon="-0.47478">
        <ele>23.21</ele>
        <time>2019-09-15T12:57:36Z</time>
      </trkpt>
      <trkpt lat="49.01332" lon="-0.47472">
        <ele>23.21</ele>
        <time>2019-09-15T12:58:00Z</time>
      </trkpt>
      <trkpt lat="49.01334" lon="-0.47474">
        <ele>23.21</ele>
        <time>2019-09-15T12:58:28Z</time>
      </trkpt>
      <trkpt lat="49.01334" lon="-0.4748">
        <ele>23.21</ele>
        <time>2019-09-15T12:59:04Z</time>
      </trkpt>
      <trkpt lat="49.01334" lon="-0.4748">
        <ele>25.13</ele>
        <time>2019-09-15T12:59:21Z</time>
      </trkpt>
      <trkpt lat="49.01333" lon="-0.47482">
        <ele>25.13</ele>
        <time>2019-09-15T12:59:34Z</time>
      </trkpt>
      <trkpt lat="49.01333" lon="-0.47483">
        <ele>25.61</ele>
        <time>2019-09-15T12:59:55Z</time>
      </trkpt>
      <trkpt lat="49.01326" lon="-0.47481">
        <ele>25.61</ele>
        <time>2019-09-15T13:00:16Z</time>
      </trkpt>
      <trkpt lat="49.01325" lon="-0.47482">
        <ele>25.61</ele>
        <time>2019-09-15T13:00:17Z</time>
      </trkpt>
      <trkpt lat="49.01322" lon="-0.47485">
        <ele>25.61</ele>
        <time>2019-09-15T13:00:21Z</time>
      </trkpt>
      <trkpt lat="49.01319" lon="-0.47487">
        <ele>25.61</ele>
        <time>2019-09-15T13:00:24Z</time>
      </trkpt>
      <trkpt lat="49.01316" lon="-0.47489">
        <ele>25.61</ele>
        <time>2019-09-15T13:00:26Z</time>
      </trkpt>
      <trkpt lat="49.01297" lon="-0.47499">
        <ele>25.61</ele>
        <time>2019-09-15T13:00:43Z</time>
      </trkpt>
      <trkpt lat="49.01281" lon="-0.47506">
        <ele>25.61</ele>
        <time>2019-09-15T13:00:54Z</time>
      </trkpt>
      <trkpt lat="49.01269" lon="-0.47514">
        <ele>26.09</ele>
        <time>2019-09-15T13:01:10Z</time>
      </trkpt>
      <trkpt lat="49.01267" lon="-0.47518">
        <ele>26.09</ele>
        <time>2019-09-15T13:01:30Z</time>
      </trkpt>
      <trkpt lat="49.01265" lon="-0.47532">
        <ele>26.57</ele>
        <time>2019-09-15T13:01:42Z</time>
      </trkpt>
      <trkpt lat="49.01263" lon="-0.47535">
        <ele>26.57</ele>
        <time>2019-09-15T13:01:44Z</time>
      </trkpt>
      <trkpt lat="49.01259" lon="-0.47566">
        <ele>27.53</ele>
        <time>2019-09-15T13:01:59Z</time>
      </trkpt>
      <trkpt lat="49.01259" lon="-0.4759">
        <ele>27.53</ele>
        <time>2019-09-15T13:02:12Z</time>
      </trkpt>
      <trkpt lat="49.01259" lon="-0.47593">
        <ele>27.53</ele>
        <time>2019-09-15T13:02:14Z</time>
      </trkpt>
      <trkpt lat="49.01259" lon="-0.47596">
        <ele>28.02</ele>
        <time>2019-09-15T13:02:16Z</time>
      </trkpt>
      <trkpt lat="49.0126" lon="-0.47629">
        <ele>28.5</ele>
        <time>2019-09-15T13:02:33Z</time>
      </trkpt>
      <trkpt lat="49.0126" lon="-0.47633">
        <ele>28.98</ele>
        <time>2019-09-15T13:02:35Z</time>
      </trkpt>
      <trkpt lat="49.01258" lon="-0.47662">
        <ele>29.94</ele>
        <time>2019-09-15T13:02:49Z</time>
      </trkpt>
      <trkpt lat="49.01258" lon="-0.47692">
        <ele>30.9</ele>
        <time>2019-09-15T13:03:03Z</time>
      </trkpt>
      <trkpt lat="49.01258" lon="-0.47699">
        <ele>31.38</ele>
        <time>2019-09-15T13:03:07Z</time>
      </trkpt>
      <trkpt lat="49.01256" lon="-0.47729">
        <ele>32.82</ele>
        <time>2019-09-15T13:03:22Z</time>
      </trkpt>
      <trkpt lat="49.01257" lon="-0.47737">
        <ele>32.82</ele>
        <time>2019-09-15T13:03:26Z</time>
      </trkpt>
      <trkpt lat="49.01261" lon="-0.47754">
        <ele>33.3</ele>
        <time>2019-09-15T13:03:34Z</time>
      </trkpt>
      <trkpt lat="49.01263" lon="-0.47761">
        <ele>33.78</ele>
        <time>2019-09-15T13:03:38Z</time>
      </trkpt>
      <trkpt lat="49.01278" lon="-0.47784">
        <ele>33.78</ele>
        <time>2019-09-15T13:03:53Z</time>
      </trkpt>
      <trkpt lat="49.0129" lon="-0.47806">
        <ele>33.78</ele>
        <time>2019-09-15T13:04:06Z</time>
      </trkpt>
      <trkpt lat="49.01294" lon="-0.47811">
        <ele>33.78</ele>
        <time>2019-09-15T13:04:10Z</time>
      </trkpt>
      <trkpt lat="49.01297" lon="-0.47815">
        <ele>33.78</ele>
        <time>2019-09-15T13:04:13Z</time>
      </trkpt>
      <trkpt lat="49.01306" lon="-0.47834">
        <ele>34.26</ele>
        <time>2019-09-15T13:04:25Z</time>
      </trkpt>
      <trkpt lat="49.01313" lon="-0.47846">
        <ele>34.26</ele>
        <time>2019-09-15T13:04:32Z</time>
      </trkpt>
      <trkpt lat="49.01324" lon="-0.47866">
        <ele>35.23</ele>
        <time>2019-09-15T13:04:46Z</time>
      </trkpt>
      <trkpt lat="49.01331" lon="-0.47882">
        <ele>35.71</ele>
        <time>2019-09-15T13:04:57Z</time>
      </trkpt>
      <trkpt lat="49.01341" lon="-0.47907">
        <ele>37.15</ele>
        <time>2019-09-15T13:05:12Z</time>
      </trkpt>
      <trkpt lat="49.01354" lon="-0.47933">
        <ele>38.59</ele>
        <time>2019-09-15T13:05:28Z</time>
      </trkpt>
      <trkpt lat="49.0136" lon="-0.4794">
        <ele>39.07</ele>
        <time>2019-09-15T13:05:34Z</time>
      </trkpt>
      <trkpt lat="49.01368" lon="-0.47956">
        <ele>39.07</ele>
        <time>2019-09-15T13:05:44Z</time>
      </trkpt>
      <trkpt lat="49.01371" lon="-0.47964">
        <ele>39.07</ele>
        <time>2019-09-15T13:05:48Z</time>
      </trkpt>
      <trkpt lat="49.01372" lon="-0.4797">
        <ele>39.07</ele>
        <time>2019-09-15T13:05:51Z</time>
      </trkpt>
      <trkpt lat="49.01375" lon="-0.4798">
        <ele>39.07</ele>
        <time>2019-09-15T13:05:56Z</time>
      </trkpt>
      <trkpt lat="49.01377" lon="-0.47984">
        <ele>39.07</ele>
        <time>2019-09-15T13:05:58Z</time>
      </trkpt>
      <trkpt lat="49.01385" lon="-0.48001">
        <ele>39.07</ele>
        <time>2019-09-15T13:06:09Z</time>
      </trkpt>
      <trkpt lat="49.01386" lon="-0.48019">
        <ele>38.59</ele>
        <time>2019-09-15T13:06:22Z</time>
      </trkpt>
      <trkpt lat="49.01385" lon="-0.48018">
        <ele>38.59</ele>
        <time>2019-09-15T13:06:30Z</time>
      </trkpt>
      <trkpt lat="49.01387" lon="-0.48038">
        <ele>38.59</ele>
        <time>2019-09-15T13:06:40Z</time>
      </trkpt>
      <trkpt lat="49.01394" lon="-0.48067">
        <ele>38.59</ele>
        <time>2019-09-15T13:06:54Z</time>
      </trkpt>
      <trkpt lat="49.01403" lon="-0.48092">
        <ele>39.55</ele>
        <time>2019-09-15T13:07:09Z</time>
      </trkpt>
      <trkpt lat="49.01404" lon="-0.48109">
        <ele>39.55</ele>
        <time>2019-09-15T13:07:22Z</time>
      </trkpt>
      <trkpt lat="49.01411" lon="-0.48124">
        <ele>39.55</ele>
        <time>2019-09-15T13:07:32Z</time>
      </trkpt>
      <trkpt lat="49.01417" lon="-0.48143">
        <ele>40.99</ele>
        <time>2019-09-15T13:07:46Z</time>
      </trkpt>
      <trkpt lat="49.01418" lon="-0.48153">
        <ele>43.4</ele>
        <time>2019-09-15T13:07:59Z</time>
      </trkpt>
      <trkpt lat="49.01418" lon="-0.48159">
        <ele>45.8</ele>
        <time>2019-09-15T13:08:11Z</time>
      </trkpt>
      <trkpt lat="49.01414" lon="-0.48168">
        <ele>45.8</ele>
        <time>2019-09-15T13:08:24Z</time>
      </trkpt>
      <trkpt lat="49.01417" lon="-0.48165">
        <ele>46.28</ele>
        <time>2019-09-15T13:08:43Z</time>
      </trkpt>
      <trkpt lat="49.01413" lon="-0.48176">
        <ele>46.28</ele>
        <time>2019-09-15T13:08:51Z</time>
      </trkpt>
      <trkpt lat="49.01406" lon="-0.48201">
        <ele>46.28</ele>
        <time>2019-09-15T13:09:08Z</time>
      </trkpt>
      <trkpt lat="49.01392" lon="-0.48238">
        <ele>44.84</ele>
        <time>2019-09-15T13:09:26Z</time>
      </trkpt>
      <trkpt lat="49.0139" lon="-0.48245">
        <ele>44.84</ele>
        <time>2019-09-15T13:09:30Z</time>
      </trkpt>
      <trkpt lat="49.01389" lon="-0.4825">
        <ele>44.84</ele>
        <time>2019-09-15T13:09:33Z</time>
      </trkpt>
      <trkpt lat="49.01383" lon="-0.48278">
        <ele>46.28</ele>
        <time>2019-09-15T13:09:48Z</time>
      </trkpt>
      <trkpt lat="49.0138" lon="-0.48303">
        <ele>46.76</ele>
        <time>2019-09-15T13:10:02Z</time>
      </trkpt>
      <trkpt lat="49.01377" lon="-0.48331">
        <ele>48.2</ele>
        <time>2019-09-15T13:10:16Z</time>
      </trkpt>
      <trkpt lat="49.01378" lon="-0.48344">
        <ele>48.2</ele>
        <time>2019-09-15T13:10:22Z</time>
      </trkpt>
      <trkpt lat="49.01379" lon="-0.48374">
        <ele>49.65</ele>
        <time>2019-09-15T13:10:37Z</time>
      </trkpt>
      <trkpt lat="49.01377" lon="-0.48404">
        <ele>50.13</ele>
        <time>2019-09-15T13:10:52Z</time>
      </trkpt>
      <trkpt lat="49.01377" lon="-0.48406">
        <ele>50.13</ele>
        <time>2019-09-15T13:10:53Z</time>
      </trkpt>
      <trkpt lat="49.01372" lon="-0.48438">
        <ele>51.57</ele>
        <time>2019-09-15T13:11:10Z</time>
      </trkpt>
      <trkpt lat="49.01371" lon="-0.48452">
        <ele>51.57</ele>
        <time>2019-09-15T13:11:18Z</time>
      </trkpt>
      <trkpt lat="49.0137" lon="-0.48483">
        <ele>52.05</ele>
        <time>2019-09-15T13:11:33Z</time>
      </trkpt>
      <trkpt lat="49.01369" lon="-0.48489">
        <ele>52.05</ele>
        <time>2019-09-15T13:11:36Z</time>
      </trkpt>
      <trkpt lat="49.0137" lon="-0.48499">
        <ele>52.53</ele>
        <time>2019-09-15T13:11:40Z</time>
      </trkpt>
      <trkpt lat="49.01368" lon="-0.48529">
        <ele>53.49</ele>
        <time>2019-09-15T13:11:55Z</time>
      </trkpt>
      <trkpt lat="49.01367" lon="-0.48549">
        <ele>53.97</ele>
        <time>2019-09-15T13:12:06Z</time>
      </trkpt>
      <trkpt lat="49.01366" lon="-0.4858">
        <ele>54.45</ele>
        <time>2019-09-15T13:12:20Z</time>
      </trkpt>
      <trkpt lat="49.01364" lon="-0.48609">
        <ele>54.93</ele>
        <time>2019-09-15T13:12:35Z</time>
      </trkpt>
      <trkpt lat="49.01364" lon="-0.48627">
        <ele>55.41</ele>
        <time>2019-09-15T13:12:49Z</time>
      </trkpt>
      <trkpt lat="49.01363" lon="-0.48644">
        <ele>55.89</ele>
        <time>2019-09-15T13:12:59Z</time>
      </trkpt>
      <trkpt lat="49.01363" lon="-0.48656">
        <ele>56.37</ele>
        <time>2019-09-15T13:13:06Z</time>
      </trkpt>
      <trkpt lat="49.01365" lon="-0.48688">
        <ele>57.34</ele>
        <time>2019-09-15T13:13:22Z</time>
      </trkpt>
      <trkpt lat="49.01369" lon="-0.48717">
        <ele>58.3</ele>
        <time>2019-09-15T13:13:37Z</time>
      </trkpt>
      <trkpt lat="49.01371" lon="-0.48741">
        <ele>58.3</ele>
        <time>2019-09-15T13:13:50Z</time>
      </trkpt>
      <trkpt lat="49.01372" lon="-0.48756">
        <ele>59.26</ele>
        <time>2019-09-15T13:13:58Z</time>
      </trkpt>
      <trkpt lat="49.01374" lon="-0.48765">
        <ele>59.26</ele>
        <time>2019-09-15T13:14:02Z</time>
      </trkpt>
      <trkpt lat="49.01378" lon="-0.48777">
        <ele>60.22</ele>
        <time>2019-09-15T13:14:09Z</time>
      </trkpt>
      <trkpt lat="49.01385" lon="-0.48801">
        <ele>61.18</ele>
        <time>2019-09-15T13:14:22Z</time>
      </trkpt>
      <trkpt lat="49.01386" lon="-0.48803">
        <ele>61.18</ele>
        <time>2019-09-15T13:14:23Z</time>
      </trkpt>
      <trkpt lat="49.01387" lon="-0.48806">
        <ele>61.66</ele>
        <time>2019-09-15T13:14:25Z</time>
      </trkpt>
      <trkpt lat="49.01389" lon="-0.48812">
        <ele>61.66</ele>
        <time>2019-09-15T13:14:28Z</time>
      </trkpt>
      <trkpt lat="49.01393" lon="-0.48832">
        <ele>62.14</ele>
        <time>2019-09-15T13:14:37Z</time>
      </trkpt>
      <trkpt lat="49.01395" lon="-0.4884">
        <ele>62.14</ele>
        <time>2019-09-15T13:14:41Z</time>
      </trkpt>
      <trkpt lat="49.01401" lon="-0.48873">
        <ele>63.1</ele>
        <time>2019-09-15T13:14:59Z</time>
      </trkpt>
      <trkpt lat="49.01401" lon="-0.48875">
        <ele>63.1</ele>
        <time>2019-09-15T13:15:00Z</time>
      </trkpt>
      <trkpt lat="49.01403" lon="-0.48913">
        <ele>64.55</ele>
        <time>2019-09-15T13:15:19Z</time>
      </trkpt>
      <trkpt lat="49.01403" lon="-0.48917">
        <ele>64.55</ele>
        <time>2019-09-15T13:15:21Z</time>
      </trkpt>
      <trkpt lat="49.01409" lon="-0.48948">
        <ele>65.99</ele>
        <time>2019-09-15T13:15:38Z</time>
      </trkpt>
      <trkpt lat="49.01412" lon="-0.48964">
        <ele>66.47</ele>
        <time>2019-09-15T13:15:47Z</time>
      </trkpt>
      <trkpt lat="49.01415" lon="-0.48978">
        <ele>66.95</ele>
        <time>2019-09-15T13:15:54Z</time>
      </trkpt>
      <trkpt lat="49.01415" lon="-0.48982">
        <ele>66.95</ele>
        <time>2019-09-15T13:15:56Z</time>
      </trkpt>
      <trkpt lat="49.01421" lon="-0.49007">
        <ele>67.43</ele>
        <time>2019-09-15T13:16:11Z</time>
      </trkpt>
      <trkpt lat="49.01424" lon="-0.49033">
        <ele>68.39</ele>
        <time>2019-09-15T13:16:24Z</time>
      </trkpt>
      <trkpt lat="49.01427" lon="-0.49047">
        <ele>68.87</ele>
        <time>2019-09-15T13:16:32Z</time>
      </trkpt>
      <trkpt lat="49.01428" lon="-0.49079">
        <ele>70.31</ele>
        <time>2019-09-15T13:16:47Z</time>
      </trkpt>
      <trkpt lat="49.01427" lon="-0.49093">
        <ele>70.79</ele>
        <time>2019-09-15T13:16:54Z</time>
      </trkpt>
      <trkpt lat="49.01424" lon="-0.49121">
        <ele>71.27</ele>
        <time>2019-09-15T13:17:08Z</time>
      </trkpt>
      <trkpt lat="49.01423" lon="-0.4915">
        <ele>72.24</ele>
        <time>2019-09-15T13:17:23Z</time>
      </trkpt>
      <trkpt lat="49.01421" lon="-0.49183">
        <ele>73.2</ele>
        <time>2019-09-15T13:17:38Z</time>
      </trkpt>
      <trkpt lat="49.0142" lon="-0.49214">
        <ele>74.16</ele>
        <time>2019-09-15T13:17:54Z</time>
      </trkpt>
      <trkpt lat="49.01418" lon="-0.49235">
        <ele>75.12</ele>
        <time>2019-09-15T13:18:05Z</time>
      </trkpt>
      <trkpt lat="49.01418" lon="-0.49239">
        <ele>75.12</ele>
        <time>2019-09-15T13:18:07Z</time>
      </trkpt>
      <trkpt lat="49.01418" lon="-0.49272">
        <ele>76.08</ele>
        <time>2019-09-15T13:18:24Z</time>
      </trkpt>
      <trkpt lat="49.01416" lon="-0.49297">
        <ele>76.56</ele>
        <time>2019-09-15T13:18:35Z</time>
      </trkpt>
      <trkpt lat="49.01414" lon="-0.49324">
        <ele>77.04</ele>
        <time>2019-09-15T13:18:49Z</time>
      </trkpt>
      <trkpt lat="49.01413" lon="-0.4935">
        <ele>77.52</ele>
        <time>2019-09-15T13:19:04Z</time>
      </trkpt>
      <trkpt lat="49.01414" lon="-0.49359">
        <ele>78</ele>
        <time>2019-09-15T13:19:09Z</time>
      </trkpt>
      <trkpt lat="49.01414" lon="-0.49367">
        <ele>78.48</ele>
        <time>2019-09-15T13:19:13Z</time>
      </trkpt>
      <trkpt lat="49.01408" lon="-0.49405">
        <ele>78.97</ele>
        <time>2019-09-15T13:19:33Z</time>
      </trkpt>
      <trkpt lat="49.01402" lon="-0.49444">
        <ele>80.89</ele>
        <time>2019-09-15T13:19:51Z</time>
      </trkpt>
      <trkpt lat="49.01392" lon="-0.49476">
        <ele>81.85</ele>
        <time>2019-09-15T13:20:08Z</time>
      </trkpt>
      <trkpt lat="49.01385" lon="-0.49506">
        <ele>82.81</ele>
        <time>2019-09-15T13:20:25Z</time>
      </trkpt>
      <trkpt lat="49.01382" lon="-0.49518">
        <ele>82.81</ele>
        <time>2019-09-15T13:20:32Z</time>
      </trkpt>
      <trkpt lat="49.01378" lon="-0.49548">
        <ele>84.25</ele>
        <time>2019-09-15T13:20:48Z</time>
      </trkpt>
      <trkpt lat="49.01373" lon="-0.49575">
        <ele>85.21</ele>
        <time>2019-09-15T13:21:03Z</time>
      </trkpt>
      <trkpt lat="49.01365" lon="-0.49605">
        <ele>85.21</ele>
        <time>2019-09-15T13:21:19Z</time>
      </trkpt>
      <trkpt lat="49.01358" lon="-0.49627">
        <ele>85.21</ele>
        <time>2019-09-15T13:21:33Z</time>
      </trkpt>
      <trkpt lat="49.01347" lon="-0.49649">
        <ele>85.69</ele>
        <time>2019-09-15T13:21:47Z</time>
      </trkpt>
      <trkpt lat="49.01336" lon="-0.4967">
        <ele>86.18</ele>
        <time>2019-09-15T13:22:02Z</time>
      </trkpt>
      <trkpt lat="49.01328" lon="-0.49676">
        <ele>87.62</ele>
        <time>2019-09-15T13:22:17Z</time>
      </trkpt>
      <trkpt lat="49.01333" lon="-0.49675">
        <ele>87.62</ele>
        <time>2019-09-15T13:22:40Z</time>
      </trkpt>
      <trkpt lat="49.0134" lon="-0.49658">
        <ele>87.62</ele>
        <time>2019-09-15T13:22:56Z</time>
      </trkpt>
      <trkpt lat="49.01341" lon="-0.49654">
        <ele>87.62</ele>
        <time>2019-09-15T13:22:59Z</time>
      </trkpt>
      <trkpt lat="49.01343" lon="-0.49636">
        <ele>88.1</ele>
        <time>2019-09-15T13:23:16Z</time>
      </trkpt>
      <trkpt lat="49.01346" lon="-0.49604">
        <ele>90.02</ele>
        <time>2019-09-15T13:23:33Z</time>
      </trkpt>
      <trkpt lat="49.01346" lon="-0.49585">
        <ele>90.98</ele>
        <time>2019-09-15T13:23:46Z</time>
      </trkpt>
      <trkpt lat="49.01344" lon="-0.49551">
        <ele>93.39</ele>
        <time>2019-09-15T13:24:04Z</time>
      </trkpt>
      <trkpt lat="49.01338" lon="-0.49527">
        <ele>95.31</ele>
        <time>2019-09-15T13:24:21Z</time>
      </trkpt>
      <trkpt lat="49.01327" lon="-0.49508">
        <ele>96.27</ele>
        <time>2019-09-15T13:24:31Z</time>
      </trkpt>
      <trkpt lat="49.0131" lon="-0.49484">
        <ele>98.19</ele>
        <time>2019-09-15T13:24:48Z</time>
      </trkpt>
      <trkpt lat="49.01297" lon="-0.49467">
        <ele>100.11</ele>
        <time>2019-09-15T13:25:03Z</time>
      </trkpt>
      <trkpt lat="49.01282" lon="-0.49445">
        <ele>101.56</ele>
        <time>2019-09-15T13:25:20Z</time>
      </trkpt>
      <trkpt lat="49.01269" lon="-0.49425">
        <ele>102.52</ele>
        <time>2019-09-15T13:25:35Z</time>
      </trkpt>
      <trkpt lat="49.01252" lon="-0.49397">
        <ele>103.48</ele>
        <time>2019-09-15T13:25:54Z</time>
      </trkpt>
      <trkpt lat="49.01239" lon="-0.49369">
        <ele>104.92</ele>
        <time>2019-09-15T13:26:11Z</time>
      </trkpt>
      <trkpt lat="49.01226" lon="-0.49345">
        <ele>105.4</ele>
        <time>2019-09-15T13:26:26Z</time>
      </trkpt>
      <trkpt lat="49.01221" lon="-0.49335">
        <ele>105.88</ele>
        <time>2019-09-15T13:26:33Z</time>
      </trkpt>
      <trkpt lat="49.01218" lon="-0.49331">
        <ele>106.36</ele>
        <time>2019-09-15T13:26:36Z</time>
      </trkpt>
      <trkpt lat="49.01204" lon="-0.49304">
        <ele>106.84</ele>
        <time>2019-09-15T13:26:53Z</time>
      </trkpt>
      <trkpt lat="49.0119" lon="-0.49279">
        <ele>107.81</ele>
        <time>2019-09-15T13:27:09Z</time>
      </trkpt>
      <trkpt lat="49.01179" lon="-0.49259">
        <ele>108.77</ele>
        <time>2019-09-15T13:27:23Z</time>
      </trkpt>
      <trkpt lat="49.01164" lon="-0.49242">
        <ele>109.25</ele>
        <time>2019-09-15T13:27:37Z</time>
      </trkpt>
      <trkpt lat="49.01163" lon="-0.49241">
        <ele>109.25</ele>
        <time>2019-09-15T13:27:38Z</time>
      </trkpt>
      <trkpt lat="49.01146" lon="-0.4922">
        <ele>110.21</ele>
        <time>2019-09-15T13:27:54Z</time>
      </trkpt>
      <trkpt lat="49.01132" lon="-0.49209">
        <ele>111.17</ele>
        <time>2019-09-15T13:28:07Z</time>
      </trkpt>
      <trkpt lat="49.01117" lon="-0.49195">
        <ele>111.65</ele>
        <time>2019-09-15T13:28:21Z</time>
      </trkpt>
      <trkpt lat="49.01099" lon="-0.49181">
        <ele>113.57</ele>
        <time>2019-09-15T13:28:37Z</time>
      </trkpt>
      <trkpt lat="49.01081" lon="-0.4917">
        <ele>114.53</ele>
        <time>2019-09-15T13:28:53Z</time>
      </trkpt>
      <trkpt lat="49.0106" lon="-0.49158">
        <ele>115.5</ele>
        <time>2019-09-15T13:29:09Z</time>
      </trkpt>
      <trkpt lat="49.01046" lon="-0.49147">
        <ele>116.94</ele>
        <time>2019-09-15T13:29:22Z</time>
      </trkpt>
      <trkpt lat="49.0104" lon="-0.49144">
        <ele>117.42</ele>
        <time>2019-09-15T13:29:27Z</time>
      </trkpt>
      <trkpt lat="49.01015" lon="-0.49132">
        <ele>118.86</ele>
        <time>2019-09-15T13:29:47Z</time>
      </trkpt>
      <trkpt lat="49.00995" lon="-0.49126">
        <ele>120.3</ele>
        <time>2019-09-15T13:30:04Z</time>
      </trkpt>
      <trkpt lat="49.00983" lon="-0.49117">
        <ele>120.78</ele>
        <time>2019-09-15T13:30:19Z</time>
      </trkpt>
      <trkpt lat="49.0098" lon="-0.49113">
        <ele>121.26</ele>
        <time>2019-09-15T13:30:43Z</time>
      </trkpt>
      <trkpt lat="49.0096" lon="-0.49103">
        <ele>122.71</ele>
        <time>2019-09-15T13:31:00Z</time>
      </trkpt>
      <trkpt lat="49.00942" lon="-0.4908">
        <ele>124.15</ele>
        <time>2019-09-15T13:31:19Z</time>
      </trkpt>
      <trkpt lat="49.00914" lon="-0.49069">
        <ele>125.11</ele>
        <time>2019-09-15T13:31:41Z</time>
      </trkpt>
      <trkpt lat="49.00888" lon="-0.49067">
        <ele>127.51</ele>
        <time>2019-09-15T13:32:02Z</time>
      </trkpt>
      <trkpt lat="49.00863" lon="-0.49062">
        <ele>129.43</ele>
        <time>2019-09-15T13:32:23Z</time>
      </trkpt>
      <trkpt lat="49.00851" lon="-0.49061">
        <ele>130.88</ele>
        <time>2019-09-15T13:32:39Z</time>
      </trkpt>
      <trkpt lat="49.00851" lon="-0.4906">
        <ele>130.88</ele>
        <time>2019-09-15T13:33:00Z</time>
      </trkpt>
      <trkpt lat="49.00839" lon="-0.49056">
        <ele>131.36</ele>
        <time>2019-09-15T13:33:14Z</time>
      </trkpt>
      <trkpt lat="49.00813" lon="-0.49053">
        <ele>132.32</ele>
        <time>2019-09-15T13:33:36Z</time>
      </trkpt>
      <trkpt lat="49.00786" lon="-0.49051">
        <ele>133.76</ele>
        <time>2019-09-15T13:33:57Z</time>
      </trkpt>
      <trkpt lat="49.00779" lon="-0.4905">
        <ele>134.24</ele>
        <time>2019-09-15T13:34:03Z</time>
      </trkpt>
      <trkpt lat="49.00753" lon="-0.49048">
        <ele>135.2</ele>
        <time>2019-09-15T13:34:24Z</time>
      </trkpt>
      <trkpt lat="49.00724" lon="-0.49048">
        <ele>135.68</ele>
        <time>2019-09-15T13:34:46Z</time>
      </trkpt>
      <trkpt lat="49.00692" lon="-0.49049">
        <ele>136.16</ele>
        <time>2019-09-15T13:35:10Z</time>
      </trkpt>
      <trkpt lat="49.0066" lon="-0.49044">
        <ele>136.16</ele>
        <time>2019-09-15T13:35:34Z</time>
      </trkpt>
      <trkpt lat="49.00634" lon="-0.4904">
        <ele>136.16</ele>
        <time>2019-09-15T13:35:54Z</time>
      </trkpt>
      <trkpt lat="49.00611" lon="-0.49035">
        <ele>136.16</ele>
        <time>2019-09-15T13:36:11Z</time>
      </trkpt>
      <trkpt lat="49.00583" lon="-0.49026">
        <ele>136.16</ele>
        <time>2019-09-15T13:36:33Z</time>
      </trkpt>
      <trkpt lat="49.00562" lon="-0.49017">
        <ele>136.16</ele>
        <time>2019-09-15T13:36:50Z</time>
      </trkpt>
      <trkpt lat="49.00535" lon="-0.49001">
        <ele>136.16</ele>
        <time>2019-09-15T13:37:11Z</time>
      </trkpt>
      <trkpt lat="49.00512" lon="-0.48984">
        <ele>136.16</ele>
        <time>2019-09-15T13:37:31Z</time>
      </trkpt>
      <trkpt lat="49.00495" lon="-0.48966">
        <ele>136.16</ele>
        <time>2019-09-15T13:37:50Z</time>
      </trkpt>
      <trkpt lat="49.00494" lon="-0.48966">
        <ele>136.16</ele>
        <time>2019-09-15T13:38:04Z</time>
      </trkpt>
      <trkpt lat="49.00475" lon="-0.48966">
        <ele>136.16</ele>
        <time>2019-09-15T13:38:21Z</time>
      </trkpt>
      <trkpt lat="49.00456" lon="-0.48973">
        <ele>135.2</ele>
        <time>2019-09-15T13:38:36Z</time>
      </trkpt>
      <trkpt lat="49.00434" lon="-0.48983">
        <ele>132.8</ele>
        <time>2019-09-15T13:38:54Z</time>
      </trkpt>
      <trkpt lat="49.00408" lon="-0.48994">
        <ele>130.88</ele>
        <time>2019-09-15T13:39:16Z</time>
      </trkpt>
      <trkpt lat="49.00382" lon="-0.49006">
        <ele>127.99</ele>
        <time>2019-09-15T13:39:37Z</time>
      </trkpt>
      <trkpt lat="49.00356" lon="-0.4903">
        <ele>125.11</ele>
        <time>2019-09-15T13:40:00Z</time>
      </trkpt>
      <trkpt lat="49.00342" lon="-0.49048">
        <ele>122.71</ele>
        <time>2019-09-15T13:40:14Z</time>
      </trkpt>
      <trkpt lat="49.00338" lon="-0.49055">
        <ele>122.22</ele>
        <time>2019-09-15T13:40:19Z</time>
      </trkpt>
      <trkpt lat="49.00327" lon="-0.49071">
        <ele>120.3</ele>
        <time>2019-09-15T13:40:30Z</time>
      </trkpt>
      <trkpt lat="49.00305" lon="-0.49089">
        <ele>116.94</ele>
        <time>2019-09-15T13:40:49Z</time>
      </trkpt>
      <trkpt lat="49.00287" lon="-0.49105">
        <ele>114.05</ele>
        <time>2019-09-15T13:41:07Z</time>
      </trkpt>
      <trkpt lat="49.00279" lon="-0.49117">
        <ele>110.69</ele>
        <time>2019-09-15T13:41:19Z</time>
      </trkpt>
      <trkpt lat="49.00273" lon="-0.49128">
        <ele>108.77</ele>
        <time>2019-09-15T13:41:33Z</time>
      </trkpt>
      <trkpt lat="49.00265" lon="-0.4914">
        <ele>107.32</ele>
        <time>2019-09-15T13:41:45Z</time>
      </trkpt>
      <trkpt lat="49.00257" lon="-0.49149">
        <ele>105.4</ele>
        <time>2019-09-15T13:41:56Z</time>
      </trkpt>
      <trkpt lat="49.00246" lon="-0.49163">
        <ele>103.48</ele>
        <time>2019-09-15T13:42:10Z</time>
      </trkpt>
      <trkpt lat="49.0024" lon="-0.49168">
        <ele>102.52</ele>
        <time>2019-09-15T13:42:17Z</time>
      </trkpt>
      <trkpt lat="49.00225" lon="-0.49189">
        <ele>99.63</ele>
        <time>2019-09-15T13:42:33Z</time>
      </trkpt>
      <trkpt lat="49.00215" lon="-0.49203">
        <ele>98.19</ele>
        <time>2019-09-15T13:42:46Z</time>
      </trkpt>
      <trkpt lat="49.00204" lon="-0.49217">
        <ele>96.27</ele>
        <time>2019-09-15T13:43:00Z</time>
      </trkpt>
      <trkpt lat="49.00197" lon="-0.49223">
        <ele>95.31</ele>
        <time>2019-09-15T13:43:08Z</time>
      </trkpt>
      <trkpt lat="49.00182" lon="-0.49241">
        <ele>92.9</ele>
        <time>2019-09-15T13:43:25Z</time>
      </trkpt>
      <trkpt lat="49.0017" lon="-0.49247">
        <ele>90.98</ele>
        <time>2019-09-15T13:43:37Z</time>
      </trkpt>
      <trkpt lat="49.00151" lon="-0.4926">
        <ele>88.58</ele>
        <time>2019-09-15T13:43:54Z</time>
      </trkpt>
      <trkpt lat="49.00139" lon="-0.49272">
        <ele>86.18</ele>
        <time>2019-09-15T13:44:09Z</time>
      </trkpt>
      <trkpt lat="49.00128" lon="-0.49285">
        <ele>82.81</ele>
        <time>2019-09-15T13:44:21Z</time>
      </trkpt>
      <trkpt lat="49.00116" lon="-0.49299">
        <ele>79.93</ele>
        <time>2019-09-15T13:44:35Z</time>
      </trkpt>
      <trkpt lat="49.00106" lon="-0.49315">
        <ele>76.56</ele>
        <time>2019-09-15T13:44:48Z</time>
      </trkpt>
      <trkpt lat="49.00094" lon="-0.49329">
        <ele>73.68</ele>
        <time>2019-09-15T13:45:03Z</time>
      </trkpt>
      <trkpt lat="49.00082" lon="-0.49339">
        <ele>71.27</ele>
        <time>2019-09-15T13:45:14Z</time>
      </trkpt>
      <trkpt lat="49.00069" lon="-0.49348">
        <ele>67.91</ele>
        <time>2019-09-15T13:45:29Z</time>
      </trkpt>
      <trkpt lat="49.00058" lon="-0.49358">
        <ele>65.03</ele>
        <time>2019-09-15T13:45:43Z</time>
      </trkpt>
      <trkpt lat="49.00048" lon="-0.49367">
        <ele>62.14</ele>
        <time>2019-09-15T13:45:55Z</time>
      </trkpt>
      <trkpt lat="49.00036" lon="-0.49379">
        <ele>58.78</ele>
        <time>2019-09-15T13:46:09Z</time>
      </trkpt>
      <trkpt lat="49.00026" lon="-0.4939">
        <ele>55.41</ele>
        <time>2019-09-15T13:46:23Z</time>
      </trkpt>
      <trkpt lat="49.00013" lon="-0.49403">
        <ele>52.53</ele>
        <time>2019-09-15T13:46:38Z</time>
      </trkpt>
      <trkpt lat="49.00005" lon="-0.49411">
        <ele>50.61</ele>
        <time>2019-09-15T13:46:48Z</time>
      </trkpt>
      <trkpt lat="48.99989" lon="-0.49419">
        <ele>46.76</ele>
        <time>2019-09-15T13:47:04Z</time>
      </trkpt>
      <trkpt lat="48.99977" lon="-0.4943">
        <ele>43.4</ele>
        <time>2019-09-15T13:47:18Z</time>
      </trkpt>
      <trkpt lat="48.99965" lon="-0.49437">
        <ele>40.99</ele>
        <time>2019-09-15T13:47:33Z</time>
      </trkpt>
      <trkpt lat="48.99959" lon="-0.49439">
        <ele>39.55</ele>
        <time>2019-09-15T13:47:39Z</time>
      </trkpt>
      <trkpt lat="48.99943" lon="-0.49445">
        <ele>37.15</ele>
        <time>2019-09-15T13:47:55Z</time>
      </trkpt>
      <trkpt lat="48.99933" lon="-0.49447">
        <ele>35.23</ele>
        <time>2019-09-15T13:48:13Z</time>
      </trkpt>
      <trkpt lat="48.99924" lon="-0.49455">
        <ele>34.26</ele>
        <time>2019-09-15T13:48:33Z</time>
      </trkpt>
      <trkpt lat="48.99901" lon="-0.49474">
        <ele>32.34</ele>
        <time>2019-09-15T13:48:54Z</time>
      </trkpt>
      <trkpt lat="48.99888" lon="-0.49485">
        <ele>31.86</ele>
        <time>2019-09-15T13:49:09Z</time>
      </trkpt>
      <trkpt lat="48.99878" lon="-0.49488">
        <ele>33.78</ele>
        <time>2019-09-15T13:49:22Z</time>
      </trkpt>
      <trkpt lat="48.99872" lon="-0.49482">
        <ele>35.23</ele>
        <time>2019-09-15T13:49:35Z</time>
      </trkpt>
      <trkpt lat="48.99863" lon="-0.49489">
        <ele>37.63</ele>
        <time>2019-09-15T13:49:48Z</time>
      </trkpt>
      <trkpt lat="48.99863" lon="-0.49497">
        <ele>38.11</ele>
        <time>2019-09-15T13:50:03Z</time>
      </trkpt>
      <trkpt lat="48.99869" lon="-0.49524">
        <ele>40.51</ele>
        <time>2019-09-15T13:50:20Z</time>
      </trkpt>
      <trkpt lat="48.99875" lon="-0.49554">
        <ele>42.92</ele>
        <time>2019-09-15T13:50:39Z</time>
      </trkpt>
      <trkpt lat="48.99878" lon="-0.49583">
        <ele>45.32</ele>
        <time>2019-09-15T13:50:57Z</time>
      </trkpt>
      <trkpt lat="48.99879" lon="-0.49603">
        <ele>48.2</ele>
        <time>2019-09-15T13:51:11Z</time>
      </trkpt>
      <trkpt lat="48.9988" lon="-0.49627">
        <ele>51.09</ele>
        <time>2019-09-15T13:51:27Z</time>
      </trkpt>
      <trkpt lat="48.99879" lon="-0.49644">
        <ele>52.53</ele>
        <time>2019-09-15T13:51:38Z</time>
      </trkpt>
      <trkpt lat="48.99876" lon="-0.49665">
        <ele>54.93</ele>
        <time>2019-09-15T13:51:53Z</time>
      </trkpt>
      <trkpt lat="48.99876" lon="-0.49684">
        <ele>57.34</ele>
        <time>2019-09-15T13:52:07Z</time>
      </trkpt>
      <trkpt lat="48.99875" lon="-0.49689">
        <ele>57.82</ele>
        <time>2019-09-15T13:52:10Z</time>
      </trkpt>
      <trkpt lat="48.99873" lon="-0.49715">
        <ele>60.7</ele>
        <time>2019-09-15T13:52:28Z</time>
      </trkpt>
      <trkpt lat="48.99872" lon="-0.49733">
        <ele>63.1</ele>
        <time>2019-09-15T13:52:43Z</time>
      </trkpt>
      <trkpt lat="48.99871" lon="-0.49755">
        <ele>66.47</ele>
        <time>2019-09-15T13:52:59Z</time>
      </trkpt>
      <trkpt lat="48.99872" lon="-0.49776">
        <ele>68.87</ele>
        <time>2019-09-15T13:53:15Z</time>
      </trkpt>
      <trkpt lat="48.99872" lon="-0.49798">
        <ele>71.76</ele>
        <time>2019-09-15T13:53:31Z</time>
      </trkpt>
      <trkpt lat="48.99869" lon="-0.49818">
        <ele>73.68</ele>
        <time>2019-09-15T13:53:45Z</time>
      </trkpt>
      <trkpt lat="48.99864" lon="-0.49834">
        <ele>77.04</ele>
        <time>2019-09-15T13:53:58Z</time>
      </trkpt>
      <trkpt lat="48.99855" lon="-0.49847">
        <ele>77.52</ele>
        <time>2019-09-15T13:54:12Z</time>
      </trkpt>
      <trkpt lat="48.99854" lon="-0.49847">
        <ele>77.52</ele>
        <time>2019-09-15T13:54:13Z</time>
      </trkpt>
      <trkpt lat="48.99844" lon="-0.4986">
        <ele>79.93</ele>
        <time>2019-09-15T13:54:28Z</time>
      </trkpt>
      <trkpt lat="48.99832" lon="-0.49874">
        <ele>81.85</ele>
        <time>2019-09-15T13:54:43Z</time>
      </trkpt>
      <trkpt lat="48.99818" lon="-0.4989">
        <ele>84.25</ele>
        <time>2019-09-15T13:54:59Z</time>
      </trkpt>
      <trkpt lat="48.99803" lon="-0.49901">
        <ele>86.66</ele>
        <time>2019-09-15T13:55:15Z</time>
      </trkpt>
      <trkpt lat="48.99795" lon="-0.49902">
        <ele>87.62</ele>
        <time>2019-09-15T13:55:24Z</time>
      </trkpt>
      <trkpt lat="48.99779" lon="-0.49899">
        <ele>90.5</ele>
        <time>2019-09-15T13:55:39Z</time>
      </trkpt>
      <trkpt lat="48.99764" lon="-0.49893">
        <ele>93.39</ele>
        <time>2019-09-15T13:55:56Z</time>
      </trkpt>
      <trkpt lat="48.9975" lon="-0.49887">
        <ele>95.79</ele>
        <time>2019-09-15T13:56:11Z</time>
      </trkpt>
      <trkpt lat="48.99735" lon="-0.49876">
        <ele>98.67</ele>
        <time>2019-09-15T13:56:28Z</time>
      </trkpt>
      <trkpt lat="48.99718" lon="-0.49867">
        <ele>101.08</ele>
        <time>2019-09-15T13:56:44Z</time>
      </trkpt>
      <trkpt lat="48.99698" lon="-0.49858">
        <ele>103.48</ele>
        <time>2019-09-15T13:57:03Z</time>
      </trkpt>
      <trkpt lat="48.9968" lon="-0.49855">
        <ele>104.44</ele>
        <time>2019-09-15T13:57:19Z</time>
      </trkpt>
      <trkpt lat="48.99661" lon="-0.49853">
        <ele>105.88</ele>
        <time>2019-09-15T13:57:35Z</time>
      </trkpt>
      <trkpt lat="48.99645" lon="-0.49847">
        <ele>107.81</ele>
        <time>2019-09-15T13:57:49Z</time>
      </trkpt>
      <trkpt lat="48.99626" lon="-0.49833">
        <ele>109.25</ele>
        <time>2019-09-15T13:58:08Z</time>
      </trkpt>
      <trkpt lat="48.99607" lon="-0.49815">
        <ele>111.17</ele>
        <time>2019-09-15T13:58:27Z</time>
      </trkpt>
      <trkpt lat="48.99585" lon="-0.49793">
        <ele>112.13</ele>
        <time>2019-09-15T13:58:48Z</time>
      </trkpt>
      <trkpt lat="48.99567" lon="-0.49782">
        <ele>112.61</ele>
        <time>2019-09-15T13:59:05Z</time>
      </trkpt>
      <trkpt lat="48.99563" lon="-0.49781">
        <ele>113.57</ele>
        <time>2019-09-15T13:59:09Z</time>
      </trkpt>
      <trkpt lat="48.99544" lon="-0.49787">
        <ele>114.53</ele>
        <time>2019-09-15T13:59:24Z</time>
      </trkpt>
      <trkpt lat="48.99525" lon="-0.49805">
        <ele>116.46</ele>
        <time>2019-09-15T13:59:43Z</time>
      </trkpt>
      <trkpt lat="48.99505" lon="-0.49818">
        <ele>117.42</ele>
        <time>2019-09-15T14:00:01Z</time>
      </trkpt>
      <trkpt lat="48.99483" lon="-0.49836">
        <ele>117.9</ele>
        <time>2019-09-15T14:00:20Z</time>
      </trkpt>
      <trkpt lat="48.99459" lon="-0.49846">
        <ele>117.9</ele>
        <time>2019-09-15T14:00:39Z</time>
      </trkpt>
      <trkpt lat="48.99435" lon="-0.49853">
        <ele>118.38</ele>
        <time>2019-09-15T14:00:58Z</time>
      </trkpt>
      <trkpt lat="48.99411" lon="-0.49858">
        <ele>118.86</ele>
        <time>2019-09-15T14:01:17Z</time>
      </trkpt>
      <trkpt lat="48.99388" lon="-0.49859">
        <ele>119.82</ele>
        <time>2019-09-15T14:01:35Z</time>
      </trkpt>
      <trkpt lat="48.99366" lon="-0.49858">
        <ele>120.3</ele>
        <time>2019-09-15T14:01:53Z</time>
      </trkpt>
      <trkpt lat="48.99343" lon="-0.49858">
        <ele>121.74</ele>
        <time>2019-09-15T14:02:11Z</time>
      </trkpt>
      <trkpt lat="48.99338" lon="-0.49861">
        <ele>121.74</ele>
        <time>2019-09-15T14:02:27Z</time>
      </trkpt>
      <trkpt lat="48.99337" lon="-0.49861">
        <ele>122.22</ele>
        <time>2019-09-15T14:02:51Z</time>
      </trkpt>
      <trkpt lat="48.99337" lon="-0.49861">
        <ele>122.22</ele>
        <time>2019-09-15T14:03:18Z</time>
      </trkpt>
      <trkpt lat="48.99337" lon="-0.4986">
        <ele>122.22</ele>
        <time>2019-09-15T14:03:42Z</time>
      </trkpt>
      <trkpt lat="48.99329" lon="-0.49865">
        <ele>121.74</ele>
        <time>2019-09-15T14:04:00Z</time>
      </trkpt>
      <trkpt lat="48.99306" lon="-0.49881">
        <ele>121.74</ele>
        <time>2019-09-15T14:04:20Z</time>
      </trkpt>
      <trkpt lat="48.99281" lon="-0.49891">
        <ele>121.74</ele>
        <time>2019-09-15T14:04:40Z</time>
      </trkpt>
      <trkpt lat="48.99257" lon="-0.49894">
        <ele>121.74</ele>
        <time>2019-09-15T14:04:59Z</time>
      </trkpt>
      <trkpt lat="48.99235" lon="-0.49895">
        <ele>121.26</ele>
        <time>2019-09-15T14:05:17Z</time>
      </trkpt>
      <trkpt lat="48.99211" lon="-0.49904">
        <ele>120.78</ele>
        <time>2019-09-15T14:05:36Z</time>
      </trkpt>
      <trkpt lat="48.9919" lon="-0.49914">
        <ele>118.38</ele>
        <time>2019-09-15T14:05:55Z</time>
      </trkpt>
      <trkpt lat="48.99172" lon="-0.49923">
        <ele>116.46</ele>
        <time>2019-09-15T14:06:11Z</time>
      </trkpt>
      <trkpt lat="48.99151" lon="-0.49949">
        <ele>115.98</ele>
        <time>2019-09-15T14:06:32Z</time>
      </trkpt>
      <trkpt lat="48.99133" lon="-0.49965">
        <ele>113.57</ele>
        <time>2019-09-15T14:06:50Z</time>
      </trkpt>
      <trkpt lat="48.99126" lon="-0.49964">
        <ele>111.65</ele>
        <time>2019-09-15T14:06:57Z</time>
      </trkpt>
      <trkpt lat="48.99112" lon="-0.49948">
        <ele>108.77</ele>
        <time>2019-09-15T14:07:13Z</time>
      </trkpt>
      <trkpt lat="48.99106" lon="-0.49938">
        <ele>106.84</ele>
        <time>2019-09-15T14:07:23Z</time>
      </trkpt>
      <trkpt lat="48.99097" lon="-0.49928">
        <ele>103</ele>
        <time>2019-09-15T14:07:39Z</time>
      </trkpt>
      <trkpt lat="48.99091" lon="-0.49921">
        <ele>99.63</ele>
        <time>2019-09-15T14:07:51Z</time>
      </trkpt>
      <trkpt lat="48.99083" lon="-0.49905">
        <ele>96.27</ele>
        <time>2019-09-15T14:08:04Z</time>
      </trkpt>
      <trkpt lat="48.99081" lon="-0.49895">
        <ele>94.35</ele>
        <time>2019-09-15T14:08:17Z</time>
      </trkpt>
      <trkpt lat="48.99073" lon="-0.49889">
        <ele>91.46</ele>
        <time>2019-09-15T14:08:30Z</time>
      </trkpt>
      <trkpt lat="48.99065" lon="-0.49888">
        <ele>90.5</ele>
        <time>2019-09-15T14:08:43Z</time>
      </trkpt>
      <trkpt lat="48.99056" lon="-0.49883">
        <ele>89.06</ele>
        <time>2019-09-15T14:08:54Z</time>
      </trkpt>
      <trkpt lat="48.9905" lon="-0.49881">
        <ele>89.06</ele>
        <time>2019-09-15T14:08:59Z</time>
      </trkpt>
      <trkpt lat="48.99044" lon="-0.49874">
        <ele>90.02</ele>
        <time>2019-09-15T14:09:10Z</time>
      </trkpt>
      <trkpt lat="48.99043" lon="-0.49867">
        <ele>90.98</ele>
        <time>2019-09-15T14:09:16Z</time>
      </trkpt>
      <trkpt lat="48.99039" lon="-0.49856">
        <ele>89.54</ele>
        <time>2019-09-15T14:09:24Z</time>
      </trkpt>
      <trkpt lat="48.99031" lon="-0.49846">
        <ele>90.98</ele>
        <time>2019-09-15T14:09:33Z</time>
      </trkpt>
      <trkpt lat="48.99025" lon="-0.49841">
        <ele>93.39</ele>
        <time>2019-09-15T14:09:43Z</time>
      </trkpt>
      <trkpt lat="48.99012" lon="-0.49837">
        <ele>95.31</ele>
        <time>2019-09-15T14:10:00Z</time>
      </trkpt>
      <trkpt lat="48.99006" lon="-0.49838">
        <ele>95.31</ele>
        <time>2019-09-15T14:10:06Z</time>
      </trkpt>
      <trkpt lat="48.98994" lon="-0.49838">
        <ele>97.71</ele>
        <time>2019-09-15T14:10:22Z</time>
      </trkpt>
      <trkpt lat="48.98985" lon="-0.49822">
        <ele>98.67</ele>
        <time>2019-09-15T14:10:39Z</time>
      </trkpt>
      <trkpt lat="48.98975" lon="-0.49816">
        <ele>100.6</ele>
        <time>2019-09-15T14:10:51Z</time>
      </trkpt>
      <trkpt lat="48.98967" lon="-0.49797">
        <ele>99.63</ele>
        <time>2019-09-15T14:11:07Z</time>
      </trkpt>
      <trkpt lat="48.98963" lon="-0.49776">
        <ele>98.67</ele>
        <time>2019-09-15T14:11:20Z</time>
      </trkpt>
      <trkpt lat="48.9896" lon="-0.49756">
        <ele>96.75</ele>
        <time>2019-09-15T14:11:35Z</time>
      </trkpt>
      <trkpt lat="48.98953" lon="-0.49733">
        <ele>94.83</ele>
        <time>2019-09-15T14:11:54Z</time>
      </trkpt>
      <trkpt lat="48.98951" lon="-0.49726">
        <ele>94.83</ele>
        <time>2019-09-15T14:11:58Z</time>
      </trkpt>
      <trkpt lat="48.98943" lon="-0.49703">
        <ele>93.87</ele>
        <time>2019-09-15T14:12:12Z</time>
      </trkpt>
      <trkpt lat="48.9894" lon="-0.49689">
        <ele>93.39</ele>
        <time>2019-09-15T14:12:22Z</time>
      </trkpt>
      <trkpt lat="48.98939" lon="-0.4967">
        <ele>91.46</ele>
        <time>2019-09-15T14:12:34Z</time>
      </trkpt>
      <trkpt lat="48.98941" lon="-0.49656">
        <ele>89.06</ele>
        <time>2019-09-15T14:12:45Z</time>
      </trkpt>
      <trkpt lat="48.98936" lon="-0.49644">
        <ele>85.21</ele>
        <time>2019-09-15T14:13:01Z</time>
      </trkpt>
      <trkpt lat="48.98934" lon="-0.49637">
        <ele>83.29</ele>
        <time>2019-09-15T14:13:13Z</time>
      </trkpt>
      <trkpt lat="48.98935" lon="-0.49622">
        <ele>80.89</ele>
        <time>2019-09-15T14:13:28Z</time>
      </trkpt>
      <trkpt lat="48.98932" lon="-0.49612">
        <ele>77.52</ele>
        <time>2019-09-15T14:13:43Z</time>
      </trkpt>
      <trkpt lat="48.98932" lon="-0.49596">
        <ele>74.64</ele>
        <time>2019-09-15T14:13:57Z</time>
      </trkpt>
      <trkpt lat="48.98934" lon="-0.49578">
        <ele>70.79</ele>
        <time>2019-09-15T14:14:11Z</time>
      </trkpt>
      <trkpt lat="48.98934" lon="-0.49559">
        <ele>70.31</ele>
        <time>2019-09-15T14:14:25Z</time>
      </trkpt>
      <trkpt lat="48.98935" lon="-0.49556">
        <ele>68.87</ele>
        <time>2019-09-15T14:14:27Z</time>
      </trkpt>
      <trkpt lat="48.98939" lon="-0.49531">
        <ele>68.39</ele>
        <time>2019-09-15T14:14:42Z</time>
      </trkpt>
      <trkpt lat="48.98942" lon="-0.49518">
        <ele>67.91</ele>
        <time>2019-09-15T14:14:49Z</time>
      </trkpt>
      <trkpt lat="48.98946" lon="-0.49494">
        <ele>64.07</ele>
        <time>2019-09-15T14:15:04Z</time>
      </trkpt>
      <trkpt lat="48.9895" lon="-0.4948">
        <ele>60.7</ele>
        <time>2019-09-15T14:15:19Z</time>
      </trkpt>
      <trkpt lat="48.98953" lon="-0.49458">
        <ele>58.78</ele>
        <time>2019-09-15T14:15:32Z</time>
      </trkpt>
      <trkpt lat="48.98956" lon="-0.49452">
        <ele>58.78</ele>
        <time>2019-09-15T14:15:36Z</time>
      </trkpt>
      <trkpt lat="48.98958" lon="-0.49442">
        <ele>57.82</ele>
        <time>2019-09-15T14:15:41Z</time>
      </trkpt>
      <trkpt lat="48.9896" lon="-0.49435">
        <ele>57.82</ele>
        <time>2019-09-15T14:15:46Z</time>
      </trkpt>
      <trkpt lat="48.9896" lon="-0.49412">
        <ele>57.82</ele>
        <time>2019-09-15T14:16:01Z</time>
      </trkpt>
      <trkpt lat="48.98958" lon="-0.49409">
        <ele>57.82</ele>
        <time>2019-09-15T14:16:03Z</time>
      </trkpt>
      <trkpt lat="48.98958" lon="-0.49401">
        <ele>58.78</ele>
        <time>2019-09-15T14:16:18Z</time>
      </trkpt>
      <trkpt lat="48.98952" lon="-0.49389">
        <ele>56.86</ele>
        <time>2019-09-15T14:20:35Z</time>
      </trkpt>
      <trkpt lat="48.98943" lon="-0.49388">
        <ele>54.93</ele>
        <time>2019-09-15T14:20:47Z</time>
      </trkpt>
      <trkpt lat="48.98933" lon="-0.49396">
        <ele>51.57</ele>
        <time>2019-09-15T14:21:00Z</time>
      </trkpt>
      <trkpt lat="48.98925" lon="-0.49408">
        <ele>48.68</ele>
        <time>2019-09-15T14:21:11Z</time>
      </trkpt>
      <trkpt lat="48.98913" lon="-0.49419">
        <ele>45.8</ele>
        <time>2019-09-15T14:21:26Z</time>
      </trkpt>
      <trkpt lat="48.98908" lon="-0.49409">
        <ele>42.44</ele>
        <time>2019-09-15T14:21:37Z</time>
      </trkpt>
      <trkpt lat="48.98907" lon="-0.49396">
        <ele>40.99</ele>
        <time>2019-09-15T14:21:46Z</time>
      </trkpt>
      <trkpt lat="48.98909" lon="-0.49387">
        <ele>40.99</ele>
        <time>2019-09-15T14:21:51Z</time>
      </trkpt>
      <trkpt lat="48.98907" lon="-0.49375">
        <ele>39.07</ele>
        <time>2019-09-15T14:22:00Z</time>
      </trkpt>
      <trkpt lat="48.98896" lon="-0.4936">
        <ele>35.71</ele>
        <time>2019-09-15T14:22:13Z</time>
      </trkpt>
      <trkpt lat="48.98878" lon="-0.49354">
        <ele>34.74</ele>
        <time>2019-09-15T14:22:30Z</time>
      </trkpt>
      <trkpt lat="48.98873" lon="-0.49353">
        <ele>34.74</ele>
        <time>2019-09-15T14:22:44Z</time>
      </trkpt>
      <trkpt lat="48.98871" lon="-0.49349">
        <ele>34.74</ele>
        <time>2019-09-15T14:22:48Z</time>
      </trkpt>
      <trkpt lat="48.98871" lon="-0.49328">
        <ele>34.74</ele>
        <time>2019-09-15T14:22:59Z</time>
      </trkpt>
      <trkpt lat="48.98872" lon="-0.49325">
        <ele>34.74</ele>
        <time>2019-09-15T14:23:01Z</time>
      </trkpt>
      <trkpt lat="48.98872" lon="-0.49306">
        <ele>34.74</ele>
        <time>2019-09-15T14:23:13Z</time>
      </trkpt>
      <trkpt lat="48.98874" lon="-0.4929">
        <ele>35.71</ele>
        <time>2019-09-15T14:23:22Z</time>
      </trkpt>
      <trkpt lat="48.98877" lon="-0.49272">
        <ele>35.71</ele>
        <time>2019-09-15T14:23:32Z</time>
      </trkpt>
      <trkpt lat="48.98881" lon="-0.4925">
        <ele>36.19</ele>
        <time>2019-09-15T14:23:44Z</time>
      </trkpt>
      <trkpt lat="48.98882" lon="-0.49243">
        <ele>36.19</ele>
        <time>2019-09-15T14:23:48Z</time>
      </trkpt>
      <trkpt lat="48.98886" lon="-0.49215">
        <ele>35.71</ele>
        <time>2019-09-15T14:24:03Z</time>
      </trkpt>
      <trkpt lat="48.98882" lon="-0.49194">
        <ele>38.11</ele>
        <time>2019-09-15T14:24:18Z</time>
      </trkpt>
      <trkpt lat="48.9888" lon="-0.49194">
        <ele>39.07</ele>
        <time>2019-09-15T14:24:19Z</time>
      </trkpt>
      <trkpt lat="48.98875" lon="-0.492">
        <ele>38.59</ele>
        <time>2019-09-15T14:24:33Z</time>
      </trkpt>
      <trkpt lat="48.98867" lon="-0.49194">
        <ele>39.07</ele>
        <time>2019-09-15T14:24:46Z</time>
      </trkpt>
      <trkpt lat="48.98861" lon="-0.4919">
        <ele>41.95</ele>
        <time>2019-09-15T14:24:59Z</time>
      </trkpt>
      <trkpt lat="48.98855" lon="-0.49183">
        <ele>44.84</ele>
        <time>2019-09-15T14:25:13Z</time>
      </trkpt>
      <trkpt lat="48.98855" lon="-0.49168">
        <ele>47.72</ele>
        <time>2019-09-15T14:25:29Z</time>
      </trkpt>
      <trkpt lat="48.98852" lon="-0.4915">
        <ele>50.13</ele>
        <time>2019-09-15T14:25:45Z</time>
      </trkpt>
      <trkpt lat="48.98853" lon="-0.49138">
        <ele>52.05</ele>
        <time>2019-09-15T14:25:56Z</time>
      </trkpt>
      <trkpt lat="48.98855" lon="-0.49114">
        <ele>52.05</ele>
        <time>2019-09-15T14:26:11Z</time>
      </trkpt>
      <trkpt lat="48.98859" lon="-0.49093">
        <ele>51.57</ele>
        <time>2019-09-15T14:26:24Z</time>
      </trkpt>
      <trkpt lat="48.9886" lon="-0.49076">
        <ele>53.49</ele>
        <time>2019-09-15T14:26:34Z</time>
      </trkpt>
      <trkpt lat="48.98863" lon="-0.49056">
        <ele>53.01</ele>
        <time>2019-09-15T14:26:47Z</time>
      </trkpt>
      <trkpt lat="48.98869" lon="-0.49023">
        <ele>54.93</ele>
        <time>2019-09-15T14:27:05Z</time>
      </trkpt>
      <trkpt lat="48.98872" lon="-0.48999">
        <ele>54.93</ele>
        <time>2019-09-15T14:27:18Z</time>
      </trkpt>
      <trkpt lat="48.98872" lon="-0.48994">
        <ele>54.93</ele>
        <time>2019-09-15T14:27:21Z</time>
      </trkpt>
      <trkpt lat="48.98871" lon="-0.48987">
        <ele>54.93</ele>
        <time>2019-09-15T14:27:25Z</time>
      </trkpt>
      <trkpt lat="48.98867" lon="-0.48956">
        <ele>55.41</ele>
        <time>2019-09-15T14:27:40Z</time>
      </trkpt>
      <trkpt lat="48.98864" lon="-0.48935">
        <ele>55.89</ele>
        <time>2019-09-15T14:27:53Z</time>
      </trkpt>
      <trkpt lat="48.98856" lon="-0.48918">
        <ele>58.78</ele>
        <time>2019-09-15T14:28:08Z</time>
      </trkpt>
      <trkpt lat="48.98851" lon="-0.48901">
        <ele>60.7</ele>
        <time>2019-09-15T14:28:22Z</time>
      </trkpt>
      <trkpt lat="48.98846" lon="-0.48867">
        <ele>61.66</ele>
        <time>2019-09-15T14:28:39Z</time>
      </trkpt>
      <trkpt lat="48.98841" lon="-0.4884">
        <ele>63.1</ele>
        <time>2019-09-15T14:28:54Z</time>
      </trkpt>
      <trkpt lat="48.9884" lon="-0.48835">
        <ele>63.1</ele>
        <time>2019-09-15T14:28:56Z</time>
      </trkpt>
      <trkpt lat="48.98842" lon="-0.4881">
        <ele>64.07</ele>
        <time>2019-09-15T14:29:09Z</time>
      </trkpt>
      <trkpt lat="48.98841" lon="-0.48786">
        <ele>65.99</ele>
        <time>2019-09-15T14:29:24Z</time>
      </trkpt>
      <trkpt lat="48.98842" lon="-0.4876">
        <ele>67.43</ele>
        <time>2019-09-15T14:29:38Z</time>
      </trkpt>
      <trkpt lat="48.98839" lon="-0.4874">
        <ele>69.83</ele>
        <time>2019-09-15T14:29:52Z</time>
      </trkpt>
      <trkpt lat="48.98838" lon="-0.48736">
        <ele>70.31</ele>
        <time>2019-09-15T14:29:54Z</time>
      </trkpt>
      <trkpt lat="48.9883" lon="-0.48714">
        <ele>70.31</ele>
        <time>2019-09-15T14:30:09Z</time>
      </trkpt>
      <trkpt lat="48.98822" lon="-0.48726">
        <ele>73.2</ele>
        <time>2019-09-15T14:30:24Z</time>
      </trkpt>
      <trkpt lat="48.98813" lon="-0.48738">
        <ele>75.12</ele>
        <time>2019-09-15T14:30:39Z</time>
      </trkpt>
      <trkpt lat="48.98814" lon="-0.48739">
        <ele>75.12</ele>
        <time>2019-09-15T14:31:07Z</time>
      </trkpt>
      <trkpt lat="48.98812" lon="-0.48738">
        <ele>75.12</ele>
        <time>2019-09-15T14:31:32Z</time>
      </trkpt>
      <trkpt lat="48.98807" lon="-0.48737">
        <ele>75.6</ele>
        <time>2019-09-15T14:31:46Z</time>
      </trkpt>
      <trkpt lat="48.98805" lon="-0.48733">
        <ele>74.16</ele>
        <time>2019-09-15T14:31:57Z</time>
      </trkpt>
      <trkpt lat="48.98806" lon="-0.48733">
        <ele>72.72</ele>
        <time>2019-09-15T14:32:12Z</time>
      </trkpt>
      <trkpt lat="48.98816" lon="-0.48722">
        <ele>70.31</ele>
        <time>2019-09-15T14:32:26Z</time>
      </trkpt>
      <trkpt lat="48.98824" lon="-0.48709">
        <ele>68.39</ele>
        <time>2019-09-15T14:32:38Z</time>
      </trkpt>
      <trkpt lat="48.98828" lon="-0.48699">
        <ele>67.43</ele>
        <time>2019-09-15T14:32:53Z</time>
      </trkpt>
      <trkpt lat="48.9883" lon="-0.48695">
        <ele>66.95</ele>
        <time>2019-09-15T14:32:56Z</time>
      </trkpt>
      <trkpt lat="48.98831" lon="-0.48692">
        <ele>66.95</ele>
        <time>2019-09-15T14:32:58Z</time>
      </trkpt>
      <trkpt lat="48.98841" lon="-0.48667">
        <ele>64.55</ele>
        <time>2019-09-15T14:33:14Z</time>
      </trkpt>
      <trkpt lat="48.98848" lon="-0.48649">
        <ele>62.14</ele>
        <time>2019-09-15T14:33:27Z</time>
      </trkpt>
      <trkpt lat="48.98855" lon="-0.48623">
        <ele>60.22</ele>
        <time>2019-09-15T14:33:42Z</time>
      </trkpt>
      <trkpt lat="48.98857" lon="-0.486">
        <ele>57.82</ele>
        <time>2019-09-15T14:33:56Z</time>
      </trkpt>
      <trkpt lat="48.98861" lon="-0.48576">
        <ele>56.37</ele>
        <time>2019-09-15T14:34:09Z</time>
      </trkpt>
      <trkpt lat="48.98867" lon="-0.48563">
        <ele>55.41</ele>
        <time>2019-09-15T14:34:19Z</time>
      </trkpt>
      <trkpt lat="48.98872" lon="-0.48558">
        <ele>54.45</ele>
        <time>2019-09-15T14:34:24Z</time>
      </trkpt>
      <trkpt lat="48.98877" lon="-0.48552">
        <ele>53.97</ele>
        <time>2019-09-15T14:34:30Z</time>
      </trkpt>
      <trkpt lat="48.98893" lon="-0.48535">
        <ele>51.57</ele>
        <time>2019-09-15T14:34:46Z</time>
      </trkpt>
      <trkpt lat="48.98896" lon="-0.48531">
        <ele>51.57</ele>
        <time>2019-09-15T14:34:49Z</time>
      </trkpt>
      <trkpt lat="48.9891" lon="-0.48521">
        <ele>50.61</ele>
        <time>2019-09-15T14:35:04Z</time>
      </trkpt>
      <trkpt lat="48.98924" lon="-0.48511">
        <ele>48.68</ele>
        <time>2019-09-15T14:35:16Z</time>
      </trkpt>
      <trkpt lat="48.98938" lon="-0.48501">
        <ele>47.72</ele>
        <time>2019-09-15T14:35:30Z</time>
      </trkpt>
      <trkpt lat="48.98953" lon="-0.48486">
        <ele>47.24</ele>
        <time>2019-09-15T14:35:45Z</time>
      </trkpt>
      <trkpt lat="48.98959" lon="-0.48476">
        <ele>46.76</ele>
        <time>2019-09-15T14:35:52Z</time>
      </trkpt>
      <trkpt lat="48.98959" lon="-0.48474">
        <ele>46.76</ele>
        <time>2019-09-15T14:35:53Z</time>
      </trkpt>
      <trkpt lat="48.98953" lon="-0.48444">
        <ele>46.76</ele>
        <time>2019-09-15T14:36:10Z</time>
      </trkpt>
      <trkpt lat="48.98951" lon="-0.48438">
        <ele>46.76</ele>
        <time>2019-09-15T14:36:14Z</time>
      </trkpt>
      <trkpt lat="48.98946" lon="-0.48421">
        <ele>46.76</ele>
        <time>2019-09-15T14:36:26Z</time>
      </trkpt>
      <trkpt lat="48.9894" lon="-0.4841">
        <ele>46.76</ele>
        <time>2019-09-15T14:36:38Z</time>
      </trkpt>
      <trkpt lat="48.98928" lon="-0.48401">
        <ele>46.28</ele>
        <time>2019-09-15T14:36:51Z</time>
      </trkpt>
      <trkpt lat="48.98912" lon="-0.48405">
        <ele>43.4</ele>
        <time>2019-09-15T14:37:08Z</time>
      </trkpt>
      <trkpt lat="48.98905" lon="-0.48406">
        <ele>40.51</ele>
        <time>2019-09-15T14:37:19Z</time>
      </trkpt>
      <trkpt lat="48.98895" lon="-0.48402">
        <ele>37.15</ele>
        <time>2019-09-15T14:37:32Z</time>
      </trkpt>
      <trkpt lat="48.98885" lon="-0.48403">
        <ele>33.78</ele>
        <time>2019-09-15T14:37:47Z</time>
      </trkpt>
      <trkpt lat="48.98884" lon="-0.48396">
        <ele>32.34</ele>
        <time>2019-09-15T14:37:59Z</time>
      </trkpt>
      <trkpt lat="48.98882" lon="-0.48381">
        <ele>29.46</ele>
        <time>2019-09-15T14:38:11Z</time>
      </trkpt>
      <trkpt lat="48.98888" lon="-0.48379">
        <ele>29.46</ele>
        <time>2019-09-15T14:38:16Z</time>
      </trkpt>
      <trkpt lat="48.98913" lon="-0.48365">
        <ele>29.46</ele>
        <time>2019-09-15T14:38:38Z</time>
      </trkpt>
      <trkpt lat="48.98931" lon="-0.48356">
        <ele>29.46</ele>
        <time>2019-09-15T14:38:55Z</time>
      </trkpt>
      <trkpt lat="48.98943" lon="-0.48349">
        <ele>29.46</ele>
        <time>2019-09-15T14:39:12Z</time>
      </trkpt>
      <trkpt lat="48.98971" lon="-0.48341">
        <ele>29.46</ele>
        <time>2019-09-15T14:39:33Z</time>
      </trkpt>
      <trkpt lat="48.98973" lon="-0.4834">
        <ele>29.46</ele>
        <time>2019-09-15T14:39:34Z</time>
      </trkpt>
      <trkpt lat="48.98978" lon="-0.48332">
        <ele>29.46</ele>
        <time>2019-09-15T14:39:39Z</time>
      </trkpt>
      <trkpt lat="48.98983" lon="-0.48311">
        <ele>29.46</ele>
        <time>2019-09-15T14:39:51Z</time>
      </trkpt>
      <trkpt lat="48.98983" lon="-0.48306">
        <ele>30.42</ele>
        <time>2019-09-15T14:39:53Z</time>
      </trkpt>
      <trkpt lat="48.98969" lon="-0.48269">
        <ele>31.86</ele>
        <time>2019-09-15T14:40:13Z</time>
      </trkpt>
      <trkpt lat="48.98957" lon="-0.48238">
        <ele>31.38</ele>
        <time>2019-09-15T14:40:31Z</time>
      </trkpt>
      <trkpt lat="48.98936" lon="-0.48195">
        <ele>31.38</ele>
        <time>2019-09-15T14:40:56Z</time>
      </trkpt>
      <trkpt lat="48.98934" lon="-0.48187">
        <ele>31.38</ele>
        <time>2019-09-15T14:41:00Z</time>
      </trkpt>
      <trkpt lat="48.98917" lon="-0.48177">
        <ele>30.42</ele>
        <time>2019-09-15T14:41:14Z</time>
      </trkpt>
      <trkpt lat="48.98917" lon="-0.48157">
        <ele>30.42</ele>
        <time>2019-09-15T14:41:25Z</time>
      </trkpt>
      <trkpt lat="48.98906" lon="-0.48157">
        <ele>30.42</ele>
        <time>2019-09-15T14:41:34Z</time>
      </trkpt>
      <trkpt lat="48.98876" lon="-0.48159">
        <ele>29.94</ele>
        <time>2019-09-15T14:41:57Z</time>
      </trkpt>
      <trkpt lat="48.98863" lon="-0.48141">
        <ele>31.38</ele>
        <time>2019-09-15T14:42:12Z</time>
      </trkpt>
      <trkpt lat="48.98853" lon="-0.48132">
        <ele>31.38</ele>
        <time>2019-09-15T14:42:29Z</time>
      </trkpt>
      <trkpt lat="48.98846" lon="-0.48116">
        <ele>32.34</ele>
        <time>2019-09-15T14:42:46Z</time>
      </trkpt>
      <trkpt lat="48.98834" lon="-0.48094">
        <ele>33.3</ele>
        <time>2019-09-15T14:43:01Z</time>
      </trkpt>
      <trkpt lat="48.98821" lon="-0.4807">
        <ele>35.23</ele>
        <time>2019-09-15T14:43:18Z</time>
      </trkpt>
      <trkpt lat="48.98812" lon="-0.48047">
        <ele>36.67</ele>
        <time>2019-09-15T14:43:32Z</time>
      </trkpt>
      <trkpt lat="48.98801" lon="-0.4802">
        <ele>38.59</ele>
        <time>2019-09-15T14:43:50Z</time>
      </trkpt>
      <trkpt lat="48.98791" lon="-0.47988">
        <ele>41.47</ele>
        <time>2019-09-15T14:44:09Z</time>
      </trkpt>
      <trkpt lat="48.98782" lon="-0.47971">
        <ele>42.92</ele>
        <time>2019-09-15T14:44:22Z</time>
      </trkpt>
      <trkpt lat="48.98763" lon="-0.47949">
        <ele>44.84</ele>
        <time>2019-09-15T14:44:41Z</time>
      </trkpt>
      <trkpt lat="48.98739" lon="-0.47932">
        <ele>46.76</ele>
        <time>2019-09-15T14:45:00Z</time>
      </trkpt>
      <trkpt lat="48.98717" lon="-0.47914">
        <ele>47.72</ele>
        <time>2019-09-15T14:45:19Z</time>
      </trkpt>
      <trkpt lat="48.98691" lon="-0.47899">
        <ele>49.65</ele>
        <time>2019-09-15T14:45:41Z</time>
      </trkpt>
      <trkpt lat="48.98663" lon="-0.47883">
        <ele>50.13</ele>
        <time>2019-09-15T14:46:03Z</time>
      </trkpt>
      <trkpt lat="48.98647" lon="-0.47872">
        <ele>51.09</ele>
        <time>2019-09-15T14:46:20Z</time>
      </trkpt>
      <trkpt lat="48.98646" lon="-0.47873">
        <ele>51.09</ele>
        <time>2019-09-15T14:46:27Z</time>
      </trkpt>
      <trkpt lat="48.98648" lon="-0.47836">
        <ele>52.53</ele>
        <time>2019-09-15T14:46:45Z</time>
      </trkpt>
      <trkpt lat="48.98646" lon="-0.47814">
        <ele>52.53</ele>
        <time>2019-09-15T14:46:57Z</time>
      </trkpt>
      <trkpt lat="48.98641" lon="-0.47802">
        <ele>53.01</ele>
        <time>2019-09-15T14:47:09Z</time>
      </trkpt>
    </trkseg>
  </trk>
</gpx>